GFSCGP_500_spd_000.txt.gz
Wind_Speed
26 28 23 17 17 19 21 15 5 8 10 13 11 11 6 13 16 9 7 7 5 3 3 2 4 6 5 4 5 5 4 5 5 7 8 8 7 8 9 10 11 11 12 12
28 29 22 17 23 27 24 20 12 3 10 21 19 15 9 11 9 3 2 4 1 4 3 3 3 4 5 4 3 3 3 3 4 6 6 8 9 10 11 12 13 12 13 12
25 22 28 26 31 31 25 22 20 4 16 23 22 21 18 14 6 4 9 10 11 8 9 7 7 6 6 5 2 1 3 5 4 6 8 9 10 12 14 14 15 16 17 17
28 31 36 33 30 32 32 22 11 14 24 33 23 23 25 19 10 6 13 19 19 7 11 14 11 8 6 4 4 5 8 8 9 10 11 12 14 14 14 15 16 18 19 21
29 35 35 36 30 36 30 23 16 19 22 23 25 28 19 21 15 11 15 8 11 15 14 15 13 12 9 9 9 10 12 13 13 14 16 17 18 18 19 18 19 19 20 21
35 35 36 33 32 39 35 27 29 23 24 27 26 23 26 27 24 17 20 18 13 11 11 12 14 13 14 13 14 16 17 18 19 19 19 22 23 21 20 21 23 25 26 25
43 42 39 36 38 39 42 33 35 38 33 32 25 28 26 28 29 20 23 20 16 15 12 15 15 15 19 21 20 20 22 23 24 22 21 21 22 22 21 24 26 27 26 26
46 46 43 41 41 36 38 36 36 40 49 43 35 37 17 13 16 17 25 19 12 12 5 11 12 14 12 18 21 23 23 22 21 20 18 20 19 19 22 26 28 28 27 28
49 46 42 42 39 33 33 41 34 33 39 27 28 25 17 19 21 19 18 17 15 16 15 12 10 12 16 18 24 22 20 20 19 19 19 18 20 19 21 24 27 27 27 28
45 43 40 35 31 28 30 23 29 39 31 31 31 24 21 14 20 16 16 17 18 23 19 19 10 7 10 14 18 21 21 21 21 21 23 23 23 23 22 24 27 29 29 27
41 41 39 39 38 31 28 31 27 28 26 37 29 24 21 21 23 15 16 15 22 24 22 15 8 7 10 12 15 21 23 23 25 26 27 28 25 26 25 23 26 28 28 28
42 41 43 43 34 30 25 34 35 35 39 32 34 28 28 24 26 17 14 19 23 28 22 13 10 14 15 19 16 21 23 25 29 32 31 29 27 28 27 26 26 29 29 30
36 44 41 41 37 29 24 31 35 34 37 34 34 35 30 28 25 25 22 26 25 24 27 24 15 17 21 22 24 22 23 27 30 32 33 29 29 29 30 29 29 30 33 34
15 47 44 44 38 33 35 31 27 28 36 31 34 31 34 31 26 26 30 32 28 25 20 19 22 22 24 25 26 30 25 24 28 30 28 28 29 30 31 31 31 33 35 35
21 48 44 43 32 32 37 37 31 30 32 29 23 28 37 34 25 27 33 33 31 27 27 24 22 27 34 33 31 32 30 27 30 31 29 30 32 32 33 34 32 35 37 38
37 30 48 47 37 23 31 40 36 25 26 27 33 31 33 30 27 29 33 39 38 34 33 35 35 36 36 34 34 35 32 29 34 34 34 32 32 35 34 38 35 37 39 40
41 32 50 46 38 33 35 44 42 38 40 29 37 22 25 29 33 36 39 43 44 41 42 41 33 35 38 45 40 37 32 31 34 35 33 32 36 38 37 38 38 39 40 42
41 39 35 49 40 42 37 40 28 25 28 26 23 20 27 25 29 32 40 45 42 48 47 41 41 41 41 43 41 36 29 31 35 35 34 33 36 39 39 38 39 41 41 39
38 45 41 44 47 43 44 38 33 34 35 33 34 34 25 37 36 41 38 42 48 48 46 40 38 40 35 36 39 36 33 35 35 34 32 36 38 39 39 40 40 41 40 36
40 37 50 49 46 48 50 50 48 41 39 38 38 35 32 34 36 41 43 46 46 43 42 42 36 36 44 40 47 43 38 40 38 35 36 39 38 41 43 40 41 40 36 34
41 46 39 42 49 49 49 51 52 50 52 51 42 39 37 41 34 37 42 43 44 44 46 36 31 36 45 38 42 40 42 40 39 38 39 40 43 43 45 41 40 38 31 34
51 48 44 44 42 46 49 50 52 55 51 50 51 49 36 38 42 49 48 53 52 52 43 42 41 44 38 37 36 40 38 38 38 36 38 40 51 59 50 42 39 37 34 39
48 51 55 54 51 48 47 46 49 54 54 52 47 39 41 45 41 43 45 44 47 35 48 49 44 47 44 42 43 37 40 38 33 38 41 45 50 51 38 24 37 43 40 49
51 51 50 48 52 53 54 50 49 51 51 57 41 38 40 43 47 54 56 57 53 39 42 44 47 42 49 52 44 37 42 34 37 39 42 45 46 54 52 31 27 42 41 46
42 42 45 31 44 43 37 41 45 49 48 46 40 36 39 37 43 49 56 48 40 40 37 46 46 50 50 49 45 40 38 46 42 44 43 51 56 48 47 52 54 49 46 42
43 42 41 42 44 31 38 27 27 31 34 39 41 40 44 49 41 51 49 57 40 46 48 46 49 48 45 43 45 46 46 45 41 45 48 58 50 48 57 55 51 49 45 44

GFSCGP_500_spd_003.txt.gz
Wind_Speed
30 29 24 25 25 26 17 14 16 7 5 6 10 8 6 15 12 7 1 5 6 5 5 3 5 6 6 6 5 6 6 5 3 2 1 2 3 4 4 4 4 5 5 7
32 25 24 29 29 33 25 22 15 12 4 6 4 10 7 11 13 7 5 4 5 7 7 7 7 6 8 8 6 5 4 3 2 2 4 5 5 6 7 8 9 10 10 11
25 22 33 31 26 34 28 24 17 8 9 15 12 16 5 10 14 9 13 7 8 8 13 12 8 7 8 9 8 7 6 4 4 7 9 10 9 9 10 11 12 14 15 15
31 30 38 37 29 30 33 26 20 22 19 17 20 22 13 8 11 3 10 8 6 7 7 13 13 11 11 11 11 10 8 8 8 11 13 13 13 13 15 16 16 18 19 21
37 33 39 40 32 31 35 26 25 26 22 18 23 27 16 16 12 8 7 7 10 12 14 14 15 17 16 16 14 14 13 13 14 15 17 18 19 19 19 21 21 22 22 23
42 37 41 43 35 39 33 33 35 30 26 30 23 24 20 14 7 14 12 13 13 11 14 16 14 18 20 21 19 16 16 18 19 21 21 24 28 24 24 25 24 22 22 23
48 46 45 46 45 44 42 41 39 38 36 33 28 29 15 3 7 10 10 13 11 9 10 14 15 12 15 20 24 24 22 24 25 26 24 22 22 23 25 25 23 22 23 23
52 52 49 50 47 46 44 47 45 39 31 31 32 35 9 6 5 7 10 14 10 6 11 10 24 27 25 21 22 23 19 18 23 22 18 18 19 20 22 23 22 22 23 24
56 53 51 53 48 45 49 56 46 43 37 36 34 35 29 18 17 18 13 12 7 9 11 14 11 15 20 22 21 19 17 17 17 17 16 18 18 19 21 21 23 23 23 25
52 53 50 48 51 51 54 52 50 51 45 45 45 45 39 34 22 17 15 15 11 11 12 13 9 12 11 12 14 15 17 18 19 20 21 23 24 27 24 23 24 23 24 27
47 53 49 50 54 51 55 53 54 48 45 40 37 35 32 35 29 16 18 18 12 12 12 16 14 5 6 5 11 18 21 21 21 24 28 27 29 30 28 27 27 25 27 29
39 47 46 51 49 50 54 49 48 42 35 33 33 32 31 28 24 17 21 17 13 14 12 11 11 6 3 5 6 11 16 23 27 30 32 32 31 32 32 32 32 30 29 29
33 44 48 46 49 50 53 46 39 28 32 34 31 29 26 33 31 24 24 23 23 22 14 10 8 9 7 7 14 17 20 20 21 26 29 31 32 33 33 33 33 33 33 31
29 30 46 52 46 48 49 43 36 29 37 37 34 30 27 24 32 28 24 20 18 12 13 9 14 11 8 15 19 19 25 26 29 29 29 31 32 31 33 33 34 36 36 33
38 28 23 43 44 50 42 41 34 30 27 30 28 31 28 29 27 21 23 20 14 13 15 14 21 19 21 21 20 22 28 31 33 32 34 31 35 33 33 36 38 41 40 38
36 37 22 31 41 48 45 41 37 34 29 25 25 27 23 24 24 27 29 23 16 16 20 26 31 28 27 28 28 30 34 33 33 34 33 37 35 32 35 40 39 43 41 40
39 38 38 31 42 48 47 38 40 44 44 30 32 25 21 30 28 28 24 22 24 24 24 31 35 38 38 36 33 29 34 31 30 33 40 37 38 33 35 39 44 46 42 42
39 39 38 33 43 52 40 35 34 38 45 45 42 37 34 29 22 21 17 23 26 28 29 33 38 40 44 44 37 31 33 37 42 44 39 48 39 29 39 42 43 43 43 44
40 38 39 39 40 44 46 38 30 31 41 54 41 36 32 19 22 24 28 31 32 33 33 37 40 46 47 46 40 33 34 38 38 39 38 36 39 39 41 44 45 45 47 42
36 38 41 41 41 43 52 44 37 37 39 48 49 34 31 27 27 22 29 36 34 37 37 43 44 44 44 42 42 34 44 41 39 40 41 43 41 39 44 46 47 49 57 48
40 43 39 45 45 45 44 34 32 36 39 40 43 32 36 37 35 29 31 38 39 39 41 48 47 47 46 50 44 33 42 42 43 43 41 41 40 42 46 44 43 43 53 43
46 40 44 40 52 51 41 44 48 45 37 40 43 45 45 43 40 32 36 40 46 48 53 57 51 50 59 57 46 37 37 38 43 43 40 41 42 42 47 49 36 41 42 35
45 46 39 36 50 55 55 40 37 36 37 43 45 46 48 48 44 41 46 47 48 49 51 47 55 58 50 42 41 38 42 44 43 42 42 41 37 40 39 47 34 28 52 44
53 48 37 40 39 45 43 45 50 50 49 51 51 48 46 47 50 51 55 41 45 45 47 45 51 48 42 53 49 47 53 48 44 44 32 38 41 40 43 40 27 50 49 43
50 51 46 40 47 46 46 44 42 36 41 43 42 41 47 47 50 52 50 50 46 39 45 47 50 48 52 45 45 50 50 41 47 33 36 40 43 43 35 47 46 49 56 57
42 41 36 40 51 49 61 50 43 46 44 52 50 52 50 27 36 38 47 40 37 35 29 30 35 43 47 46 45 45 35 41 43 45 42 42 34 31 43 46 54 56 59 58

GFSCGP_500_spd_009.txt.gz
Wind_Speed
31 25 20 16 17 19 17 19 21 19 21 19 18 14 12 10 8 7 3 4 5 6 5 3 3 6 9 10 11 12 11 9 6 5 3 2 3 4 4 5 6 7 8 9
36 27 26 29 27 23 24 26 24 24 23 18 17 15 14 11 7 6 3 4 4 7 6 4 3 4 8 11 12 12 11 10 10 8 6 5 5 5 5 7 8 10 11 12
41 31 35 36 31 25 24 24 33 26 25 21 17 16 14 11 9 6 4 1 3 5 8 7 7 8 7 11 13 13 12 12 12 10 9 7 7 8 9 10 12 13 15 15
47 38 40 39 36 29 20 22 32 31 29 23 20 17 15 11 9 7 3 2 2 6 10 11 13 14 13 12 14 15 14 15 14 13 13 13 13 13 15 17 20 22 20 18
50 43 44 45 38 33 26 21 33 29 30 30 26 24 19 18 15 13 6 2 3 7 9 9 10 12 13 16 18 17 17 17 17 16 17 18 19 20 21 24 23 19 19 18
53 49 51 47 46 42 36 32 30 33 35 40 30 29 21 15 11 15 12 8 9 9 9 10 13 17 17 17 21 22 21 19 19 20 21 22 24 26 23 20 20 19 18 18
56 54 55 53 54 54 47 43 41 39 40 43 31 30 10 13 12 19 14 12 13 14 12 11 11 11 19 18 21 25 25 23 21 23 26 26 22 20 20 18 17 19 19 19
56 58 54 60 58 55 52 48 47 43 41 35 33 28 18 12 19 18 17 18 21 13 10 12 15 16 13 17 19 23 24 23 20 23 17 17 17 15 16 17 18 21 24 24
57 59 59 64 60 56 58 56 46 45 45 39 41 34 26 15 22 21 18 18 15 10 10 17 18 16 11 12 15 23 27 24 20 15 13 15 18 18 19 19 21 22 23 23
54 56 62 64 67 64 60 56 54 52 54 54 51 43 30 22 20 21 19 17 14 13 17 20 19 10 13 14 14 11 9 10 10 11 14 17 19 19 23 23 27 29 28 22
48 56 58 70 72 69 67 65 63 59 56 53 52 47 31 26 22 24 25 23 20 17 18 20 15 11 10 10 6 6 6 5 5 7 10 13 19 22 24 25 28 28 29 28
43 46 57 64 72 75 69 67 63 63 59 58 56 49 38 31 27 23 22 24 26 22 23 20 17 17 15 13 4 6 2 3 7 11 14 18 22 20 26 30 31 37 28 27
41 47 48 57 63 73 75 72 68 69 65 65 60 54 44 34 31 24 25 20 20 21 27 24 16 18 17 11 10 4 7 9 14 16 18 19 23 26 24 29 33 33 34 34
43 45 51 54 61 62 69 73 74 73 74 67 65 55 44 38 33 26 26 22 25 25 30 23 21 21 18 13 10 9 8 13 16 18 20 22 25 28 33 35 39 39 34 48
43 47 44 50 53 57 61 63 68 71 69 69 59 54 40 39 39 33 28 24 28 29 29 26 28 26 21 17 14 14 12 14 18 20 23 25 28 31 37 41 45 48 42 47
42 46 41 43 44 42 56 60 59 64 64 65 55 55 43 39 28 27 24 20 23 29 31 26 28 26 24 22 20 15 15 20 19 21 24 27 30 35 39 44 42 46 50 60
46 44 43 43 35 40 48 51 56 57 60 61 56 47 43 31 28 27 22 26 24 27 24 22 21 24 21 20 21 22 24 22 23 25 24 29 33 39 42 43 44 44 44 49
49 48 43 37 38 44 44 48 53 53 56 57 55 47 36 28 24 29 24 28 28 26 25 22 23 21 23 27 31 25 26 28 29 31 34 37 38 44 47 51 48 44 47 47
53 53 53 41 38 42 45 43 49 53 54 54 50 45 34 32 31 29 26 29 30 27 25 24 28 33 37 31 30 26 32 31 34 36 38 39 40 46 46 51 52 49 42 39
59 60 54 48 33 42 42 34 37 42 49 44 43 40 33 38 37 36 32 33 32 32 32 32 34 37 35 34 35 37 32 38 42 44 44 47 49 45 43 47 47 49 47 50
54 56 59 49 34 38 36 27 29 37 42 40 38 38 38 35 38 39 36 41 38 32 35 35 39 39 36 38 39 41 44 47 48 52 48 54 48 45 40 45 50 53 52 44
38 42 50 40 38 39 42 29 29 32 33 35 41 37 36 35 38 40 44 43 40 42 37 29 33 37 39 41 43 46 48 51 53 48 50 51 48 44 45 47 49 50 49 43
38 39 43 31 47 44 39 33 30 29 30 37 33 42 32 33 34 37 38 38 39 40 44 35 34 36 41 42 45 51 55 55 54 58 47 50 55 55 50 51 50 42 31 34
30 34 34 37 16 44 34 36 37 35 35 38 33 36 43 48 39 38 36 42 41 42 41 36 40 38 37 43 48 56 64 52 46 47 47 52 57 57 47 46 38 35 40 36
28 28 29 30 29 23 35 39 39 41 40 40 39 38 40 46 39 39 40 40 39 40 43 39 38 40 41 41 48 49 56 52 55 50 52 54 45 41 37 37 42 42 38 44
23 20 18 18 35 25 34 35 37 39 42 44 44 41 40 40 35 39 40 42 41 41 42 42 40 41 45 52 50 45 43 48 50 51 53 49 48 46 45 42 42 40 44 47

GFSCGP_500_spd_015.txt.gz
Wind_Speed
32 33 31 30 29 26 18 17 19 19 25 23 19 16 16 12 11 10 10 9 8 8 8 7 9 10 10 11 11 11 10 9 8 7 5 4 5 4 3 5 5 6 6 9
38 35 31 34 34 33 25 23 20 17 28 22 18 17 18 17 15 13 12 12 10 9 10 10 10 11 12 13 13 12 12 10 9 8 8 7 7 6 6 7 8 8 10 12
34 31 33 38 40 37 31 27 23 22 29 20 22 20 22 25 18 15 15 14 13 12 12 11 11 11 11 12 14 14 12 11 11 11 11 10 9 9 9 10 11 13 15 18
28 34 38 40 39 40 34 30 26 25 34 27 26 22 27 24 22 19 16 14 14 14 13 14 15 14 13 13 11 11 11 13 13 12 13 14 12 13 15 15 17 19 20 22
23 30 38 42 39 42 35 30 28 28 31 22 26 27 23 22 22 23 18 15 15 16 17 17 16 17 16 16 14 14 12 14 15 14 15 15 15 17 19 20 22 23 23 18
25 27 34 40 42 45 38 31 32 31 31 37 31 30 26 28 22 26 22 20 17 17 18 19 15 14 15 16 16 17 17 17 17 17 17 18 18 20 23 24 23 20 17 15
26 28 29 37 45 46 46 41 37 38 40 40 30 37 26 28 26 21 19 21 24 20 20 18 17 15 14 13 17 21 19 18 20 21 20 19 20 21 22 20 17 16 14 16
34 34 32 32 39 46 50 47 44 43 36 35 32 37 36 31 24 21 21 21 23 28 22 15 13 12 8 11 13 13 18 22 22 20 23 22 22 21 19 17 15 15 15 17
35 38 32 34 36 46 47 54 43 38 33 34 33 32 30 30 33 33 27 21 25 28 23 14 12 9 9 9 7 12 15 18 21 20 20 20 19 17 16 16 17 14 14 17
37 32 33 33 37 42 50 43 48 50 45 41 35 32 30 34 38 32 32 25 24 26 25 21 16 12 12 10 9 10 16 17 18 22 21 18 13 10 7 9 10 14 18 19
38 39 32 30 40 38 47 55 47 45 48 45 39 35 32 27 26 30 27 23 23 24 22 17 16 13 16 16 12 13 14 16 12 12 14 12 10 10 9 8 10 14 19 18
42 39 40 34 33 35 39 42 49 49 51 50 44 38 30 32 27 28 29 23 17 22 28 24 23 21 16 13 17 15 15 14 15 16 12 9 10 8 8 10 16 15 21 17
38 43 36 35 30 36 42 43 46 51 43 52 50 47 33 21 26 27 29 35 22 25 26 31 28 29 20 18 20 17 16 13 14 13 13 13 13 14 17 21 17 18 22 27
46 36 43 37 36 29 33 37 43 44 55 50 52 44 38 38 31 35 37 38 34 35 31 34 32 32 29 22 23 22 20 19 18 15 16 17 17 18 19 15 17 23 29 31
49 48 39 41 32 26 31 34 38 47 47 52 47 46 43 39 38 34 28 34 33 26 34 29 33 35 36 29 26 23 21 23 22 18 20 19 18 17 17 20 24 29 32 35
48 49 43 39 30 34 32 32 36 37 45 50 47 50 43 44 37 34 41 46 41 36 26 31 33 33 34 27 28 26 23 24 27 22 22 21 16 14 18 22 24 28 35 39
50 44 47 47 36 31 34 38 37 38 39 40 48 56 44 45 46 45 46 41 39 34 37 34 31 31 32 29 31 31 30 29 28 24 20 22 22 18 20 27 30 33 39 43
52 52 40 38 33 38 39 30 33 37 41 40 40 39 43 56 59 51 48 40 36 35 36 37 32 32 35 35 35 34 36 32 27 24 22 22 24 24 25 29 33 38 41 45
44 51 43 37 38 37 39 33 40 36 35 34 40 37 41 41 42 51 58 58 58 47 38 36 36 34 35 38 37 37 39 35 27 21 19 21 23 28 30 33 36 41 45 49
57 51 42 37 42 40 32 46 28 31 41 38 40 43 36 37 41 45 41 46 53 47 41 49 39 34 37 38 35 35 37 35 31 27 25 25 26 31 34 37 42 44 51 51
57 57 54 45 39 35 44 44 44 40 34 30 32 38 39 37 41 31 27 38 50 39 44 49 43 36 36 39 38 34 36 35 34 33 31 33 33 35 37 38 43 51 58 56
56 57 50 41 42 40 42 43 45 37 41 31 29 29 32 36 34 39 45 49 40 46 50 50 46 38 36 36 30 34 35 37 41 40 36 37 39 42 43 44 47 50 57 60
50 53 41 36 38 48 47 45 40 30 32 28 28 32 28 30 44 49 48 42 37 45 48 50 47 41 39 35 32 33 38 41 45 44 41 39 44 43 45 47 49 51 58 61
47 42 41 49 48 49 45 47 38 34 32 27 31 37 33 34 33 35 33 37 41 48 49 49 47 42 41 39 37 36 39 43 44 49 45 42 46 44 49 52 55 57 54 56
46 52 54 53 55 52 49 42 32 30 29 30 36 39 37 34 36 36 38 38 42 48 48 49 42 42 42 42 41 44 46 42 43 44 44 47 46 51 51 54 55 59 55 53
42 43 33 61 58 48 41 37 30 29 26 31 37 36 34 36 37 37 37 35 35 39 42 43 43 42 42 45 47 46 48 44 45 44 42 50 54 52 53 56 56 52 52 52

GFSCGP_500_spd_018.txt.gz
Wind_Speed
30 31 27 27 25 22 17 15 13 28 24 18 22 27 33 2 10 13 10 8 7 8 9 9 8 9 9 8 8 7 6 5 4 4 3 3 3 3 3 2 2 4 5 6
33 32 26 29 29 27 23 24 23 22 26 18 20 20 23 15 16 17 14 12 11 10 9 8 8 9 10 9 9 9 8 7 6 5 4 6 5 5 5 5 5 7 9 11
23 24 30 32 35 31 30 30 22 19 23 25 18 18 20 26 24 20 17 14 12 12 11 11 10 10 10 10 12 12 10 8 8 7 7 7 7 6 7 8 9 11 13 15
19 23 33 36 36 33 32 29 25 21 27 30 28 28 23 21 25 19 20 16 15 14 13 13 13 13 13 13 12 11 12 12 11 9 10 10 9 10 10 11 14 16 18 20
18 21 28 35 38 34 31 27 30 26 26 32 27 31 26 29 35 25 20 17 18 17 15 16 17 19 18 17 15 15 14 13 13 13 13 13 12 13 14 15 17 20 21 18
22 22 25 28 36 39 34 32 30 32 30 36 28 33 26 30 34 31 33 24 19 20 17 19 19 20 22 21 18 18 19 19 17 15 16 16 17 16 16 17 19 18 14 12
22 23 23 25 34 36 41 35 36 37 40 39 28 36 31 28 33 35 36 23 24 23 24 19 19 16 17 18 20 19 20 20 19 18 18 19 19 17 17 19 19 15 12 11
32 31 28 28 28 36 39 40 45 42 41 34 32 39 36 24 38 35 6 11 26 27 23 22 16 13 11 10 16 18 18 23 25 23 20 20 20 20 19 18 16 15 13 8
35 37 30 30 31 35 35 43 42 40 33 35 33 32 28 34 37 36 33 25 21 22 33 16 19 15 10 9 10 13 15 19 20 21 22 21 19 19 15 14 12 10 7 12
36 34 36 31 32 35 39 32 41 47 46 45 38 35 36 30 39 30 33 28 26 30 33 29 23 18 13 9 10 10 12 13 16 17 20 20 19 14 12 8 7 6 6 12
41 40 34 31 43 37 40 44 45 38 49 50 44 41 31 29 32 37 42 34 28 35 33 34 24 21 14 16 12 10 14 16 14 13 15 19 16 12 9 7 3 8 10 11
45 44 46 41 33 32 38 40 43 51 48 52 48 43 23 31 31 34 41 33 35 43 32 32 25 23 19 15 10 8 12 14 15 13 13 11 12 10 9 6 8 10 14 15
37 46 44 46 39 35 42 41 41 45 51 46 51 52 36 37 34 17 27 19 19 24 33 33 28 28 24 18 16 13 14 14 13 10 9 8 8 8 9 10 12 10 16 18
43 43 49 52 49 37 37 41 40 41 46 55 49 47 48 41 42 34 32 28 37 36 27 31 26 27 25 24 21 18 17 19 15 10 7 8 9 11 12 10 10 13 15 20
55 57 44 46 39 31 34 34 39 42 45 49 53 43 40 50 34 31 35 26 32 40 35 34 35 36 32 31 26 24 23 22 18 14 10 11 13 12 9 10 9 13 18 21
55 58 53 47 39 41 35 34 38 40 42 46 45 49 42 42 51 39 38 41 32 41 43 50 42 38 36 38 32 28 29 26 22 19 16 16 15 14 14 15 16 15 18 22
51 60 60 60 47 35 42 46 34 34 34 35 41 49 45 48 45 49 46 33 29 35 37 52 52 38 37 36 35 28 29 29 26 24 17 19 10 12 13 17 21 23 25 25
53 56 60 56 45 44 51 36 39 35 33 31 31 31 41 53 56 57 57 42 48 40 45 49 50 51 41 38 39 33 33 31 28 25 23 20 17 17 16 17 20 24 26 30
44 51 48 44 51 51 43 36 30 34 38 34 37 40 35 34 42 66 58 56 57 54 33 44 44 45 43 39 41 36 35 34 31 30 27 21 20 19 16 18 23 28 29 34
42 46 46 45 44 50 41 32 41 50 47 48 51 54 52 45 45 39 53 66 62 57 51 53 45 30 43 39 41 38 38 36 35 34 26 24 26 26 25 24 28 29 33 37
61 53 53 48 53 41 32 43 45 46 46 49 45 45 44 48 54 45 39 40 55 66 67 64 53 49 51 41 43 41 36 35 31 31 26 25 27 28 30 30 32 33 38 42
66 57 46 42 45 35 46 41 49 51 50 41 45 41 42 47 47 52 39 37 40 46 61 67 64 60 47 38 43 43 38 37 33 31 25 27 29 31 32 35 34 39 43 46
61 59 53 46 43 36 42 53 51 48 45 44 42 35 36 40 40 45 48 56 50 43 43 47 51 50 44 46 47 45 39 37 29 28 29 30 35 37 38 46 33 41 44 46
57 52 52 43 49 48 52 46 47 49 43 41 40 43 42 42 41 44 51 56 51 49 46 54 50 50 50 51 49 47 38 33 31 32 30 36 39 41 41 40 40 42 46 52
54 49 39 40 41 51 50 50 52 54 48 39 36 36 37 44 43 43 46 49 49 58 55 51 46 47 52 53 49 44 39 37 37 34 37 44 44 43 47 43 45 47 50 53
43 52 47 51 56 55 59 53 48 47 46 39 36 37 42 41 40 38 40 39 36 37 48 53 44 44 48 48 46 44 42 42 41 44 46 47 42 43 42 45 47 51 53 55

GFSCGP_500_spd_021.txt.gz
Wind_Speed
28 29 22 19 17 15 20 21 16 10 19 27 22 17 13 18 13 13 9 3 3 6 7 9 9 10 9 7 7 6 6 4 3 3 3 3 5 5 5 4 2 3 3 5
21 22 25 23 24 21 23 18 20 16 28 31 21 16 19 13 16 23 9 2 5 5 7 8 8 8 8 7 7 6 5 4 5 5 4 3 4 4 4 3 3 4 7 9
16 12 24 28 29 26 25 24 20 26 24 32 26 18 17 15 18 12 9 4 6 8 9 7 8 10 9 10 9 8 7 8 8 7 6 6 6 7 5 4 5 8 10 13
19 19 24 29 32 30 27 22 23 27 19 24 23 20 21 22 19 13 9 10 6 8 8 10 9 9 9 10 9 9 10 10 9 9 10 9 9 10 8 7 8 11 14 16
14 22 22 24 29 33 23 27 29 31 25 27 24 32 27 24 28 20 18 18 11 8 10 7 10 14 15 13 13 12 11 11 12 11 12 11 13 12 12 11 12 14 12 11
21 23 25 21 26 33 27 31 34 37 28 32 30 28 30 32 24 23 23 16 24 10 10 13 12 17 17 17 18 19 17 16 16 16 16 16 16 15 14 14 13 13 11 9
25 27 26 26 26 30 33 37 40 47 46 44 34 37 29 16 25 30 26 29 31 28 10 10 13 14 16 17 16 16 18 21 20 20 18 19 18 17 17 16 13 11 8 8
33 34 27 24 28 29 30 38 45 49 48 48 39 45 31 20 15 27 29 36 28 38 21 7 11 16 14 15 13 14 16 21 24 24 23 20 20 19 19 16 12 7 6 3
36 35 27 31 27 30 33 36 31 44 45 48 47 43 24 26 22 27 31 32 33 22 18 10 13 12 16 15 12 9 8 16 20 20 22 24 23 22 18 13 5 1 2 1
39 40 36 33 32 35 36 31 35 38 47 52 44 48 37 23 26 33 34 33 34 41 34 14 19 19 20 17 14 11 7 9 9 11 15 18 21 20 15 8 3 5 1 8
41 44 41 40 43 39 38 40 43 39 42 45 46 47 36 29 22 36 37 32 35 33 32 29 23 26 23 24 22 13 10 10 10 9 9 11 15 14 11 5 9 4 3 4
41 42 48 47 44 39 37 40 42 49 42 47 48 40 33 31 23 36 26 27 29 34 32 32 28 30 24 31 23 12 12 8 10 10 7 6 5 7 6 7 11 6 6 7
38 48 46 50 49 48 47 40 42 43 44 48 46 38 35 39 31 33 43 34 30 31 35 32 37 38 26 27 24 17 15 11 10 8 6 5 5 6 6 9 9 7 8 10
50 51 57 58 55 49 50 45 42 43 48 44 49 42 30 46 43 36 31 36 35 21 35 37 38 34 29 24 26 22 18 16 15 9 7 7 6 7 7 10 9 9 11 10
64 58 58 58 48 51 52 43 43 46 45 48 39 46 41 48 49 40 37 52 28 33 35 39 39 40 34 25 24 23 22 21 20 16 11 10 10 8 7 12 13 10 9 11
69 66 56 56 55 48 55 50 46 43 39 42 41 42 46 43 38 31 44 41 36 33 37 37 40 46 37 36 36 35 25 24 25 22 16 16 14 11 10 14 15 15 15 17
65 69 58 66 59 50 49 61 52 41 38 36 42 39 37 53 49 34 25 32 42 37 40 44 39 39 40 41 41 36 33 27 28 28 25 19 17 16 15 17 15 15 18 20
68 61 60 68 62 59 62 54 49 44 40 40 37 34 35 42 54 49 44 44 49 41 42 39 43 42 45 46 48 46 40 31 29 29 29 26 20 18 19 20 18 17 15 16
67 59 61 58 70 65 61 54 50 46 44 37 36 32 31 41 54 62 53 51 56 51 44 46 48 37 43 40 43 41 43 36 32 30 33 31 23 20 24 21 21 20 17 17
60 54 57 53 66 73 67 54 48 48 47 44 46 42 41 42 42 52 65 63 56 50 54 57 51 41 46 43 42 46 46 41 39 33 34 32 30 24 28 26 23 23 23 22
62 50 45 47 59 65 66 58 41 45 52 51 55 52 50 48 46 45 47 69 71 64 57 60 56 60 56 45 44 46 42 42 37 36 36 37 36 29 27 29 32 28 28 28
65 59 45 36 45 56 55 55 51 49 54 53 49 50 53 51 51 52 47 41 49 76 74 69 61 53 51 55 55 41 39 37 39 37 38 39 35 29 26 22 24 30 30 37
63 54 51 44 42 47 47 48 57 62 58 59 59 54 50 51 49 47 47 44 44 48 62 73 80 68 57 59 69 62 56 47 41 40 40 39 34 30 26 22 30 30 34 40
66 49 43 50 60 58 56 58 57 60 56 58 50 45 41 39 39 46 46 50 50 53 52 55 60 69 71 69 57 60 63 57 46 45 43 41 33 34 33 31 32 34 41 45
70 53 39 51 53 47 43 59 55 52 50 50 51 40 40 43 44 47 50 50 43 44 55 58 56 54 52 50 59 64 67 63 53 45 44 41 37 38 37 37 37 43 41 38
45 49 55 47 52 23 55 44 50 61 47 61 54 49 39 38 42 46 44 46 41 49 44 47 58 54 50 47 49 46 49 56 49 47 47 46 43 40 41 45 42 44 45 39

GFSCGP_500_spd_024.txt.gz
Wind_Speed
23 26 24 20 17 15 22 20 17 21 20 16 15 21 10 15 10 7 9 5 3 1 2 7 10 14 14 12 10 8 9 9 7 7 6 7 9 8 6 6 4 1 2 2
19 15 21 24 22 20 23 25 24 24 21 19 20 23 20 12 12 7 2 6 6 5 2 5 11 11 12 11 10 9 7 6 6 5 4 6 7 8 8 6 3 1 4 7
16 10 20 26 26 24 25 26 22 27 26 22 19 27 29 20 17 8 4 1 6 5 4 3 3 7 8 10 11 10 10 7 6 5 5 6 7 7 7 6 6 5 7 9
17 19 22 24 29 29 27 21 25 31 26 25 31 38 29 23 18 8 6 2 4 6 5 3 2 1 4 6 7 9 10 10 8 7 8 8 9 9 9 9 8 7 10 13
13 21 22 23 21 28 21 29 30 31 32 29 31 32 23 30 20 10 14 6 5 5 6 3 2 3 1 6 9 10 8 8 8 9 10 11 12 11 11 12 11 11 12 11
22 25 25 21 24 27 24 34 36 36 35 46 38 36 24 32 21 10 13 12 13 8 8 4 3 9 6 9 13 15 14 14 12 11 12 14 15 13 14 15 13 12 12 7
26 27 26 26 26 29 29 37 41 46 51 49 39 41 27 25 26 16 16 13 15 12 8 11 14 9 10 11 15 18 18 17 18 16 15 17 17 17 17 15 14 13 10 6
35 33 27 25 26 27 32 36 45 51 52 47 43 49 30 19 17 10 9 15 12 16 12 23 23 12 12 9 11 15 18 19 19 19 18 21 22 20 19 15 15 13 9 8
38 38 28 33 28 31 31 41 36 45 47 51 45 49 39 25 24 16 16 25 21 16 8 12 13 12 6 7 12 13 14 15 18 19 20 20 24 23 22 17 14 11 9 7
40 42 35 35 36 39 38 32 38 42 46 52 47 50 43 35 27 24 18 21 23 22 18 16 20 21 8 8 11 15 15 13 12 13 16 18 22 22 20 15 14 11 9 6
43 47 38 41 49 41 40 41 42 41 41 41 38 38 39 35 31 26 28 25 24 23 23 18 22 18 17 10 12 16 18 17 14 12 11 12 18 19 16 15 17 13 10 4
55 48 50 50 45 45 47 43 43 45 42 40 36 34 22 36 39 32 27 26 22 25 24 25 24 21 19 10 13 17 17 18 15 11 9 9 11 13 19 19 19 13 7 4
62 61 57 55 55 55 57 49 47 44 43 45 45 36 23 29 43 44 36 30 25 27 28 32 27 24 21 15 18 20 18 16 15 13 8 8 9 13 19 21 18 15 9 7
68 68 67 63 57 55 56 54 54 51 52 47 47 40 26 28 45 46 41 40 35 36 35 44 29 33 24 20 22 22 19 19 18 15 10 7 10 14 16 18 19 15 13 11
73 73 75 71 65 55 56 56 55 56 53 55 42 44 33 27 46 47 39 34 31 28 48 44 45 29 30 25 28 23 26 23 21 20 16 13 15 16 16 17 18 17 15 14
73 77 77 78 73 66 57 60 59 56 53 53 50 45 36 34 41 52 44 42 29 36 36 51 33 27 31 28 30 23 22 24 23 21 21 20 20 18 15 18 19 19 19 17
76 79 79 77 73 66 52 67 65 61 57 54 55 43 36 38 35 53 59 48 37 31 37 32 34 32 32 34 35 31 28 26 28 29 24 26 25 22 21 20 22 20 23 25
84 77 78 76 72 65 71 61 65 61 56 54 54 36 37 39 37 40 52 52 45 36 44 43 38 36 38 41 38 39 41 38 31 28 28 29 30 28 25 24 23 23 24 22
82 75 68 73 67 65 67 65 57 67 60 48 53 53 44 37 34 36 50 58 52 47 43 40 41 42 38 45 39 42 44 38 32 30 31 28 30 32 30 25 25 26 28 28
87 77 68 54 67 62 68 62 59 53 64 56 53 53 50 40 36 41 41 55 62 58 55 46 49 42 41 41 48 46 44 43 42 34 29 31 31 35 34 31 28 32 33 34
84 79 66 56 58 68 67 66 57 52 55 59 57 53 49 44 39 38 37 46 56 62 62 59 56 54 49 48 57 43 41 43 42 37 36 38 36 37 36 37 34 36 39 39
66 77 71 64 49 55 68 65 55 56 52 56 55 56 50 45 42 41 37 37 52 60 63 62 57 51 49 51 55 53 53 49 40 43 43 42 38 41 44 43 40 38 42 44
48 62 77 56 45 55 62 42 41 53 55 54 59 58 53 51 47 47 46 42 39 47 58 66 67 64 58 55 58 59 63 55 51 52 46 46 43 41 44 45 45 41 41 42
50 63 68 52 38 56 69 70 40 57 60 56 59 62 60 56 55 54 52 44 43 45 47 51 53 54 60 66 71 68 63 60 53 52 49 43 38 41 40 43 48 45 44 42
54 49 63 53 38 59 65 58 67 60 63 65 65 59 59 54 55 54 52 52 49 47 50 47 49 51 56 62 63 65 64 66 68 61 54 55 57 52 51 49 52 49 50 51
46 34 66 53 47 54 62 65 59 56 59 67 69 65 60 54 52 50 56 49 47 45 42 43 48 52 54 52 64 61 59 57 64 65 64 56 56 51 54 56 63 62 59 39

GFSCGP_500_spd_027.txt.gz
Wind_Speed
21 26 24 21 20 20 16 21 22 23 23 15 13 9 8 5 11 3 2 6 6 7 7 9 11 15 15 13 12 11 11 10 8 8 8 9 10 8 7 7 6 4 3 0
20 12 18 25 24 25 25 24 24 26 26 22 22 15 8 6 7 9 7 5 4 8 9 8 10 11 11 13 12 11 10 9 9 9 7 8 9 9 9 6 4 3 1 3
18 13 18 24 26 25 27 26 26 26 30 31 28 22 11 9 12 9 9 8 4 5 10 12 10 10 12 10 10 11 11 11 9 9 8 7 8 8 7 5 5 5 6 7
21 20 21 22 26 28 31 24 31 32 35 37 32 28 22 11 10 9 15 13 7 4 7 12 13 10 9 11 11 11 10 9 8 8 10 9 8 8 8 8 7 6 6 9
15 20 22 23 15 24 20 31 31 35 41 40 36 36 30 21 16 17 15 12 7 6 4 8 12 13 10 9 9 10 10 9 8 9 10 9 10 10 9 9 8 8 9 11
25 27 27 23 22 23 21 33 35 39 43 49 34 37 26 21 13 17 18 10 8 8 6 3 6 9 8 7 9 9 10 12 11 10 10 10 11 11 11 11 10 10 11 12
29 29 28 26 26 28 30 39 44 49 52 42 36 41 19 25 18 15 16 12 12 12 6 4 7 13 12 12 12 13 13 14 16 16 14 14 13 11 14 13 12 12 12 14
38 38 33 29 27 27 29 35 47 50 50 41 38 38 19 24 22 25 22 16 12 17 11 11 11 16 16 14 10 9 9 9 13 16 18 18 16 14 16 15 15 13 15 16
40 39 33 35 32 34 31 40 32 45 47 49 44 33 27 30 30 26 26 26 17 11 5 4 2 5 9 10 5 6 6 6 9 14 19 19 20 18 18 18 18 17 17 17
46 43 37 35 40 43 41 30 38 44 49 48 42 34 28 28 30 26 30 25 21 16 12 7 3 5 10 8 10 7 7 7 9 9 13 18 22 22 23 21 19 19 17 16
53 53 44 45 51 44 42 43 42 44 47 46 38 30 27 27 29 32 29 25 24 21 14 9 10 9 10 12 15 11 9 9 10 12 13 13 15 20 22 19 20 19 18 18
60 59 54 53 48 44 48 47 47 48 40 37 36 39 22 24 31 33 35 33 30 25 20 18 16 16 18 15 15 16 11 12 13 15 14 14 14 15 18 21 21 20 21 19
66 64 60 58 56 57 60 55 50 45 43 46 43 35 20 19 23 35 41 38 36 30 28 27 26 26 22 21 16 18 13 15 18 16 15 13 14 13 14 22 23 23 24 18
73 70 67 63 61 58 60 60 56 51 55 47 45 36 24 23 27 29 39 42 39 35 32 32 31 32 25 26 21 21 17 18 20 17 13 10 11 12 14 23 24 25 25 20
79 77 75 70 66 66 63 62 58 59 56 54 40 42 35 25 28 31 32 47 47 43 42 40 37 33 28 34 29 25 23 20 22 20 14 10 12 15 15 18 21 24 24 22
84 82 80 78 73 69 71 67 60 58 57 55 48 48 38 29 33 37 38 47 45 48 48 43 41 34 32 33 36 28 28 22 21 26 20 17 16 16 17 20 22 23 23 24
85 86 84 83 79 76 74 69 67 64 61 57 56 46 42 37 38 40 41 39 43 49 44 46 45 32 31 22 27 31 30 28 27 27 25 21 22 21 19 21 25 25 23 26
87 88 88 88 82 83 71 68 68 69 67 62 59 53 49 43 40 38 41 42 46 53 47 47 44 42 35 31 37 32 31 31 29 29 30 27 28 26 27 27 25 28 27 26
87 89 89 88 85 83 79 73 67 66 66 64 61 58 55 49 43 43 43 43 47 52 52 51 49 48 45 45 33 34 36 37 36 38 39 37 33 29 31 32 28 26 31 30
96 88 89 87 88 85 82 77 75 69 68 61 64 62 55 56 55 48 40 40 43 48 58 59 55 53 52 51 44 34 36 39 43 40 40 42 37 30 30 33 34 35 31 31
81 94 93 91 90 88 80 76 75 69 73 63 60 60 50 56 55 43 38 37 42 45 51 53 49 57 57 54 47 42 42 40 37 37 46 42 40 34 33 35 38 43 40 38
73 59 89 90 85 83 71 59 56 55 63 64 60 58 55 53 50 47 40 36 37 38 48 54 50 49 47 49 50 49 46 45 41 45 49 49 46 40 40 41 41 44 49 46
56 62 68 78 89 81 64 49 53 42 45 55 59 57 52 57 53 50 46 39 36 35 32 45 59 59 51 53 56 56 58 45 46 47 48 51 49 45 46 47 48 47 50 54
35 47 55 53 50 86 54 51 58 48 43 38 54 51 45 49 57 55 51 47 39 39 39 38 41 53 62 59 60 59 53 50 49 50 54 56 60 53 50 51 54 51 52 53
38 41 48 47 45 57 60 55 56 63 60 56 48 47 49 51 53 56 55 52 48 44 43 41 43 44 45 48 52 53 56 57 57 60 59 60 59 60 59 55 54 53 49 56
35 38 44 41 52 44 57 56 64 56 63 63 64 58 55 55 58 58 57 57 52 51 50 50 52 54 55 55 57 57 57 62 64 67 66 72 64 61 57 57 56 56 60 58

GFSCGP_500_spd_030.txt.gz
Wind_Speed
16 20 17 19 19 20 22 24 27 20 18 10 11 17 19 17 14 11 3 4 4 4 8 11 15 17 18 16 12 12 12 11 12 12 11 9 9 8 8 7 6 4 2 1
17 4 11 22 24 22 25 24 26 24 23 16 15 20 14 14 12 10 9 4 6 6 9 10 13 13 14 17 15 12 10 11 10 10 9 9 8 7 7 5 3 1 1 4
18 12 16 21 24 24 24 24 26 24 27 23 19 20 16 14 9 11 13 12 10 11 9 11 12 17 16 13 9 9 9 9 8 8 7 8 9 8 7 5 5 5 4 5
21 20 20 19 22 23 24 21 29 30 31 33 29 25 22 18 15 16 17 17 14 13 13 12 13 11 12 12 11 9 8 8 8 9 9 8 8 8 8 8 7 6 6 7
20 19 20 19 11 22 19 26 28 32 36 35 36 31 26 26 20 21 20 20 18 14 12 13 15 14 14 11 11 13 13 12 11 11 11 10 10 10 9 9 9 8 8 9
30 27 28 23 23 22 23 31 34 37 41 45 32 32 27 25 17 21 25 20 19 18 16 11 11 10 11 12 11 10 10 11 11 12 13 14 13 10 11 10 11 9 9 12
30 30 29 27 27 26 29 37 42 47 47 36 33 37 16 18 20 23 20 18 14 14 15 14 10 6 3 7 8 8 9 12 14 15 16 16 17 14 13 11 11 12 11 12
36 37 32 29 25 25 28 36 43 42 38 33 39 24 11 19 22 28 30 25 25 22 18 16 11 8 9 7 6 5 8 13 15 18 19 21 19 16 16 13 13 13 13 13
44 43 37 37 33 32 33 35 31 41 41 41 37 23 26 21 25 30 29 22 26 24 19 11 12 10 5 4 5 3 4 8 10 13 18 19 19 19 18 18 16 16 15 16
49 46 41 36 41 42 40 31 38 43 44 39 34 26 19 18 20 27 27 25 26 23 24 22 14 13 9 8 12 8 5 6 8 7 9 16 19 21 22 22 19 19 19 19
54 53 48 46 49 42 40 42 42 43 43 39 36 24 20 15 18 28 30 24 26 31 29 24 19 14 13 15 14 11 11 11 8 8 8 9 13 19 23 24 24 25 24 21
59 60 55 54 49 45 45 45 46 47 38 35 34 23 18 11 16 25 30 30 30 27 25 27 25 22 20 19 19 13 14 13 11 12 10 10 12 15 17 19 23 27 24 23
65 64 59 57 55 56 57 52 50 47 45 46 42 25 23 13 14 24 34 37 34 34 29 29 29 28 30 23 22 21 19 15 13 14 12 12 12 15 17 17 20 26 26 25
69 69 66 64 58 60 59 57 56 53 54 46 46 31 23 24 19 21 28 39 42 39 34 34 32 32 31 30 26 23 21 21 18 17 14 12 10 12 13 17 18 23 27 27
75 73 71 69 65 63 61 61 60 59 55 53 42 39 30 25 25 26 28 30 38 40 41 39 38 35 36 34 33 29 27 26 23 19 19 13 10 10 11 13 13 15 22 26
80 78 76 73 71 67 65 62 62 61 59 58 48 47 39 31 28 31 32 34 32 31 37 40 38 37 37 34 33 28 27 31 27 22 18 19 15 13 11 13 15 16 17 23
86 84 81 79 76 74 72 64 64 65 63 58 53 46 41 35 33 35 38 38 36 33 31 34 41 42 41 36 38 33 30 32 39 27 24 21 20 21 17 17 19 18 20 23
90 90 88 85 80 80 76 68 67 68 64 61 57 49 47 44 38 38 39 41 43 39 36 36 37 41 43 39 39 37 34 26 15 29 31 27 24 25 23 24 23 24 24 24
90 92 92 92 88 84 81 79 72 69 67 64 64 57 51 49 46 42 42 43 43 45 41 40 37 41 42 38 37 36 36 24 19 25 31 33 31 30 27 25 26 28 29 27
93 90 95 95 94 91 87 81 77 74 71 67 66 61 55 55 54 47 42 42 44 41 45 45 40 37 44 44 43 43 38 32 30 26 36 37 37 35 35 33 34 33 32 32
84 96 95 95 98 97 92 87 83 80 72 67 65 62 59 57 54 50 45 41 40 39 43 45 42 38 43 49 49 44 42 44 29 33 39 38 41 42 40 41 34 34 34 37
74 85 98 99 99 104 94 90 87 84 77 71 69 62 59 58 51 45 48 43 38 40 40 41 41 44 45 45 45 44 43 35 34 36 40 41 45 40 44 49 39 42 37 40
54 76 86 96 109 97 93 88 84 84 82 77 71 65 58 55 52 42 42 43 36 35 39 39 41 43 47 47 48 46 43 40 43 43 39 44 42 41 45 43 48 54 55 39
33 46 66 80 97 101 99 85 80 79 72 74 66 68 63 57 51 51 44 43 37 38 36 38 41 43 44 54 50 51 52 51 50 53 48 51 46 47 47 49 60 60 53 48
24 39 46 58 75 89 94 91 71 65 57 45 37 44 57 57 54 51 45 47 45 43 43 37 39 40 40 38 42 52 57 57 54 54 53 56 58 57 54 56 66 47 59 57
30 36 43 41 46 63 70 67 79 46 41 42 40 40 40 43 47 45 48 48 52 51 48 42 41 45 46 46 46 44 46 47 47 47 49 55 62 60 59 65 66 62 66 67

GFSCGP_500_spd_033.txt.gz
Wind_Speed
15 17 13 22 23 24 20 26 28 25 22 17 21 22 21 19 17 16 11 8 7 8 13 13 18 19 21 19 15 13 13 12 12 13 13 12 10 11 11 9 7 5 1 1
17 5 11 20 26 26 28 23 28 30 26 23 25 25 24 19 15 18 19 14 8 10 13 17 19 19 20 21 18 14 13 12 12 11 10 10 11 10 11 10 7 4 1 3
16 16 20 22 27 28 27 27 26 30 33 28 29 31 29 23 22 14 14 20 19 15 14 17 20 21 21 19 16 15 14 13 12 11 10 10 10 12 11 9 6 4 2 3
23 21 23 23 21 26 29 26 30 34 35 32 29 33 36 29 23 16 16 19 21 18 17 17 19 17 17 18 19 17 14 12 11 10 12 10 8 10 10 9 6 4 4 4
19 20 20 21 14 22 23 29 32 33 37 37 31 33 36 32 26 19 18 22 20 21 19 18 20 21 21 18 16 17 17 16 15 13 14 12 11 11 11 11 10 8 6 7
33 31 31 22 26 24 27 35 35 37 38 43 31 31 39 33 23 22 23 24 23 21 20 18 18 18 17 18 18 16 14 15 14 15 16 15 16 14 13 12 12 11 11 11
38 36 30 31 30 30 32 38 42 42 43 32 31 38 26 33 26 25 23 25 25 23 22 19 15 13 12 11 11 11 11 11 13 14 16 17 17 17 16 15 15 15 15 14
40 42 35 31 27 27 29 35 37 36 33 37 32 19 17 28 30 29 26 26 24 26 24 23 22 20 16 12 11 10 12 14 16 18 19 20 19 18 18 19 18 17 18 15
46 45 40 36 31 32 31 35 27 39 36 35 25 18 14 20 26 29 30 29 28 26 27 23 23 21 17 16 15 12 13 13 13 16 21 23 23 21 20 21 22 20 20 18
49 50 46 41 40 41 37 32 37 39 39 34 26 18 12 16 20 27 36 31 28 26 23 22 20 18 17 19 16 17 13 11 13 13 14 17 20 22 23 24 23 23 24 21
52 53 50 49 49 45 42 42 40 37 38 34 27 17 11 12 20 25 31 32 31 26 23 23 22 23 21 20 19 16 15 12 9 13 13 13 13 17 22 24 26 27 28 24
58 56 53 52 50 46 45 44 44 44 37 32 31 27 17 13 19 29 35 37 31 30 27 31 28 26 25 25 24 17 16 12 11 14 13 12 13 11 12 16 23 28 31 30
61 62 57 54 55 53 52 51 48 45 43 44 38 28 18 13 21 26 36 42 40 28 27 33 36 31 27 24 21 21 21 14 15 17 17 13 11 11 12 12 16 18 25 29
67 65 62 60 58 57 56 54 50 49 52 42 38 30 20 23 21 22 31 37 40 38 38 41 40 36 32 29 27 26 25 22 21 21 19 14 11 12 14 14 13 15 21 26
72 70 68 65 65 64 62 59 58 56 50 49 37 34 30 27 26 24 26 36 38 41 41 42 37 37 36 35 32 29 30 28 26 20 22 16 13 15 14 10 11 13 13 16
76 75 74 71 70 68 66 64 62 58 54 53 44 39 33 29 31 29 31 37 41 43 44 45 46 42 41 40 37 32 31 32 26 26 23 21 19 19 17 11 11 10 11 12
80 79 77 75 73 72 71 64 63 60 57 55 50 43 38 33 32 31 32 34 33 36 40 45 46 46 44 42 41 37 34 30 30 26 27 31 26 22 21 19 18 14 14 13
82 82 81 79 77 77 71 69 69 66 62 59 53 47 43 38 36 35 37 38 38 36 34 34 33 36 40 38 37 35 33 32 31 30 29 31 36 25 24 26 24 22 20 21
85 85 84 83 81 79 78 73 71 69 65 63 59 54 49 45 42 37 42 42 43 42 38 36 35 34 33 35 37 33 36 37 34 29 31 26 29 28 32 29 26 25 26 26
88 88 89 88 86 86 78 75 74 72 68 64 62 56 52 49 46 40 39 43 43 43 44 40 38 37 33 31 33 34 36 40 34 29 24 23 32 38 35 33 35 31 31 30
85 92 92 91 91 90 85 80 77 75 69 67 65 61 58 54 50 44 40 42 44 45 45 44 40 36 33 33 34 33 35 35 34 38 35 31 27 35 41 44 43 42 44 48
73 86 95 97 97 95 88 83 82 77 71 67 65 60 61 59 52 48 48 44 44 45 44 45 43 39 35 35 35 37 37 41 42 42 43 43 34 33 39 39 46 55 51 50
54 71 82 96 101 94 94 91 83 82 78 74 70 62 59 57 53 48 46 50 45 40 45 46 44 39 36 34 36 36 36 39 41 43 43 40 38 39 41 44 53 60 50 41
30 43 67 83 96 97 97 93 92 89 83 77 75 71 66 58 52 51 49 46 44 47 41 39 39 39 39 37 34 37 39 41 42 43 43 44 42 41 43 49 53 52 62 40
16 28 42 62 79 85 95 96 95 91 86 83 76 72 65 62 59 54 48 50 44 44 45 42 39 36 35 38 40 36 40 44 44 46 47 48 46 48 50 54 52 52 49 48
20 24 24 31 50 74 77 82 94 92 88 81 77 77 67 55 53 60 58 53 50 43 41 43 43 42 39 39 39 40 39 39 43 50 52 52 54 55 57 59 61 61 61 58

GFSCGP_500_spd_036.txt.gz
Wind_Speed
16 19 18 23 24 24 26 26 28 29 27 23 22 23 22 24 19 17 15 14 14 16 16 16 20 22 22 21 17 16 15 14 14 15 16 15 13 13 12 11 10 9 7 4
20 10 17 24 30 26 26 23 27 32 32 26 25 25 25 25 18 21 18 17 19 18 17 18 19 21 23 21 19 17 17 16 15 15 13 11 11 11 12 12 10 7 5 3
19 21 23 26 30 32 27 28 28 33 35 31 28 25 30 27 25 21 21 20 19 21 20 19 22 23 24 22 20 19 18 18 14 13 12 11 11 12 15 12 10 7 4 1
28 28 29 28 30 32 32 29 34 37 40 35 32 30 25 31 29 26 20 18 19 20 22 20 21 22 23 22 22 22 20 17 15 13 13 14 14 14 13 10 10 9 6 2
26 27 24 25 18 27 26 35 36 37 39 39 39 37 34 37 37 27 21 21 20 21 23 22 23 23 24 23 21 20 19 19 18 17 16 14 12 13 13 15 14 11 9 6
34 33 35 27 31 26 31 38 37 38 39 46 35 37 41 39 35 29 28 24 22 24 22 24 26 25 24 23 21 19 18 18 17 18 18 16 16 15 15 16 15 13 11 10
40 40 36 36 36 34 34 40 42 45 47 44 34 37 26 46 36 33 30 25 25 26 25 25 25 24 22 19 19 18 18 17 16 17 17 18 18 17 17 17 16 15 14 14
43 44 40 38 35 32 34 37 42 46 41 39 37 35 25 32 40 37 35 28 29 28 28 26 24 24 23 22 19 17 17 18 18 19 20 21 20 18 19 18 18 17 16 15
48 45 43 40 37 36 33 39 32 41 42 35 29 27 27 25 39 41 35 31 28 30 29 25 27 27 25 23 21 20 19 20 20 21 23 23 23 21 20 20 21 19 18 18
56 52 51 45 42 42 40 31 39 42 43 38 29 25 15 17 35 41 36 31 25 29 29 28 28 25 22 20 21 23 23 19 20 20 19 21 24 26 25 24 22 21 21 21
59 55 55 53 49 48 48 46 42 38 35 32 27 20 15 19 28 35 33 33 26 28 25 21 21 20 21 21 22 22 19 14 12 9 12 15 17 20 24 24 24 24 24 24
57 58 59 54 52 52 47 44 42 41 33 31 25 18 20 20 26 36 38 36 34 31 29 30 29 28 25 24 25 22 20 17 13 12 11 12 15 15 16 20 25 26 25 27
63 59 58 57 57 57 55 49 49 46 38 34 30 27 23 19 23 31 41 41 39 35 29 27 30 30 28 26 26 23 23 20 20 18 15 14 12 14 14 15 17 17 17 21
64 64 62 58 47 53 57 56 54 50 45 40 37 33 24 18 22 33 39 44 44 43 41 37 36 35 34 33 28 25 23 22 22 20 18 15 12 15 17 15 11 12 13 14
69 66 66 63 64 61 59 58 55 56 47 46 39 35 33 25 24 27 38 43 45 46 46 40 39 40 40 37 33 30 26 26 26 24 23 17 16 18 19 12 11 11 10 11
73 72 71 67 64 64 64 61 60 58 50 48 42 38 36 33 28 30 31 37 42 47 48 46 41 41 44 42 39 36 32 29 30 26 22 21 19 20 20 18 14 13 10 9
77 76 74 69 66 66 68 64 59 60 55 52 46 43 36 34 28 28 27 32 37 48 46 44 44 43 43 44 44 40 35 36 32 29 26 23 17 22 24 23 20 19 14 14
80 78 75 74 75 73 67 65 65 62 56 53 50 48 42 42 37 34 35 34 36 40 46 44 42 44 45 46 46 41 40 39 37 32 27 25 21 19 25 29 25 24 22 20
82 80 78 77 78 70 74 72 70 68 65 61 57 55 49 46 41 37 35 33 36 39 41 40 43 41 37 36 38 42 44 39 44 37 31 24 25 26 26 25 24 28 27 25
78 83 82 80 79 79 72 75 76 74 69 64 62 57 53 48 45 40 37 35 40 42 43 41 39 38 36 33 30 32 38 36 35 33 33 31 31 33 35 33 34 37 35 33
83 81 85 83 84 82 83 82 80 74 67 68 64 61 58 54 51 46 40 39 37 39 42 44 42 38 36 34 33 30 31 29 31 35 36 38 35 33 34 36 39 44 45 43
84 88 85 86 87 88 84 84 83 74 76 73 69 66 63 57 56 52 45 44 41 39 40 44 44 42 39 37 36 35 33 32 32 34 38 39 38 38 37 36 36 38 41 43
62 81 92 92 93 87 89 88 84 81 81 73 70 67 66 62 59 55 50 46 43 42 39 39 42 41 41 38 37 35 35 35 34 35 36 38 38 39 40 38 39 38 41 46
44 58 80 91 94 93 92 88 85 84 78 78 73 67 63 60 57 56 51 48 46 44 39 41 38 38 39 38 35 34 34 35 35 36 38 40 41 41 40 39 39 38 41 46
19 34 49 67 84 91 94 92 90 85 85 81 75 71 68 63 60 54 52 49 48 44 43 38 35 35 35 34 33 37 39 39 39 40 40 41 41 42 43 45 45 48 45 45
18 21 35 50 62 80 90 95 92 90 87 82 79 75 68 67 65 60 54 50 46 44 44 43 41 37 33 33 32 32 32 34 38 40 40 41 42 45 46 46 47 48 50 53

GFSCGP_500_spd_042.txt.gz
Wind_Speed
28 32 30 32 32 30 27 28 27 20 24 28 22 17 22 15 18 23 22 15 13 13 12 14 15 18 21 22 19 20 19 18 17 16 16 15 13 10 8 7 5 4 3 2
34 26 22 29 36 35 32 27 23 21 24 22 24 26 16 15 15 22 29 26 14 11 12 13 15 17 20 22 22 21 21 20 20 19 18 15 13 11 9 8 7 5 3 3
30 23 28 27 35 37 33 32 28 23 25 28 19 26 25 26 15 21 27 22 16 10 11 13 13 16 20 20 20 22 22 23 22 20 17 16 14 13 12 10 7 6 5 3
34 32 32 29 30 36 39 29 32 30 30 30 25 26 25 24 38 29 30 25 22 12 13 14 14 16 19 20 21 23 24 25 24 20 19 19 18 15 11 8 8 9 7 4
37 35 36 34 28 33 36 35 36 38 31 29 33 32 29 25 24 30 32 22 24 17 14 14 16 17 21 23 22 23 24 23 22 22 22 19 16 14 12 13 13 11 8 5
39 38 40 32 31 32 25 34 32 36 33 45 40 31 29 32 27 25 32 23 16 25 12 16 18 17 19 21 20 20 21 21 22 22 20 17 16 14 14 15 13 10 8 6
45 45 40 37 35 35 35 37 38 40 48 49 40 42 39 26 25 25 28 26 24 24 19 18 19 16 20 21 20 18 19 19 19 19 17 16 16 14 14 14 12 11 10 9
49 49 45 43 43 37 40 40 45 47 45 38 38 40 35 34 30 25 25 26 23 28 25 18 19 19 21 22 22 22 19 18 19 17 16 15 14 13 13 13 13 11 10 10
53 50 40 44 43 44 43 45 35 32 28 27 29 29 23 27 39 34 31 30 30 31 29 15 19 19 22 22 21 21 20 19 17 16 16 14 13 13 14 16 16 15 13 13
57 33 46 39 43 43 45 34 39 40 33 30 23 25 22 23 33 39 34 33 33 34 31 12 15 20 23 23 24 22 20 17 18 17 16 15 15 14 15 16 16 17 18 18
61 49 35 35 45 49 47 44 41 37 36 28 20 19 17 22 20 33 33 42 38 34 34 23 13 20 24 23 24 22 21 19 19 18 15 13 14 14 11 11 13 16 19 21
57 63 50 39 39 42 49 48 43 43 40 33 24 14 23 27 27 24 28 34 33 39 38 28 15 21 26 26 24 22 22 21 18 16 15 13 8 5 5 5 6 8 10 12
60 71 60 45 39 41 49 51 50 38 34 36 33 19 26 25 23 23 26 37 34 36 33 33 25 21 23 24 24 24 23 19 16 16 16 13 8 6 6 5 5 7 9 11
70 71 70 61 51 38 49 46 46 47 41 36 32 24 26 23 30 30 25 34 39 38 37 36 34 22 24 24 25 26 24 22 22 21 19 14 9 8 6 6 6 7 9 10
72 68 71 60 41 29 41 43 46 49 40 39 26 33 32 33 30 38 29 32 32 34 38 36 32 30 28 29 26 24 24 23 23 20 19 15 13 8 5 7 7 7 8 8
74 67 69 68 53 44 45 40 41 43 45 32 30 22 35 35 27 26 35 36 37 44 47 46 40 35 26 24 24 27 26 26 25 22 18 17 14 11 9 9 9 6 9 11
70 68 73 74 60 51 41 47 39 39 38 39 39 30 27 33 33 29 31 40 38 38 40 41 39 34 34 29 30 29 25 26 25 19 17 15 14 12 10 12 10 10 11 11
68 72 73 66 65 54 50 52 51 38 39 38 36 39 22 19 29 36 34 41 45 44 42 42 36 34 31 31 31 29 29 28 27 25 21 20 17 15 14 14 18 16 15 15
68 70 71 68 66 63 56 56 58 51 42 37 37 50 39 39 37 44 40 38 37 41 42 39 35 32 33 34 37 38 34 29 27 26 24 26 22 21 18 19 19 19 19 20
61 66 68 67 60 58 39 34 43 54 50 50 49 53 58 57 52 52 39 40 42 38 36 32 28 31 31 31 36 38 37 30 28 28 28 33 33 29 29 25 26 27 28 25
54 61 65 61 67 38 54 40 44 48 52 63 63 61 61 66 67 59 44 36 35 36 35 31 31 30 35 33 31 29 21 20 20 29 34 37 35 35 35 38 34 32 32 31
39 48 56 62 62 46 30 45 48 50 52 64 72 71 70 65 60 55 52 43 39 36 34 35 36 34 33 33 30 29 25 22 27 30 32 35 39 41 41 40 40 41 37 35
23 37 47 52 68 59 38 46 56 61 60 59 62 71 65 63 64 59 53 42 38 36 37 37 36 35 37 36 33 30 27 28 29 29 28 29 31 31 33 34 37 37 35 35
37 36 44 55 60 72 48 48 54 59 65 70 75 71 69 63 59 54 44 43 46 41 41 41 40 39 38 38 34 32 32 32 33 32 32 32 33 32 33 34 34 35 35 36
57 58 65 74 71 71 78 76 72 68 70 71 70 73 71 65 63 56 55 52 47 46 43 44 43 41 42 38 35 36 34 36 37 37 36 34 35 35 34 37 37 38 38 39
50 57 71 78 80 82 84 85 85 84 82 78 73 69 60 58 63 58 56 55 50 49 49 47 45 45 43 41 41 39 37 35 37 38 39 38 37 38 38 38 39 39 41 42

GFSCGP_500_spd_045.txt.gz
Wind_Speed
31 36 31 27 32 31 31 32 27 25 27 18 17 13 16 19 26 15 24 2 8 11 11 4 9 15 19 20 19 19 18 18 16 17 16 15 13 10 8 6 5 4 6 6
40 32 24 26 31 35 35 33 26 21 23 21 25 17 19 27 23 25 31 9 5 9 10 7 6 12 19 20 20 20 20 21 19 18 18 15 13 9 8 8 7 5 5 6
37 22 31 31 33 37 38 33 23 26 20 28 29 18 27 31 29 33 30 17 3 7 9 5 7 12 18 19 18 19 22 22 22 20 18 16 14 12 11 8 7 6 6 6
36 34 37 35 33 32 34 31 26 29 27 35 36 33 31 27 32 30 33 17 7 7 7 2 7 11 16 20 20 20 21 22 21 20 19 18 17 14 10 9 8 6 6 5
37 37 40 39 32 30 29 34 32 34 36 24 30 24 18 22 28 28 26 22 18 13 7 8 9 11 16 18 18 19 22 21 19 19 19 17 14 12 12 12 11 7 6 4
45 39 42 37 32 35 29 37 40 43 43 45 38 30 29 24 29 27 23 25 17 10 14 10 11 12 15 18 17 17 18 20 20 19 18 16 14 13 12 11 9 8 8 6
52 47 43 42 39 38 34 38 41 51 56 52 41 40 29 33 28 25 25 31 19 12 10 11 10 12 16 18 17 16 16 17 18 17 16 15 14 13 12 11 9 8 7 6
55 52 51 47 45 42 37 36 41 49 54 44 49 51 45 37 33 26 29 31 23 20 13 12 10 13 16 17 18 16 17 17 17 17 16 13 11 11 10 10 10 10 9 6
59 56 45 46 44 43 39 45 40 41 43 52 52 45 43 34 34 33 33 32 33 21 22 9 8 13 17 18 18 19 18 20 20 18 16 13 11 11 11 11 11 10 11 11
57 54 47 41 41 44 45 34 41 41 41 43 39 35 30 33 39 41 34 39 20 28 27 3 9 12 17 19 20 19 19 19 19 18 16 15 14 13 13 13 14 15 15 14
58 56 54 38 46 49 48 44 40 37 39 34 27 24 13 10 11 18 39 30 25 31 32 8 9 9 14 18 19 21 20 19 17 17 16 14 13 11 11 14 15 17 17 16
58 64 58 57 49 43 44 47 40 43 38 36 27 23 17 15 23 19 21 40 31 28 31 18 12 11 13 14 18 20 20 20 20 19 17 14 10 11 10 9 8 7 8 7
63 68 61 57 54 51 42 46 47 40 36 40 31 27 21 18 18 23 18 24 40 36 34 32 22 15 11 15 16 19 22 22 20 18 16 12 11 10 6 4 4 4 2 1
72 73 72 62 60 52 47 39 44 47 43 37 37 27 16 16 16 18 18 19 26 42 39 41 30 21 15 15 18 20 20 21 19 18 15 10 12 9 6 5 3 2 3 4
72 76 76 66 61 58 45 45 39 47 46 40 36 33 19 13 16 24 21 19 26 36 36 45 38 26 20 18 24 23 21 19 17 15 13 13 14 9 8 7 5 3 5 5
72 72 78 70 61 49 43 40 40 38 46 40 33 35 25 23 22 25 27 28 25 36 39 39 43 34 29 22 27 30 26 23 20 18 15 16 15 12 9 6 5 3 1 1
72 70 76 70 60 53 46 41 34 26 36 45 38 36 25 26 29 31 27 34 37 36 45 46 44 38 26 16 15 27 26 28 25 19 18 16 15 11 8 8 5 5 5 3
73 75 75 74 65 60 45 46 50 38 19 36 38 32 27 21 22 26 28 28 31 40 45 44 41 36 30 22 23 27 31 29 26 22 20 18 17 13 11 10 7 8 11 12
70 72 71 71 67 61 49 45 39 44 40 46 49 35 26 33 33 37 41 41 39 41 42 37 32 31 26 26 28 28 30 25 26 23 22 22 20 19 18 13 11 12 12 14
62 71 69 74 63 61 56 56 51 50 50 51 54 44 42 40 39 42 43 47 42 39 39 40 36 31 30 28 25 24 26 28 27 21 19 23 25 24 22 19 17 18 19 19
60 65 65 71 59 55 61 63 57 53 52 59 58 50 48 52 49 49 46 41 44 41 40 40 41 38 36 33 30 30 30 29 27 27 26 25 24 25 27 28 28 25 27 28
35 59 64 60 74 56 61 59 67 66 63 62 64 54 61 56 58 57 50 42 37 38 37 35 35 32 31 32 34 33 31 28 27 26 26 29 30 29 32 32 30 30 31 32
29 46 67 67 56 71 52 63 76 71 71 69 67 64 65 64 62 61 55 48 35 34 38 39 35 33 32 31 29 29 29 28 35 36 36 34 30 31 34 33 30 29 29 30
29 39 58 71 63 69 53 55 66 79 76 73 69 75 78 74 72 66 59 54 49 43 35 35 36 37 36 36 34 27 24 25 25 29 33 35 36 37 36 31 28 27 27 29
35 43 59 61 63 71 54 42 52 62 71 69 73 75 78 78 73 65 61 61 56 34 36 41 42 40 39 38 35 29 29 30 28 29 31 31 32 33 33 35 33 33 32 31
45 39 46 65 60 66 67 51 40 53 60 69 75 74 73 72 71 63 59 57 47 42 47 50 46 41 39 38 34 33 35 34 32 33 35 35 35 36 37 38 36 36 36 36

GFSCGP_500_spd_048.txt.gz
Wind_Speed
37 40 35 27 32 33 37 35 32 23 23 18 14 16 13 9 7 2 3 1 7 5 2 5 10 16 20 20 18 18 19 19 19 17 17 15 13 12 11 9 9 8 9 9
45 39 25 31 34 35 41 38 32 26 28 24 22 22 18 15 7 6 6 14 6 4 4 6 7 13 20 24 22 22 21 20 19 19 17 15 13 11 10 9 9 8 7 7
43 31 34 34 34 35 40 40 31 27 29 30 29 30 29 26 24 14 3 7 7 7 5 6 10 11 18 24 22 22 23 21 20 18 15 14 13 11 10 8 7 8 7 5
46 37 41 40 37 34 37 31 34 28 38 39 38 32 40 34 28 21 9 5 3 11 10 5 12 14 17 22 23 22 22 20 19 17 16 15 16 12 9 8 8 8 8 5
49 42 43 44 34 34 27 35 40 31 43 41 40 31 29 35 36 14 10 1 2 8 12 7 12 14 17 20 20 21 21 21 19 17 17 17 14 10 10 10 8 9 9 6
54 49 48 43 38 39 33 38 44 39 48 52 42 39 33 43 27 16 11 6 3 4 9 8 8 14 16 17 19 18 19 19 19 19 19 17 14 12 11 9 8 9 8 7
63 58 54 47 44 45 41 42 51 52 60 58 46 43 38 37 28 21 8 6 7 4 8 5 4 10 14 16 16 18 17 18 20 20 19 17 15 14 12 10 9 9 8 6
68 64 59 54 51 44 43 47 53 59 59 55 40 51 36 32 24 15 15 12 16 13 11 3 6 13 15 17 17 17 17 19 21 21 19 17 15 14 13 11 10 10 9 8
69 67 58 55 49 48 42 49 44 54 56 52 50 48 38 42 36 35 33 35 35 20 10 10 6 13 17 19 19 18 17 19 22 22 20 17 16 15 14 13 12 11 10 8
72 74 65 55 48 49 47 41 41 48 53 59 52 48 44 38 33 33 34 30 24 26 21 9 4 14 20 21 22 20 18 20 22 22 20 18 18 17 15 14 13 13 13 12
71 77 68 54 58 53 53 50 45 40 47 50 49 45 38 33 29 30 36 34 27 24 21 14 8 9 18 21 21 20 19 19 18 19 20 19 18 18 16 15 14 14 15 15
67 77 73 63 55 53 49 52 45 44 48 45 40 31 35 25 35 44 43 42 36 27 20 19 15 14 15 20 21 19 20 20 21 22 20 20 20 16 15 13 13 13 15 16
50 72 71 67 58 60 52 51 49 45 37 40 35 27 42 42 38 34 30 50 42 32 28 21 21 20 17 20 20 19 19 22 23 22 21 19 16 13 10 9 9 8 6 7
61 67 72 73 65 55 57 54 54 50 45 39 36 41 38 31 30 31 33 31 38 30 30 26 23 24 17 18 21 20 20 22 22 21 20 19 14 14 14 13 11 8 8 8
61 61 70 74 71 62 62 54 54 55 46 44 33 41 35 24 21 23 23 19 37 38 34 33 30 25 21 17 17 23 23 22 21 20 21 19 18 17 15 13 10 9 10 12
59 61 71 72 68 63 60 57 50 45 45 40 32 42 25 25 22 24 29 20 26 33 33 35 30 28 27 22 17 21 24 23 22 23 23 19 18 16 14 12 11 11 10 9
59 66 70 72 66 63 57 53 49 43 32 38 37 40 31 28 28 30 32 22 21 24 25 35 34 29 30 29 25 18 24 28 25 23 22 18 17 15 15 14 12 11 10 7
58 69 70 67 66 66 58 50 50 47 39 32 43 34 37 34 32 31 31 27 28 27 26 29 36 35 34 33 32 23 29 28 27 23 20 19 17 17 17 15 14 14 9 7
56 70 72 60 68 68 61 50 47 52 48 42 43 42 44 38 38 37 36 34 37 35 33 34 33 30 33 35 33 29 30 33 31 25 22 22 20 20 18 16 16 16 13 11
53 67 74 68 60 68 67 58 57 58 53 46 43 51 39 40 38 40 39 38 38 37 34 33 32 26 22 20 25 26 25 32 31 26 26 29 29 27 24 22 22 20 18 16
57 68 71 75 65 67 70 63 63 54 58 54 49 56 49 47 47 47 47 46 42 37 36 35 34 30 24 23 25 28 28 31 29 32 34 32 31 30 29 29 29 26 24 23
60 62 74 75 78 66 73 58 55 60 64 58 58 59 56 56 52 47 48 48 44 39 38 37 37 34 31 30 28 27 28 35 38 39 37 32 30 31 32 34 34 34 33 32
41 61 69 73 84 71 69 70 50 69 66 58 59 61 65 59 57 51 48 45 42 41 39 40 39 41 44 42 38 34 33 33 36 38 36 37 35 34 33 35 39 43 43 42
39 58 63 65 78 72 59 67 55 61 74 66 64 66 71 65 60 54 52 51 49 45 44 42 41 42 41 39 39 35 33 33 36 37 37 37 41 41 44 44 44 43 40 40
8 27 54 70 71 77 56 55 63 57 69 72 72 77 73 69 62 60 59 56 52 48 45 43 44 43 38 36 36 36 34 29 29 30 31 37 41 44 44 43 41 36 32 31
12 22 45 62 70 71 70 50 50 60 62 70 73 77 77 72 69 63 58 57 57 55 49 41 42 43 42 41 40 37 35 33 32 33 33 37 42 44 44 42 38 35 33 33

GFSCGP_500_spd_051.txt.gz
Wind_Speed
39 40 37 28 30 34 37 35 31 29 31 27 26 28 20 19 18 12 8 8 4 3 1 8 16 19 21 20 18 20 21 20 21 21 19 17 14 13 12 12 9 9 7 7
45 40 28 34 36 35 39 40 33 29 31 26 29 28 23 21 14 16 9 9 6 2 5 3 12 18 21 24 23 24 25 22 22 23 23 20 17 16 12 10 8 10 8 7
49 33 35 40 39 38 40 40 35 27 34 32 32 29 36 28 25 23 18 13 8 6 9 5 7 16 21 24 23 24 24 24 22 20 20 18 16 14 13 12 10 10 9 6
56 43 46 44 42 39 40 31 34 35 37 40 37 39 39 31 25 19 21 14 13 5 6 7 2 10 18 24 26 25 25 25 23 21 20 21 21 16 13 11 11 10 8 6
55 52 52 46 40 39 27 32 38 40 39 42 43 43 39 34 26 20 24 16 12 9 5 3 3 8 17 25 24 24 24 24 23 23 23 21 17 14 13 11 10 10 6 5
61 57 58 48 40 44 36 37 41 45 45 53 45 49 41 39 24 21 23 19 15 12 10 7 1 9 14 22 23 23 26 24 24 22 21 20 17 15 12 10 11 9 7 4
67 65 63 57 50 48 46 46 47 52 58 60 45 53 42 37 26 29 22 21 18 13 12 6 7 11 14 20 22 22 24 25 23 23 21 18 16 15 13 10 9 9 7 3
74 71 67 62 58 53 53 51 56 58 59 58 47 58 46 39 34 30 26 26 21 16 10 8 2 6 16 20 22 23 23 25 24 22 21 18 16 15 14 13 12 9 8 8
77 76 70 69 62 55 53 57 50 53 57 56 53 53 38 42 37 35 32 38 30 20 17 10 7 7 15 19 22 22 22 25 26 26 22 18 16 14 14 16 14 13 11 10
79 79 70 70 63 57 53 51 51 55 58 61 55 55 41 42 40 38 33 41 34 23 23 21 14 9 13 20 24 25 22 23 26 26 22 20 19 17 17 16 15 14 13 12
71 81 67 64 66 60 58 57 56 49 55 57 49 49 37 38 39 35 26 23 27 21 21 20 17 10 9 22 23 24 21 23 25 25 25 23 18 16 16 15 13 13 13 14
59 79 70 67 64 61 60 60 57 56 56 58 51 47 41 43 39 37 30 24 22 26 25 21 24 17 12 19 23 23 22 20 21 24 24 22 20 18 17 16 16 15 16 16
55 64 72 59 58 65 65 62 58 54 50 53 50 37 46 41 47 44 36 34 32 27 24 23 29 26 17 16 24 25 24 23 24 25 23 23 22 20 18 17 16 16 14 13
62 47 63 66 67 69 67 62 61 60 54 49 52 37 39 43 38 38 43 44 41 36 32 29 33 30 22 20 25 27 27 26 27 26 25 25 22 21 19 17 16 14 12 11
61 47 52 71 69 66 67 62 60 63 56 54 39 34 29 39 41 42 39 41 46 44 38 36 29 34 27 25 27 29 29 27 25 24 24 23 25 23 22 19 16 13 12 14
57 56 55 61 68 62 65 61 62 61 57 50 36 35 35 39 45 45 41 44 36 29 41 34 31 27 30 27 25 28 31 28 25 24 25 26 24 23 22 19 15 14 15 14
46 52 57 55 68 63 64 67 63 60 58 50 41 40 48 43 41 37 37 34 27 25 37 33 29 26 24 27 22 19 29 28 27 27 28 27 26 26 23 20 17 17 16 15
38 50 59 52 70 60 64 68 64 59 59 52 46 50 46 41 37 38 36 34 26 23 32 30 29 27 24 24 21 22 21 24 28 31 30 28 27 25 23 21 19 18 17 16
44 45 54 54 64 62 58 57 60 58 57 53 49 47 47 45 41 45 44 36 28 28 28 34 37 32 29 26 23 24 23 21 24 30 30 29 28 27 25 22 21 21 19 17
36 45 55 55 66 64 46 58 61 60 56 54 56 50 50 50 47 50 48 39 35 32 33 31 27 27 35 31 29 28 27 21 22 27 26 27 26 28 28 26 26 25 24 21
39 49 59 60 68 59 45 61 60 61 60 56 57 55 54 55 52 46 50 41 38 35 34 35 29 25 25 26 26 27 28 19 15 28 28 32 33 30 32 32 30 27 27 26
35 52 58 59 69 51 55 60 60 64 61 58 58 58 58 60 57 48 46 45 41 39 38 36 31 27 32 32 32 32 31 28 28 28 33 34 36 35 36 36 34 34 32 31
27 49 44 59 70 58 42 61 61 61 62 59 58 59 62 64 58 50 46 44 42 40 36 35 28 28 31 34 35 36 33 30 30 33 33 36 38 41 42 38 37 38 37 37
17 39 48 60 58 69 54 58 61 61 63 64 60 62 64 65 62 52 52 49 48 43 41 37 31 28 27 28 31 35 36 35 36 39 45 48 47 45 43 44 44 48 46 44
24 39 45 52 62 62 49 61 68 51 59 61 63 62 68 67 66 61 60 53 51 47 44 41 36 31 31 32 33 33 36 36 39 39 44 47 50 51 49 46 47 48 49 50
10 29 44 56 62 64 60 52 67 53 52 63 64 65 66 71 69 65 63 59 54 51 47 45 43 42 43 44 44 43 37 33 33 34 37 46 50 51 52 53 54 55 55 56

GFSCGP_500_spd_054.txt.gz
Wind_Speed
42 38 30 26 30 31 34 33 32 27 26 25 25 24 20 19 17 13 16 14 10 9 7 9 13 18 22 18 19 21 23 24 23 21 19 19 15 14 14 13 11 10 11 10
47 41 28 37 35 34 35 37 36 33 33 33 31 33 27 23 21 20 20 16 14 10 9 9 10 16 22 22 21 21 24 24 24 23 22 20 17 15 12 11 10 10 10 11
46 39 41 39 40 40 39 37 37 32 38 36 34 34 40 34 31 29 25 23 19 14 11 10 10 15 20 25 23 23 24 27 25 24 21 18 15 14 12 10 9 10 10 10
54 45 49 45 42 42 42 34 34 38 41 41 38 36 34 36 34 29 28 21 21 16 13 10 12 12 18 27 26 26 27 27 26 22 18 18 20 17 13 12 12 11 10 9
58 52 53 52 43 43 33 36 39 41 46 43 45 45 41 38 37 25 24 22 24 21 14 11 11 14 20 25 27 27 28 26 25 24 23 22 20 14 14 12 13 14 11 9
62 58 56 56 50 47 38 43 43 47 49 56 47 50 46 41 29 26 28 23 21 19 18 13 11 13 14 24 31 28 28 28 25 24 23 22 19 17 17 16 15 14 12 8
64 64 61 61 57 53 49 48 49 51 58 59 49 53 44 39 37 33 28 23 19 19 19 15 11 11 13 17 26 25 26 25 25 24 24 22 19 19 19 16 15 14 13 9
61 68 64 66 62 58 55 54 56 57 57 55 52 62 48 34 37 38 34 29 29 27 20 12 13 13 14 20 23 24 24 25 26 24 24 23 20 21 19 17 18 16 14 11
54 64 67 69 66 64 61 59 54 55 55 55 58 57 44 37 42 37 37 38 33 32 27 22 13 15 16 19 22 23 26 27 27 27 27 25 22 21 18 19 19 16 14 13
52 56 66 70 68 64 64 58 56 60 59 59 60 55 50 40 40 41 38 40 37 34 28 25 25 14 19 20 23 25 27 29 30 30 30 28 25 23 20 20 19 17 15 13
56 54 59 68 70 65 65 66 62 56 58 58 58 52 47 39 42 42 38 37 37 35 32 25 26 23 22 23 23 26 27 29 32 31 31 29 26 23 20 21 21 17 15 14
58 58 56 62 65 63 69 64 66 65 63 61 59 53 46 43 40 43 35 41 44 38 36 24 27 25 22 24 24 25 28 26 27 31 32 30 29 25 22 22 19 17 16 16
58 62 55 52 59 64 67 67 68 67 65 64 57 52 50 44 41 44 41 43 42 38 33 25 27 25 22 23 26 26 28 26 27 30 32 31 27 23 22 22 20 18 16 15
54 63 60 50 55 67 65 71 66 71 67 63 62 47 43 43 43 45 47 49 44 43 34 34 33 30 26 23 27 27 29 29 27 29 30 30 28 25 23 23 19 17 15 14
51 59 64 52 50 62 69 70 71 70 66 65 59 50 41 43 44 49 50 53 51 42 38 38 29 35 31 31 27 30 31 32 29 28 30 30 31 29 27 22 19 18 15 15
36 53 60 53 48 58 66 68 70 70 67 65 54 45 41 41 50 50 55 50 47 49 47 45 38 36 35 31 29 31 33 34 32 30 30 32 31 29 26 23 22 18 18 17
34 38 49 48 48 59 65 69 71 70 70 64 54 39 40 41 46 49 53 55 55 48 46 46 36 35 37 35 29 32 33 34 32 31 33 31 30 27 26 27 23 19 18 17
30 33 43 50 50 60 65 68 71 71 68 62 54 44 39 43 49 47 48 46 44 48 32 29 33 37 41 37 30 33 27 35 34 34 31 30 30 30 29 26 24 21 19 18
30 34 37 52 39 56 65 68 68 68 66 60 51 47 41 45 45 46 45 45 44 29 22 31 38 45 38 26 29 27 28 34 36 34 33 30 30 32 31 28 27 25 23 21
29 37 33 53 31 38 66 68 60 68 64 57 50 50 46 48 48 48 44 41 32 33 32 33 44 39 28 28 28 29 31 30 27 30 30 32 33 34 32 32 31 29 26 24
32 39 30 55 34 43 65 67 52 58 61 56 49 53 51 53 51 49 45 44 42 33 30 36 35 34 32 29 29 28 29 28 19 22 34 36 36 35 36 36 33 30 28 27
29 31 34 48 31 42 58 64 59 54 57 55 50 53 52 58 56 50 50 50 46 36 34 34 37 33 31 34 33 31 29 29 26 20 28 41 39 37 36 35 34 33 29 28
24 31 35 53 22 47 47 62 54 52 53 57 52 53 53 58 57 53 52 51 52 43 39 39 39 38 35 34 37 37 33 30 26 25 22 31 38 38 41 38 34 37 34 33
16 30 35 40 39 35 49 60 49 47 51 55 54 53 56 59 59 57 53 51 54 51 45 39 41 40 38 38 40 38 36 32 28 27 28 30 35 36 36 31 38 40 42 44
13 25 44 32 46 39 49 55 51 49 50 47 50 54 56 59 63 61 58 54 56 57 53 48 44 43 36 41 40 39 35 34 33 34 37 36 37 41 45 45 47 43 46 50
20 20 24 43 52 54 34 55 62 51 55 54 52 54 53 57 64 63 61 58 59 59 58 57 52 45 37 33 43 44 44 41 40 39 38 35 41 46 48 50 50 45 45 50

GFSCGP_500_spd_057.txt.gz
Wind_Speed
36 37 27 23 29 30 32 32 32 29 29 27 26 28 27 24 21 18 17 16 17 18 18 18 23 28 22 20 19 21 24 25 22 19 19 18 15 14 14 13 10 9 10 11
43 36 32 35 34 34 34 34 37 35 34 32 30 29 30 26 23 23 21 20 16 17 16 18 18 26 25 24 23 22 25 26 25 24 23 21 18 16 14 12 12 11 11 11
47 40 38 41 39 37 37 34 37 37 40 38 35 37 36 29 28 24 21 22 25 22 18 16 18 22 29 26 24 24 26 28 26 24 22 19 15 15 15 13 14 13 11 11
53 48 47 46 45 41 41 33 34 39 42 42 41 42 42 38 29 28 26 23 20 20 19 18 19 23 28 29 29 28 29 30 28 24 21 20 21 21 18 15 16 14 12 11
54 53 52 53 45 46 40 39 43 43 46 47 48 48 44 41 41 36 31 27 25 23 20 19 20 24 32 36 32 31 31 31 28 25 23 22 20 17 15 14 15 15 14 11
58 58 58 59 50 51 43 47 49 48 50 60 52 52 46 45 32 33 32 29 28 27 26 24 24 24 30 35 35 34 32 31 28 26 25 24 21 15 15 15 16 15 13 12
56 60 62 63 59 55 53 54 54 53 59 60 52 59 49 45 35 35 30 29 29 27 27 25 23 22 26 30 34 33 33 30 29 27 26 24 20 17 16 15 15 16 15 13
50 54 65 65 66 59 58 58 60 61 57 55 55 67 54 43 40 41 36 34 33 31 27 24 25 24 24 30 35 33 33 32 30 29 27 26 21 20 18 16 17 18 16 14
48 48 55 63 67 64 62 64 57 61 58 56 61 61 50 48 49 46 42 41 33 30 28 26 25 27 26 29 33 33 32 32 31 31 30 26 23 21 19 18 20 19 18 16
47 49 50 53 62 66 63 59 63 64 64 62 64 58 51 46 50 48 49 43 37 32 34 30 27 29 28 30 36 37 35 34 34 33 30 27 25 24 22 20 21 20 19 16
55 50 51 51 53 62 67 66 66 65 63 64 65 62 45 46 43 47 51 46 41 34 37 32 30 28 31 32 34 35 34 34 36 34 33 31 28 26 23 21 23 22 20 17
48 55 49 52 51 52 66 68 65 70 68 65 66 66 42 43 44 44 53 49 46 40 38 34 30 29 31 32 33 32 33 34 35 36 34 31 31 30 25 24 24 25 22 19
45 52 51 47 50 48 57 68 69 70 72 71 66 64 47 43 43 44 48 50 49 45 41 38 34 33 31 32 32 33 31 30 32 35 34 33 32 30 27 26 27 26 24 22
43 47 53 50 50 57 53 62 67 71 73 72 70 61 48 47 44 46 52 52 52 52 47 43 35 35 32 31 33 32 33 33 32 32 34 33 32 30 29 29 30 28 27 25
37 42 47 53 51 54 54 61 70 75 74 74 68 64 50 48 47 46 54 57 56 55 52 46 38 36 33 32 32 32 33 34 32 31 32 33 35 35 33 31 30 30 26 22
31 37 43 48 48 52 52 55 67 72 74 75 70 65 52 45 46 47 55 61 59 52 57 49 47 39 39 32 29 31 32 33 33 30 30 35 36 35 33 31 31 28 25 22
29 36 40 42 46 49 53 51 61 72 74 73 68 62 54 48 41 49 55 61 63 57 55 55 49 40 37 32 29 28 31 33 34 33 32 33 35 35 35 34 30 27 25 25
29 33 35 36 42 45 49 50 58 67 69 70 67 60 53 47 45 46 55 61 62 58 54 57 50 44 42 37 32 29 31 32 36 37 36 34 34 35 34 31 28 29 27 25
24 30 32 31 41 41 49 48 56 65 65 65 67 59 53 44 45 47 52 59 63 61 58 57 54 48 37 37 38 31 33 32 37 39 36 34 34 33 32 29 31 30 28 26
27 28 33 36 38 43 45 46 57 62 65 62 61 59 52 42 42 45 50 53 59 58 58 56 55 49 44 37 39 37 37 30 33 35 35 36 36 34 32 33 35 34 31 29
24 33 35 32 40 42 38 41 58 59 66 62 57 53 51 46 43 45 44 43 42 52 55 47 40 41 40 45 41 44 40 29 27 31 36 38 37 34 36 38 37 34 31 28
28 30 27 24 42 48 21 40 59 55 61 59 56 50 51 51 44 43 41 39 39 47 38 40 41 41 45 48 46 40 41 32 27 28 36 39 37 36 38 37 36 34 31 28
12 9 9 12 30 45 17 40 59 58 53 52 52 51 52 48 47 45 40 43 41 40 37 39 38 35 44 52 46 43 42 36 31 31 33 38 38 39 39 38 37 34 33 31
8 3 9 16 22 35 22 50 58 57 52 51 46 53 50 47 49 47 46 44 45 44 44 44 42 40 46 47 47 42 41 33 31 31 28 31 36 40 40 40 39 40 40 37
8 5 13 14 16 22 24 48 54 53 52 42 46 53 49 49 51 50 51 49 50 47 48 46 48 46 48 48 40 49 41 35 34 33 32 28 28 34 45 44 41 40 44 45
9 9 4 13 18 26 29 42 47 50 56 42 43 47 47 46 51 53 56 52 53 52 48 48 48 48 43 43 44 38 44 44 41 40 39 38 40 34 39 45 46 43 43 41

GFSCGP_500_spd_060.txt.gz
Wind_Speed
31 27 23 25 25 30 29 32 30 29 29 28 27 25 24 23 22 17 18 18 20 22 22 24 23 24 20 19 21 22 24 26 23 17 18 18 16 14 13 12 9 9 12 14
37 32 28 31 34 32 30 30 33 34 35 33 31 29 29 26 24 23 23 22 21 20 20 21 23 27 21 21 22 23 25 26 25 22 22 20 17 15 14 11 10 9 11 15
38 38 38 36 34 37 35 33 36 37 40 37 37 35 36 32 29 25 23 21 18 22 22 22 23 27 26 23 23 24 26 27 26 24 21 18 16 15 14 13 11 10 13 16
45 43 44 42 41 40 40 35 37 40 44 40 40 36 38 36 34 30 28 22 19 20 20 21 24 25 31 27 27 28 28 29 27 24 21 19 19 19 17 16 15 13 13 15
48 47 47 46 46 45 43 41 42 43 47 47 48 48 34 38 40 35 31 23 20 21 22 22 20 26 31 34 31 30 31 30 28 25 23 23 21 17 15 15 15 15 14 14
50 52 53 52 53 51 48 47 47 47 49 57 53 50 46 37 44 35 34 27 25 24 23 21 18 21 31 36 35 33 32 31 29 27 25 24 20 17 16 16 17 16 15 15
47 53 55 58 58 58 55 52 53 54 56 58 53 58 53 44 39 42 36 32 29 31 30 28 25 25 27 33 35 34 33 32 30 29 27 26 22 19 19 17 17 16 15 14
41 46 53 57 62 62 61 59 60 62 56 55 54 61 58 55 51 45 42 39 38 39 35 31 28 29 27 34 38 37 35 33 31 30 29 29 24 22 21 18 17 17 16 14
41 39 51 56 60 63 62 64 57 51 38 58 49 57 58 57 53 47 42 45 43 37 35 31 29 28 28 32 36 38 37 37 34 33 32 30 26 23 20 20 20 18 16 15
49 44 43 51 58 60 61 59 64 64 48 63 53 56 56 58 49 47 47 47 42 40 38 33 30 28 29 31 38 40 41 39 38 37 35 33 29 26 25 23 21 20 19 17
52 52 50 46 51 52 52 64 59 60 61 60 55 44 56 55 47 48 48 48 44 43 39 34 31 30 30 33 37 39 42 41 39 37 37 35 31 29 29 23 23 21 20 20
59 59 56 55 51 54 55 49 63 51 64 69 44 40 36 57 49 49 51 51 45 46 42 37 33 30 30 30 34 39 43 41 38 37 37 35 34 32 30 26 25 24 22 22
56 57 59 57 56 52 52 52 56 53 49 56 65 60 48 55 48 47 52 56 51 50 46 43 42 37 31 30 31 35 41 39 39 39 38 37 35 33 30 28 27 25 25 23
45 50 57 56 42 52 57 56 61 61 68 62 50 45 58 54 45 46 51 58 62 62 54 49 45 41 36 32 30 32 38 39 39 40 40 38 35 32 31 31 28 28 27 26
34 41 50 55 54 58 63 60 61 61 72 70 51 48 45 59 50 46 49 58 62 63 59 54 46 43 39 35 32 33 36 40 40 40 40 38 37 35 35 33 30 28 28 28
26 34 42 48 50 55 59 62 63 62 68 76 72 62 42 59 59 51 49 55 61 64 62 57 52 47 43 38 34 31 36 36 35 36 36 38 41 39 36 35 32 30 27 30
29 29 36 42 42 51 61 59 58 58 59 68 77 71 58 65 55 50 47 53 60 65 63 60 57 50 45 38 37 35 34 35 35 34 35 36 38 38 37 36 34 29 28 31
29 29 30 37 36 43 49 49 49 59 56 59 72 72 67 63 60 50 49 52 58 65 65 63 59 51 45 41 38 37 32 31 34 35 36 35 34 36 37 37 34 31 30 30
24 28 28 29 30 35 41 54 56 61 55 62 65 71 67 61 59 54 50 50 56 65 65 62 59 54 50 42 40 36 31 28 31 34 36 34 31 35 37 37 36 34 31 30
31 26 30 28 30 34 37 46 51 53 51 55 60 64 64 63 61 58 52 48 54 65 64 63 60 55 56 48 41 39 36 33 29 27 32 34 34 35 35 37 37 35 33 33
26 26 23 24 30 31 39 46 44 53 49 50 54 58 62 63 60 59 54 49 49 59 62 60 61 54 56 51 44 43 39 34 31 33 31 35 36 36 36 38 39 37 35 34
19 22 24 24 27 33 35 38 42 50 47 42 50 49 59 61 57 61 47 49 49 50 53 59 60 56 60 58 46 42 42 38 39 37 33 32 37 37 39 39 37 36 35 34
9 16 23 23 17 29 35 30 34 42 41 40 46 49 57 58 58 52 45 47 50 48 50 59 62 60 62 60 54 49 45 45 43 41 39 33 34 38 39 39 37 36 35 33
8 5 3 6 9 17 39 40 28 40 38 33 39 51 53 54 56 50 46 46 42 43 43 50 59 59 61 57 53 53 57 51 52 47 44 36 34 37 38 39 37 35 35 33
12 13 12 9 2 8 25 37 37 34 43 50 43 46 50 51 52 52 49 45 39 41 42 47 56 55 56 55 58 53 56 59 54 51 46 36 31 36 38 40 39 38 37 36
14 8 7 11 11 4 8 15 34 43 52 50 46 47 50 50 47 47 49 45 42 45 46 45 48 49 53 56 55 57 59 57 55 53 43 39 37 38 41 43 42 40 38 36

GFSCGP_500_spd_063.txt.gz
Wind_Speed
28 25 21 23 23 24 26 24 28 20 28 24 25 27 24 11 16 14 11 12 15 19 21 23 21 18 17 16 18 18 22 24 20 19 15 15 15 13 13 13 10 9 9 10
34 30 27 26 29 30 29 27 29 27 24 29 29 29 24 24 24 20 17 15 18 20 20 22 22 18 20 18 19 19 23 25 20 20 18 16 15 15 14 12 12 11 11 10
34 35 35 34 32 32 32 30 29 32 27 29 28 32 28 28 30 23 20 17 18 17 18 21 22 21 23 19 20 21 24 26 24 19 18 17 16 15 14 12 12 12 12 11
40 40 39 41 39 36 33 33 34 37 36 30 35 35 38 37 32 30 23 19 17 16 17 21 22 23 25 23 23 24 26 27 26 21 19 17 17 16 15 13 12 13 13 14
43 44 44 44 44 44 39 39 38 39 41 45 36 38 24 26 24 33 29 25 22 17 14 19 18 21 25 30 26 27 28 28 26 23 21 20 18 17 15 15 14 13 14 15
47 49 50 48 49 48 46 45 45 45 45 51 49 36 40 37 39 31 33 31 26 20 15 19 20 19 22 29 29 28 29 29 27 25 23 21 20 17 17 16 16 14 14 13
46 48 51 52 54 53 52 50 48 49 50 49 46 52 40 32 37 34 33 33 30 26 22 21 18 18 16 24 29 29 29 30 29 26 25 23 20 19 19 17 16 15 14 14
44 41 50 53 54 54 57 55 52 48 43 46 47 54 53 41 25 37 39 36 33 33 29 26 22 22 23 22 26 32 30 31 30 29 27 26 23 20 21 19 18 17 16 15
38 41 35 50 53 54 53 55 55 37 32 39 36 50 49 46 48 41 41 37 38 37 37 30 26 24 27 25 25 31 34 34 33 31 31 29 26 22 20 19 20 19 18 17
40 46 43 51 54 58 55 44 49 55 44 41 35 35 39 48 51 55 50 36 43 29 41 35 30 29 28 25 27 30 35 36 36 35 34 33 30 26 24 22 21 20 20 20
45 49 47 46 50 48 50 54 50 38 48 43 37 33 32 33 43 53 53 54 45 43 40 36 35 33 31 28 28 30 34 38 38 36 35 34 31 29 28 25 22 22 22 22
48 51 51 51 47 50 46 39 48 44 43 47 43 32 21 31 33 43 46 48 46 45 36 37 39 36 33 30 27 29 32 36 39 37 37 35 35 33 31 27 24 23 22 24
47 52 54 53 56 57 54 50 47 45 46 45 46 41 28 32 38 31 40 48 48 47 40 44 41 42 35 32 28 27 28 32 38 39 39 38 36 33 31 29 27 25 24 25
49 51 53 48 33 43 49 56 47 44 46 49 45 41 37 28 37 45 40 40 44 48 48 42 46 47 39 35 29 26 24 28 34 40 40 39 36 33 32 32 30 27 26 26
39 44 49 54 54 47 60 57 45 48 51 55 48 39 48 34 26 29 35 43 45 49 46 53 51 50 43 40 33 30 28 28 30 36 38 37 36 36 35 35 32 29 28 27
34 38 40 52 51 56 59 63 65 63 57 64 64 57 51 50 36 34 44 45 58 64 62 63 64 55 47 41 38 34 30 27 29 32 33 35 38 38 36 34 33 30 29 28
32 34 36 40 43 38 59 61 63 62 61 59 66 68 56 51 40 37 52 52 55 61 65 63 58 57 52 44 41 34 33 30 30 30 35 36 37 38 38 37 36 33 31 30
25 32 34 35 28 36 41 49 56 58 62 61 60 64 60 55 47 36 48 60 47 48 60 64 62 61 55 48 45 39 38 32 27 28 34 37 36 35 37 39 37 36 35 32
18 27 32 34 33 31 28 34 48 60 61 56 53 61 70 60 46 60 44 60 55 49 52 63 65 65 61 55 50 45 39 33 30 28 32 33 34 33 34 35 36 37 37 33
20 22 33 31 29 31 31 41 42 54 58 46 44 52 71 68 71 60 65 53 59 53 49 61 64 64 63 58 52 49 42 37 30 27 25 29 30 32 31 31 34 37 38 35
15 18 27 30 35 32 33 36 36 51 55 60 58 63 67 76 81 77 70 56 53 55 52 54 62 63 61 59 54 50 43 36 27 29 27 27 28 30 31 31 32 35 36 36
12 17 21 27 31 37 35 38 46 48 52 56 57 54 57 64 76 78 70 56 54 51 54 52 58 64 61 60 57 51 46 38 39 35 33 29 27 28 34 33 33 31 33 34
8 16 21 25 26 31 31 34 36 45 46 49 50 51 50 58 63 73 75 62 55 52 50 52 55 61 61 64 61 55 50 47 45 40 38 37 31 29 31 34 34 33 32 33
7 6 5 14 21 10 21 32 29 29 42 41 49 47 48 52 56 66 68 61 52 53 53 48 52 58 69 66 62 58 59 52 45 45 44 41 37 33 30 30 35 35 34 34
9 9 4 1 6 4 17 29 28 19 33 35 41 48 40 46 54 63 61 58 53 51 51 52 46 54 63 65 60 61 59 56 48 50 49 46 41 38 32 29 36 35 35 36
6 7 5 4 9 9 11 22 31 31 30 32 39 44 41 46 50 51 56 55 50 49 47 47 49 48 56 59 64 64 63 60 55 50 52 53 46 45 39 34 33 37 38 37

GFSCGP_500_spd_066.txt.gz
Wind_Speed
24 24 22 23 21 22 26 26 19 19 16 23 24 28 31 24 19 25 17 11 7 9 12 13 15 14 12 11 13 15 18 20 17 12 14 13 12 11 8 6 8 10 7 10
31 27 23 24 27 26 27 29 28 19 15 31 29 29 29 24 24 30 17 12 10 11 9 11 13 14 12 13 14 16 18 23 19 15 13 14 13 12 13 8 9 9 11 9
35 33 32 30 28 31 31 28 27 29 18 28 23 35 21 27 32 33 14 18 14 9 7 11 13 13 14 16 14 17 19 24 19 17 14 13 14 13 12 11 10 10 12 12
35 38 38 38 35 33 33 32 29 33 32 27 23 29 39 27 33 21 24 21 13 11 7 9 11 14 14 20 17 18 20 24 23 17 16 15 14 13 11 10 9 9 10 12
36 39 41 41 42 41 38 35 36 34 38 38 35 31 30 33 32 21 27 20 14 14 12 10 10 13 15 19 21 20 22 24 25 20 17 17 16 14 10 10 10 10 10 12
44 43 44 45 44 44 44 43 39 41 41 46 41 38 27 37 31 27 29 21 17 17 16 14 14 14 12 15 20 20 22 24 25 23 20 19 17 16 14 12 12 11 11 11
42 42 46 48 50 48 48 49 45 45 46 43 37 43 43 25 25 33 29 26 21 21 21 19 14 13 12 11 15 21 21 22 24 24 22 21 19 17 17 16 14 12 11 10
42 30 39 43 47 49 49 50 49 48 47 42 38 44 40 33 24 30 36 36 43 24 24 23 18 15 15 11 9 17 23 24 24 24 23 23 21 19 20 18 17 14 12 12
40 35 15 24 40 48 45 43 46 45 33 46 31 30 38 35 38 33 28 38 38 39 30 29 24 20 20 18 15 14 23 27 27 27 26 25 23 20 20 20 19 18 16 14
34 41 37 28 27 43 42 48 32 41 43 46 32 30 22 28 33 37 44 51 41 37 35 36 33 25 21 21 20 19 19 28 30 30 29 27 26 23 21 20 19 20 20 18
37 41 40 44 45 39 43 53 49 36 35 52 45 33 25 18 27 26 47 53 53 54 50 44 37 28 23 23 21 18 19 24 30 30 29 29 27 25 24 22 20 20 20 21
46 45 47 44 49 42 29 44 44 42 43 42 45 41 26 18 23 34 34 34 39 53 50 23 30 17 24 25 23 16 19 19 27 32 32 30 30 29 25 24 22 21 21 21
51 46 50 47 48 49 52 49 46 50 44 43 37 38 33 20 23 25 33 31 35 42 43 40 16 25 25 29 25 18 16 18 20 30 34 34 32 30 26 26 25 23 23 22
50 53 48 50 37 40 45 37 45 48 37 43 50 35 43 16 21 29 33 25 31 32 36 38 33 37 36 29 26 22 19 18 21 23 32 35 34 31 30 28 28 27 24 24
35 43 51 54 52 46 54 54 54 51 56 47 51 45 49 33 39 38 40 35 37 44 37 42 46 47 41 27 26 27 23 21 20 20 26 31 34 34 33 31 30 29 26 25
30 33 36 52 57 58 61 62 64 59 58 58 47 49 60 46 42 39 45 49 43 37 41 50 49 38 46 41 39 33 28 24 22 20 19 28 34 34 33 32 31 31 28 26
33 32 28 27 38 39 64 61 63 61 59 58 59 63 64 55 50 43 47 49 55 49 53 54 56 52 48 37 38 39 31 30 23 18 21 22 29 31 31 32 32 31 30 28
29 34 29 31 33 37 52 60 63 61 60 60 61 62 65 63 56 50 54 50 51 61 58 52 54 54 61 54 43 30 32 31 23 18 20 24 25 26 28 29 29 30 30 29
19 24 26 23 29 30 29 37 40 60 65 57 63 66 65 67 66 45 57 61 42 53 52 51 60 58 57 56 44 33 35 31 25 20 19 19 22 26 27 27 28 31 32 31
14 17 26 26 27 31 26 34 42 49 57 61 74 68 60 77 75 65 54 63 57 46 44 54 55 61 58 59 55 48 41 34 27 20 20 22 21 24 25 26 28 30 32 31
13 21 25 22 23 31 32 39 35 44 57 60 61 70 67 75 83 68 63 75 49 54 53 55 54 58 59 59 57 54 46 39 31 32 29 26 24 23 24 26 28 27 28 30
11 12 18 21 27 33 41 38 47 39 51 56 61 59 61 72 83 85 71 72 56 40 58 58 50 55 59 59 57 57 50 43 39 38 35 31 25 22 22 24 27 29 27 26
8 12 17 20 22 30 37 40 43 40 37 48 54 63 59 64 72 73 84 68 54 51 45 55 54 53 56 59 57 56 57 53 47 45 39 35 29 27 26 24 25 28 29 26
7 12 13 21 24 30 31 39 44 45 44 46 53 58 63 65 65 66 79 86 55 50 52 55 56 54 56 58 58 56 56 53 50 49 43 40 35 31 28 27 25 26 29 29
13 11 7 7 18 21 26 31 35 38 42 44 45 52 59 60 62 57 62 76 85 62 53 55 55 55 54 59 60 58 58 55 56 52 47 45 40 37 34 32 29 26 29 31
17 15 12 11 9 9 10 14 23 33 33 39 42 46 46 48 48 52 51 60 68 88 64 60 54 51 53 56 59 59 60 57 58 55 50 49 45 41 39 37 32 28 24 29

GFSCGP_500_spd_069.txt.gz
Wind_Speed
24 24 23 23 20 23 25 30 28 23 6 6 18 22 17 19 18 16 18 9 8 8 8 8 8 9 10 7 8 11 13 16 12 11 10 11 9 9 7 6 8 10 11 6
30 24 22 24 27 25 27 27 28 24 13 10 22 26 23 22 24 22 23 9 14 9 7 7 8 7 10 12 10 12 14 18 15 11 11 12 12 8 7 8 11 10 10 13
35 30 30 29 27 30 29 28 25 28 23 22 21 30 30 28 25 27 28 25 19 14 10 8 6 8 10 13 11 14 15 20 17 14 12 13 11 7 7 8 11 13 10 10
35 35 36 34 32 31 32 30 27 27 33 32 25 27 29 25 24 21 12 16 18 17 11 9 8 5 11 14 14 15 16 19 19 15 14 13 13 11 7 6 9 12 12 11
33 36 39 39 38 36 33 34 35 35 35 39 36 33 29 24 24 23 22 25 22 17 16 12 10 9 11 13 17 16 18 19 22 17 15 15 15 13 10 8 8 12 14 13
37 38 40 40 41 42 41 38 37 39 40 41 35 39 36 31 20 17 16 18 18 19 19 16 13 12 9 11 15 17 16 18 22 20 16 16 16 16 13 11 10 12 13 12
38 36 37 41 44 43 43 45 42 43 41 36 32 39 35 32 27 20 15 24 28 25 28 20 13 11 11 7 11 19 18 18 21 23 18 17 17 16 15 13 11 10 13 13
39 38 35 33 38 43 46 44 46 46 40 36 35 38 28 31 32 28 25 23 25 30 31 27 17 15 15 13 10 14 21 20 21 22 23 20 18 19 17 15 13 12 11 11
41 40 40 39 43 45 39 43 43 44 45 46 41 35 26 10 14 28 32 36 30 32 33 32 29 19 18 17 14 12 18 23 23 25 25 23 21 19 20 20 18 16 14 13
38 34 35 42 47 49 49 40 40 44 48 49 46 42 29 8 14 15 26 33 33 35 36 40 32 34 27 20 19 16 16 20 25 26 26 25 24 23 23 22 22 21 18 16
35 38 36 36 38 38 35 40 42 45 50 50 46 47 29 7 9 18 29 26 27 30 35 31 46 35 27 28 26 18 17 18 23 25 25 26 24 23 23 21 23 24 22 19
31 33 35 39 42 43 47 49 47 50 49 52 48 53 29 19 9 26 31 26 26 25 28 39 32 30 28 33 28 20 16 19 22 27 29 29 28 26 25 23 22 22 23 22
40 41 42 40 42 45 49 51 48 49 55 56 52 54 39 31 24 20 20 26 28 27 29 30 37 34 31 32 30 24 14 15 20 24 30 30 29 27 26 25 24 22 21 21
31 34 42 47 46 50 56 54 53 49 54 59 57 58 43 43 33 25 15 33 35 26 27 27 33 20 26 32 29 25 17 14 15 20 27 32 31 30 29 28 27 25 22 21
33 36 40 38 48 48 54 62 59 58 57 59 59 63 47 50 44 37 28 29 34 32 29 31 34 31 36 34 36 25 25 17 13 14 19 28 34 34 34 30 28 28 25 23
38 41 46 48 44 43 58 58 62 64 61 63 63 63 51 59 58 46 40 36 39 31 41 27 36 36 38 35 51 29 25 22 16 15 17 21 29 34 33 33 31 29 28 26
41 32 38 40 40 43 48 59 60 62 64 62 62 62 56 63 67 57 52 50 48 38 40 38 41 30 26 29 26 39 33 27 23 18 13 16 21 29 34 34 32 29 28 29
29 29 31 36 37 39 30 54 61 63 65 69 69 64 71 70 64 64 57 58 59 56 45 49 44 42 38 41 37 46 39 44 32 25 16 14 16 21 30 34 30 29 29 29
26 23 27 31 33 32 23 29 55 68 66 71 71 68 60 74 71 74 61 63 65 66 58 51 53 48 44 44 42 37 25 52 30 25 20 12 11 15 23 27 27 29 29 29
20 17 19 21 24 24 23 30 39 53 69 68 70 70 66 72 83 81 73 64 69 66 66 65 57 57 59 56 51 46 46 36 22 25 21 18 16 15 18 25 27 28 28 30
17 14 16 21 25 27 32 27 35 43 51 64 68 69 68 73 77 81 81 69 61 64 58 59 59 58 62 62 53 36 29 31 35 28 24 20 18 17 17 24 26 26 27 29
17 15 15 16 22 28 28 30 34 40 52 46 58 65 69 69 73 76 81 72 62 63 61 61 56 65 63 63 53 51 41 45 36 32 29 25 22 20 20 21 24 24 25 25
16 17 19 21 21 27 25 31 31 34 47 48 55 54 70 73 73 73 79 82 70 58 62 66 48 65 61 66 65 65 56 30 36 36 35 31 28 26 24 25 25 25 25 25
16 16 17 21 27 32 30 36 36 34 43 51 49 55 69 72 74 75 76 79 84 71 55 68 68 62 55 57 58 62 60 52 47 42 39 38 34 30 27 26 25 24 25 25
19 16 16 17 18 28 31 33 33 36 38 47 49 49 60 72 66 68 74 75 81 88 71 64 66 55 59 61 59 61 58 52 50 47 46 45 40 37 34 32 29 27 26 25
22 23 19 14 13 16 19 24 26 28 34 44 48 56 50 57 56 64 69 73 75 83 86 73 63 52 49 60 62 57 56 53 52 50 50 49 45 44 41 39 35 31 29 28

GFSCGP_500_spd_072.txt.gz
Wind_Speed
26 25 23 22 20 23 25 26 19 17 17 17 14 14 13 10 8 6 11 11 8 11 15 15 13 14 12 10 9 11 11 14 12 12 11 8 9 10 7 3 7 9 4 10
28 23 23 25 26 24 27 28 24 22 22 23 16 9 11 16 16 8 12 19 16 12 13 16 16 14 13 13 11 13 13 16 12 11 10 9 9 8 7 7 9 9 10 11
32 29 29 29 30 30 28 27 26 29 28 24 22 18 15 20 16 10 10 13 26 13 15 19 20 18 15 15 13 14 15 19 15 10 10 8 8 5 7 8 10 8 11 11
36 35 34 32 29 31 32 27 28 30 33 28 25 21 17 20 17 10 10 20 16 21 16 19 22 19 15 17 16 16 16 20 19 13 13 11 10 7 9 8 9 11 9 9
36 36 37 36 33 32 31 32 29 31 36 34 32 31 24 23 18 11 8 11 14 15 14 13 19 22 20 19 18 18 19 20 22 17 14 13 11 8 9 9 8 8 9 8
34 34 35 37 39 39 37 35 36 36 37 37 34 33 31 24 19 11 8 9 20 17 12 16 18 21 20 19 23 19 18 20 24 21 17 15 13 12 11 10 10 10 10 9
36 35 32 35 37 39 40 39 37 37 37 35 36 38 30 20 21 18 12 13 19 16 17 18 17 16 16 15 19 21 18 19 23 24 20 18 16 15 14 12 12 13 13 12
37 35 38 38 36 36 41 43 41 39 35 38 36 42 34 26 24 23 18 24 15 22 15 21 18 18 20 19 18 24 22 21 22 26 24 20 19 19 18 15 13 13 16 14
36 35 37 37 41 41 37 36 38 42 42 45 38 33 24 33 30 19 24 27 25 19 18 22 24 20 22 23 23 23 26 24 24 27 28 24 20 19 19 19 18 15 16 15
33 33 35 36 40 42 42 40 39 40 42 41 39 35 21 23 27 25 25 12 10 12 15 17 22 29 26 24 26 27 30 29 27 28 28 28 25 23 22 20 20 18 16 14
29 25 27 31 36 38 42 44 47 46 46 45 42 31 27 27 27 29 29 31 26 17 6 12 20 31 35 29 25 24 25 28 29 27 28 29 28 25 24 22 22 21 19 17
19 22 28 32 33 36 40 41 47 51 49 50 47 36 37 35 29 35 35 35 29 27 20 15 12 18 31 33 30 25 24 24 28 32 29 28 29 29 27 25 22 21 20 20
22 25 26 34 40 39 41 41 42 45 51 52 52 43 44 45 38 36 34 31 34 30 23 20 14 16 33 38 38 31 25 26 26 29 32 30 30 30 27 27 26 24 22 22
17 20 22 31 38 47 48 46 47 50 50 50 55 53 48 52 50 44 36 37 33 33 28 29 23 23 24 33 41 33 29 29 29 27 31 33 30 29 31 31 30 29 26 24
19 18 22 27 32 36 47 52 53 54 54 55 53 57 53 52 56 48 42 28 33 36 37 39 31 24 24 31 36 43 41 35 31 28 29 31 34 34 33 34 32 30 29 26
19 19 25 30 37 43 45 44 54 60 60 62 58 56 51 57 59 55 47 33 33 36 40 37 30 20 19 32 34 34 38 36 33 27 27 29 29 34 34 33 32 33 31 28
25 24 25 31 39 48 51 48 53 55 67 69 65 60 54 59 60 61 55 44 38 42 33 37 43 43 37 39 39 44 40 36 32 30 26 28 28 29 34 35 34 32 31 31
24 25 30 37 48 54 42 46 52 58 66 72 71 68 59 58 64 64 61 57 47 44 50 40 33 24 45 40 45 47 42 39 37 31 29 27 29 30 31 35 35 33 33 32
24 25 29 36 40 42 33 33 44 54 62 70 75 72 66 62 70 67 66 64 59 51 50 56 41 40 33 34 38 40 46 51 42 37 33 30 26 27 30 32 34 35 35 34
23 26 29 30 32 32 25 31 38 43 53 66 72 74 72 66 70 70 69 69 67 58 55 56 52 50 42 38 39 27 41 49 37 35 36 33 28 25 24 30 34 35 36 36
26 28 27 28 28 22 20 27 37 39 34 46 71 71 72 69 71 72 74 73 70 65 61 57 57 56 54 55 49 38 37 31 41 52 49 41 30 26 25 29 34 34 34 36
24 26 25 26 28 25 20 27 35 36 34 38 50 73 71 74 76 77 75 78 77 72 66 66 62 59 56 55 60 53 51 43 43 48 36 38 32 28 26 28 33 34 34 34
17 21 24 27 26 27 26 24 27 32 38 36 43 53 70 75 78 77 77 79 80 81 77 66 71 73 70 69 68 64 52 46 29 25 39 43 42 37 28 26 27 31 33 34
13 13 15 19 24 25 24 27 31 28 28 34 40 47 56 71 78 77 77 81 82 82 85 73 71 65 69 72 72 66 53 52 48 41 40 42 41 29 34 32 27 27 31 34
16 17 18 21 21 21 21 26 26 32 35 39 42 47 51 64 64 72 81 79 83 85 88 87 73 63 72 76 64 61 56 52 47 48 45 56 48 47 44 38 34 30 30 34
16 18 20 21 22 23 22 21 24 28 31 34 36 44 51 56 60 65 70 83 80 83 87 90 87 72 64 59 75 59 68 52 54 59 55 43 43 47 42 39 41 33 32 32

GFSCGP_500_spd_075.txt.gz
Wind_Speed
28 29 24 22 22 23 24 23 21 21 24 21 22 18 17 12 12 10 13 10 8 8 15 26 22 18 15 13 14 14 19 19 16 15 11 10 8 8 6 5 8 11 11 13
29 24 25 27 25 26 27 25 25 24 23 21 22 25 21 19 13 8 7 17 12 7 11 17 22 19 18 19 18 19 22 20 16 16 12 9 8 7 5 8 8 9 10 12
29 25 29 29 31 29 27 22 28 29 29 24 23 18 16 20 14 9 8 8 18 14 16 18 21 24 22 16 16 20 26 23 19 15 13 13 12 7 8 10 8 10 10 11
32 32 31 29 28 28 27 23 30 34 32 30 26 22 16 17 15 9 5 3 9 24 17 20 21 21 23 23 18 19 23 24 21 19 16 16 14 13 12 12 10 11 11 10
33 34 32 32 29 27 26 29 30 37 36 33 31 28 19 9 7 7 7 6 7 32 16 16 20 20 22 23 20 21 20 23 21 19 18 15 12 13 13 14 12 9 10 11
34 33 34 33 34 32 31 31 33 34 39 36 33 30 22 14 12 7 7 11 9 33 23 22 23 26 24 24 23 21 21 25 24 20 18 16 13 14 15 15 14 12 10 10
36 36 34 33 34 35 35 33 31 34 37 34 34 31 19 19 22 20 14 8 10 29 17 18 22 22 18 18 21 21 20 21 26 24 21 18 17 16 16 13 14 14 13 12
36 36 36 34 33 34 36 38 36 34 35 38 36 34 25 25 24 24 21 19 16 26 20 15 16 18 17 19 23 24 22 22 25 26 23 22 20 19 17 16 14 13 13 12
35 36 37 38 36 33 34 37 38 38 40 40 38 37 32 34 31 29 26 24 23 16 24 16 8 15 20 20 22 26 28 27 25 29 27 24 23 21 20 19 18 16 15 15
34 34 35 37 39 37 36 36 37 38 40 40 35 37 41 39 40 39 34 29 28 24 20 16 15 19 20 19 19 23 29 28 31 33 32 27 25 25 23 21 21 20 19 18
28 29 31 34 38 39 39 39 39 38 39 40 36 38 41 42 40 38 35 31 31 29 28 22 24 21 30 23 20 18 21 28 27 29 33 33 28 26 25 23 23 22 20 19
23 23 28 32 36 38 39 40 39 41 42 41 39 40 43 42 39 38 37 36 33 31 33 32 31 31 34 34 29 23 21 22 29 29 31 32 34 32 29 27 25 24 23 21
19 24 32 34 36 39 39 40 41 40 41 44 43 44 42 43 42 39 39 38 35 31 32 33 37 33 31 31 35 34 30 26 26 33 33 34 34 34 32 30 28 26 25 24
16 19 27 37 40 39 39 38 39 40 40 43 45 45 47 43 42 45 44 43 41 35 36 35 32 32 34 33 40 41 37 34 32 31 35 37 37 36 36 35 34 30 28 27
16 16 18 24 31 40 42 40 41 43 43 43 45 45 51 46 44 45 47 45 45 40 41 40 33 35 35 35 36 45 41 31 35 34 34 38 41 40 40 39 37 34 31 28
18 20 20 22 23 26 29 37 45 50 52 51 51 52 54 51 46 46 50 47 47 46 44 43 38 39 37 33 41 44 45 45 43 40 36 38 42 44 43 42 41 39 35 32
29 26 24 25 26 27 29 30 34 39 43 54 61 56 58 61 53 50 50 54 50 43 45 47 44 41 40 32 38 42 47 49 47 42 40 42 41 43 46 46 45 42 39 37
26 29 29 30 30 30 33 38 42 44 48 52 62 65 65 66 64 57 54 53 55 55 49 50 50 49 47 40 37 43 51 52 57 45 44 44 42 41 44 48 46 45 43 40
25 29 31 32 32 32 32 35 40 47 51 55 59 69 68 72 73 65 60 58 56 57 56 55 53 54 47 49 42 43 44 45 50 45 46 43 43 41 40 43 47 47 46 43
27 29 28 29 32 36 39 37 42 45 44 48 55 66 72 73 78 74 67 62 61 56 61 56 57 54 52 46 43 49 52 51 50 49 47 46 37 37 35 38 44 49 48 47
23 26 28 32 36 37 35 35 41 43 36 36 44 52 66 70 79 81 76 69 64 65 62 66 60 60 57 52 46 40 60 48 53 50 49 44 38 37 35 33 38 44 49 50
14 19 23 26 29 31 31 35 39 39 35 36 42 45 49 62 74 82 82 76 71 69 70 65 69 64 63 58 51 42 62 50 60 59 52 52 46 43 38 37 35 38 45 49
9 11 15 20 24 28 30 32 34 35 36 36 38 47 49 46 65 72 81 82 76 74 72 76 70 69 67 60 58 56 60 51 33 42 30 33 28 36 40 41 37 39 42 43
8 10 12 13 14 16 21 25 27 30 32 37 38 43 51 47 43 54 73 79 82 80 77 76 80 73 72 72 51 56 55 52 46 42 35 41 39 45 41 45 41 38 38 39
13 13 15 16 18 18 17 17 19 24 27 31 37 40 41 48 50 50 53 73 79 80 81 80 82 79 76 82 79 65 54 61 59 52 42 47 47 51 50 48 48 42 39 37
18 18 19 19 24 25 25 22 21 20 21 25 30 35 41 43 45 49 47 51 70 80 82 84 82 85 84 86 78 72 67 58 54 66 53 51 50 47 54 55 53 47 40 35

GFSCGP_500_spd_078.txt.gz
Wind_Speed
30 27 21 23 26 27 26 26 24 21 22 21 21 22 17 10 8 13 15 12 10 13 18 18 17 19 19 18 17 21 21 20 17 15 10 8 11 10 9 10 12 12 13 13
26 26 29 27 26 26 27 29 26 27 23 20 23 20 17 14 11 14 19 15 10 12 17 18 17 17 19 20 20 23 21 18 17 16 11 8 9 9 10 11 11 15 15 15
25 26 28 30 29 27 27 28 30 29 26 22 17 18 16 13 14 14 16 14 15 13 19 21 19 19 17 15 15 21 23 20 16 15 12 11 11 11 14 12 14 15 16 16
27 29 29 28 29 28 24 25 29 32 28 26 21 17 15 16 16 15 18 15 16 17 14 22 25 22 21 22 20 18 24 21 17 18 17 15 12 11 15 15 15 15 17 16
29 30 30 29 26 24 27 29 30 31 30 27 24 19 14 10 9 14 16 16 16 16 20 22 27 25 23 21 22 21 23 21 18 19 17 15 12 12 13 15 17 16 15 15
30 31 31 29 31 27 29 30 30 31 32 28 26 22 17 17 26 23 20 14 11 12 22 21 23 25 22 23 20 22 22 25 21 19 17 17 15 16 15 15 15 18 16 15
33 32 31 31 32 32 31 30 31 34 36 30 30 23 23 26 24 20 16 14 15 14 23 19 22 24 21 20 23 21 22 26 26 22 20 18 16 16 17 16 14 17 16 15
35 35 33 32 33 32 33 33 32 34 34 35 35 31 27 24 25 24 20 15 9 13 26 20 22 25 21 20 22 23 22 25 29 25 23 20 18 17 17 17 16 13 14 14
34 35 35 34 34 33 34 34 34 36 37 34 36 37 31 29 28 28 25 22 18 18 27 21 19 21 20 20 21 24 24 24 27 29 25 24 21 19 20 18 17 16 16 15
34 35 36 37 35 34 35 36 36 36 37 38 37 36 37 32 32 32 29 25 24 18 24 22 19 21 22 22 24 24 28 25 27 29 29 25 26 24 22 20 18 18 18 17
32 33 36 37 38 36 36 36 37 38 38 39 39 38 37 34 33 34 34 30 27 25 21 19 24 26 27 26 25 25 24 28 27 27 30 30 26 26 24 22 21 20 20 19
22 28 31 33 35 36 36 37 37 38 37 39 40 39 39 36 34 34 34 31 33 32 30 30 28 30 31 29 28 27 26 27 30 30 31 33 31 28 26 24 24 23 21 20
24 25 29 33 35 36 37 37 36 37 37 39 39 40 38 37 35 35 35 33 31 30 31 34 36 35 33 34 32 29 29 28 31 32 32 34 36 33 29 28 27 25 24 23
26 30 33 35 37 36 37 37 37 35 37 38 41 40 39 37 33 35 35 38 38 36 32 33 40 40 38 35 36 36 34 31 31 32 37 36 37 37 36 34 32 30 29 28
28 30 33 36 36 38 38 37 38 37 36 38 41 40 40 40 37 34 38 37 41 40 38 39 41 39 40 40 36 39 40 40 38 35 33 38 37 37 39 40 37 36 33 31
24 21 20 23 30 35 39 40 39 39 38 38 39 41 40 41 42 40 38 46 49 47 46 44 44 45 39 41 37 37 39 43 43 42 36 36 39 39 39 41 42 41 38 36
23 21 20 20 22 28 31 34 36 38 40 41 42 44 46 45 46 45 44 46 53 52 51 50 48 49 47 43 43 43 44 46 48 46 41 41 38 37 40 42 44 43 41 39
26 27 27 27 26 29 30 29 30 32 33 35 37 41 46 51 52 53 52 49 50 58 57 56 54 52 52 49 42 45 39 42 46 52 47 45 42 37 37 40 43 44 44 42
28 27 27 26 32 32 34 32 34 36 37 38 40 44 47 52 54 56 58 57 55 54 62 61 57 56 54 52 49 46 47 43 43 55 58 51 48 43 39 39 40 46 46 45
27 29 28 28 30 34 35 37 39 40 40 41 43 46 50 54 60 62 64 64 62 60 60 66 63 59 59 56 52 49 48 47 37 50 58 54 53 48 42 40 41 43 48 49
19 22 23 26 29 31 33 36 38 39 38 42 45 48 51 54 57 61 66 70 70 68 65 66 67 64 60 58 57 54 53 55 50 48 50 56 58 51 45 44 45 46 45 49
10 12 15 19 23 27 28 30 32 34 38 41 45 47 50 51 48 54 63 69 75 76 72 71 71 69 67 63 62 61 58 57 50 50 48 57 62 63 53 49 47 45 45 46
8 7 8 11 13 16 20 23 28 33 36 39 41 46 47 48 48 48 51 61 74 80 81 77 74 74 72 70 68 68 64 60 56 55 53 51 58 59 54 52 48 42 43 44
8 9 10 12 13 15 18 20 22 27 31 35 41 44 45 50 50 49 45 50 54 67 81 83 80 75 77 75 73 72 71 65 62 59 57 61 62 65 61 61 55 47 43 41
17 17 20 21 20 20 23 25 26 27 26 30 34 39 43 46 51 49 46 45 53 51 60 79 84 81 78 81 79 78 76 73 64 64 58 49 65 67 68 49 28 39 32 41
26 25 24 25 27 27 27 30 30 29 29 29 28 30 36 39 44 48 46 45 47 52 46 56 79 84 83 82 83 82 81 71 69 65 62 66 63 58 50 39 32 34 36 41

GFSCGP_500_spd_081.txt.gz
Wind_Speed
29 27 23 28 29 31 29 25 22 23 20 19 14 13 10 6 6 16 19 11 12 14 15 19 19 17 16 15 16 20 20 20 20 14 10 9 10 10 12 13 12 11 13 12
30 27 29 31 32 31 31 29 27 25 22 20 17 13 12 8 6 5 14 13 6 9 12 15 17 19 19 20 18 20 21 20 18 14 10 11 10 11 14 15 13 11 12 12
25 29 32 30 29 29 29 30 30 29 25 21 20 16 15 12 10 10 17 17 16 13 14 16 17 23 21 19 20 21 23 21 18 16 13 12 12 12 15 15 15 12 13 12
29 30 29 31 29 28 27 28 31 31 29 24 21 20 18 18 18 16 19 18 17 14 13 14 16 20 23 24 23 22 23 22 18 17 16 14 11 12 14 17 17 14 12 12
28 28 28 27 27 29 27 28 30 31 29 27 23 20 22 23 23 24 25 23 15 21 20 17 17 18 23 21 22 24 26 22 19 19 16 15 13 15 15 17 17 16 14 13
30 30 30 30 29 29 32 30 29 29 28 28 27 24 24 25 26 29 26 23 26 24 24 25 24 24 22 20 21 23 25 25 22 20 16 15 15 16 17 18 18 17 16 14
32 32 32 32 33 32 31 32 32 31 30 28 26 29 28 24 24 27 25 22 19 19 21 30 25 21 21 18 20 21 24 26 25 24 19 18 17 18 17 18 18 18 15 14
32 33 33 34 33 32 32 31 33 35 30 26 24 29 30 27 24 24 22 18 19 16 14 27 26 26 24 22 21 22 24 27 27 24 22 20 19 19 20 19 18 17 15 13
35 35 35 35 34 34 34 34 34 33 29 28 32 30 29 29 27 28 26 21 16 13 13 22 23 22 22 23 24 24 23 25 29 28 24 21 21 21 22 21 20 19 17 14
35 35 37 36 35 36 35 35 37 34 34 35 35 32 32 29 29 27 26 25 20 14 23 19 18 21 23 25 26 27 29 27 28 32 30 25 24 23 22 22 21 20 19 18
32 34 36 36 38 37 37 38 37 37 37 37 35 33 29 29 30 30 29 29 24 22 20 18 19 20 25 26 28 29 30 31 30 30 34 30 27 26 24 23 23 21 20 19
29 32 34 35 36 37 37 38 38 38 39 38 36 33 32 30 29 31 32 32 29 26 26 21 18 21 25 30 31 30 30 34 33 33 33 35 32 28 26 24 25 23 21 21
22 27 30 34 35 36 36 37 38 37 39 39 38 37 33 32 32 32 31 31 32 32 31 29 27 25 24 28 29 31 31 32 36 35 33 34 36 33 30 29 28 26 24 22
29 26 29 33 35 35 36 37 38 38 39 38 40 37 35 35 34 34 35 35 35 34 33 33 36 32 34 29 30 31 32 32 31 33 35 34 35 35 34 34 33 31 29 27
26 34 34 34 36 38 38 37 38 39 40 41 41 41 40 39 38 37 38 38 37 38 38 35 34 37 41 39 36 34 38 36 34 31 33 35 35 36 39 38 36 34 33 31
27 28 32 36 34 31 32 36 36 36 37 39 40 41 41 42 41 40 40 39 41 41 41 41 40 38 41 47 43 40 39 38 40 36 34 34 34 39 40 41 42 40 36 35
32 29 27 28 31 34 35 35 36 36 35 36 38 38 39 40 40 41 42 43 44 45 45 45 44 43 45 50 47 44 41 38 43 45 43 42 38 36 42 43 42 42 42 40
28 27 27 26 26 27 27 30 33 35 37 39 38 38 40 40 40 41 42 44 45 48 49 49 49 48 50 54 53 49 44 44 43 48 42 41 43 42 41 42 44 42 43 43
28 30 31 30 29 30 28 27 30 31 33 34 34 35 36 39 41 42 45 47 49 49 52 54 55 55 53 56 59 56 51 47 47 46 46 41 43 48 46 43 40 42 45 44
25 27 28 29 29 30 29 33 34 35 36 36 37 38 40 41 42 44 45 45 46 51 54 57 62 61 60 59 61 60 60 55 55 51 49 47 49 52 53 50 45 42 43 44
22 24 25 29 31 31 31 32 35 37 38 40 41 41 42 45 46 48 50 52 52 53 56 59 61 67 70 67 66 64 62 61 61 61 51 54 52 46 57 55 51 45 46 43
18 19 21 23 25 29 30 31 33 35 38 41 44 44 44 45 48 50 52 54 56 59 62 64 65 67 70 75 74 71 67 63 61 62 59 56 52 50 51 60 59 53 51 45
11 12 15 16 16 19 21 23 27 29 32 35 37 41 43 45 47 48 51 54 57 58 60 65 71 72 72 75 77 79 75 71 67 65 63 60 57 52 49 53 59 60 55 50
8 9 11 12 12 13 14 15 15 17 19 22 25 31 33 40 46 49 50 51 55 61 56 52 59 74 77 79 78 80 83 79 75 72 67 64 60 54 54 50 56 60 61 56
19 17 18 19 17 18 19 20 20 20 24 26 25 25 32 33 35 38 45 52 52 55 61 59 53 57 79 83 84 83 84 86 82 79 74 69 63 59 57 56 54 56 61 61
25 26 28 29 28 26 24 26 26 28 28 29 33 36 36 39 38 36 39 44 51 52 55 58 56 52 57 79 88 88 88 86 87 85 80 76 70 66 62 62 58 58 54 67

GFSCGP_500_spd_084.txt.gz
Wind_Speed
31 30 33 30 31 38 29 25 26 24 20 17 14 10 9 5 6 16 21 18 16 18 19 20 18 18 17 18 19 19 18 17 17 11 8 8 10 9 11 10 11 11 11 11
33 30 32 36 36 30 29 29 26 24 21 20 18 13 10 7 6 12 22 19 17 15 16 19 18 19 19 19 19 20 20 19 16 10 9 9 10 10 11 11 12 12 12 11
31 34 35 33 35 32 32 30 30 27 22 20 21 16 15 11 14 18 20 21 17 16 17 20 20 20 18 18 20 22 22 20 18 14 12 10 10 11 13 13 13 14 12 11
34 35 35 34 31 32 32 36 32 29 24 18 22 16 18 16 22 20 21 19 22 19 17 21 24 21 20 21 20 21 24 21 19 18 14 11 9 11 13 14 13 14 13 11
35 34 35 34 32 30 33 34 34 33 29 24 23 17 25 23 23 25 21 18 16 15 17 19 20 21 20 19 19 20 24 23 21 21 16 13 12 13 15 16 15 14 14 13
37 37 35 33 36 35 31 32 31 29 29 29 25 23 28 30 27 27 22 20 16 14 18 19 22 24 23 21 20 20 23 24 22 21 18 14 14 15 15 16 16 16 15 14
35 38 36 35 35 37 35 32 30 29 30 21 29 31 27 32 30 26 22 21 19 18 20 23 19 20 22 22 20 19 21 25 24 21 19 17 17 17 16 16 16 15 15 15
36 38 38 38 38 35 34 34 27 27 26 24 29 36 34 31 29 29 26 25 19 15 19 22 22 24 22 24 23 21 21 23 26 23 22 19 18 18 18 18 18 16 15 14
29 38 38 36 36 35 35 36 32 24 23 20 29 43 34 33 31 25 24 24 20 17 18 13 30 21 21 23 25 23 22 23 27 27 23 21 22 20 20 20 20 18 18 16
34 36 36 37 38 39 38 36 35 32 27 26 32 31 39 36 33 29 25 25 19 19 15 19 23 22 20 23 27 26 26 25 28 31 28 26 24 22 20 20 22 21 18 17
33 33 35 35 39 42 40 38 37 30 30 26 28 34 35 30 31 30 28 27 24 22 19 25 23 25 22 21 24 26 27 29 29 29 32 28 27 26 24 23 23 23 22 20
34 35 34 37 34 36 39 41 42 39 37 33 27 37 31 31 31 31 29 28 28 26 22 24 16 13 16 24 24 26 29 31 31 32 32 33 31 29 27 25 25 25 25 24
33 35 34 34 35 36 38 40 40 40 38 31 29 35 32 31 30 30 31 32 32 33 29 26 22 18 20 18 22 26 28 30 34 34 33 33 34 32 30 29 28 28 28 26
36 35 35 25 31 37 38 39 40 41 39 27 34 39 38 35 35 34 32 33 35 38 37 33 31 28 28 23 24 25 28 30 32 34 35 33 33 35 35 34 32 30 30 29
31 34 35 38 41 41 39 39 41 45 46 42 39 44 41 38 38 38 37 38 39 40 40 40 40 36 35 35 31 29 28 31 34 32 32 36 36 35 36 38 36 34 31 31
23 28 37 36 39 39 42 42 43 44 43 46 49 44 41 41 41 42 43 43 43 43 43 44 44 42 40 41 40 35 36 33 32 33 32 34 36 36 36 35 37 38 36 34
28 25 25 32 34 33 34 38 41 43 44 46 44 48 44 44 44 43 43 44 45 46 45 46 46 45 44 42 43 44 42 40 40 40 37 37 39 37 36 39 38 37 39 39
32 31 27 27 27 32 38 37 35 38 40 41 43 42 44 44 45 46 46 46 48 47 48 49 49 49 48 47 45 46 47 48 46 43 43 37 41 39 37 39 38 40 41 41
25 31 32 29 27 29 27 30 36 39 41 40 41 40 39 41 42 45 45 47 49 51 52 52 51 52 52 52 51 50 50 50 52 49 46 41 43 46 48 48 40 39 38 42
24 24 26 29 31 31 31 27 27 30 36 37 39 39 41 42 43 49 45 46 48 50 53 55 55 56 56 56 56 54 54 53 55 53 51 50 49 49 51 42 40 44 42 41
26 27 29 31 33 35 32 33 35 35 35 34 35 36 37 38 39 42 39 42 43 45 48 52 56 59 61 61 61 60 60 59 59 59 58 54 52 50 45 46 45 41 45 45
23 26 28 31 33 36 35 35 36 35 35 38 39 40 40 41 41 43 44 45 46 48 49 50 52 56 61 64 66 66 65 64 65 65 64 62 59 56 53 50 47 44 48 45
14 17 22 25 27 27 29 34 35 36 35 37 38 41 44 46 48 49 51 52 53 54 54 54 55 56 60 63 66 70 71 70 69 68 70 70 67 64 62 59 56 50 50 48
7 9 13 15 16 18 20 23 26 28 30 31 33 35 36 37 40 44 48 51 54 56 57 58 60 62 62 65 67 68 72 75 76 74 72 73 72 71 68 64 62 59 55 52
16 15 16 15 17 18 19 20 21 23 24 25 26 26 25 22 21 23 30 37 44 53 59 61 62 64 66 67 68 71 73 75 78 81 81 79 77 74 73 71 68 67 63 58
27 27 27 27 25 24 24 24 23 25 26 26 27 29 33 34 34 35 35 35 36 40 51 57 63 65 65 65 68 72 72 70 75 81 85 86 84 81 78 73 73 71 67 61

GFSCGP_500_spd_087.txt.gz
Wind_Speed
33 38 37 33 29 23 18 18 21 21 21 12 9 15 9 6 9 25 28 24 19 18 17 17 16 16 16 16 18 18 16 14 12 8 5 4 4 5 7 7 6 7 7 7
37 34 36 36 35 37 28 24 16 20 22 16 21 17 15 9 10 17 21 20 21 18 18 17 17 17 16 16 19 19 18 15 12 9 8 6 6 4 6 7 7 10 9 9
35 34 36 40 40 34 31 26 28 22 21 18 19 19 15 16 14 15 18 24 24 20 19 19 19 18 16 17 19 21 20 17 14 11 10 9 7 6 7 8 8 10 11 11
35 41 40 39 38 33 31 26 29 18 21 17 15 16 19 18 17 17 20 18 23 22 21 22 20 19 18 19 18 20 21 19 16 14 11 7 6 7 8 9 9 10 10 12
38 43 41 38 34 34 24 32 29 29 19 16 18 30 26 27 21 19 23 17 22 19 18 22 22 21 21 18 16 16 19 19 18 16 12 8 8 9 14 11 10 9 9 9
29 41 39 38 35 32 32 34 38 28 23 24 19 20 21 22 23 24 21 22 17 15 14 20 23 23 21 18 17 14 16 20 19 18 15 10 11 10 11 11 11 10 8 8
42 41 40 42 39 39 39 34 28 28 27 22 20 24 39 19 26 26 28 20 16 12 12 19 20 20 21 19 17 15 14 17 21 20 18 14 13 12 13 13 12 11 10 10
35 37 44 44 36 38 37 31 25 22 25 23 17 31 43 37 27 31 26 19 20 16 16 15 16 20 21 21 19 18 16 16 20 23 20 16 15 14 15 16 14 12 11 11
23 23 43 44 45 44 39 36 23 18 18 22 30 43 41 42 30 30 28 25 23 18 15 19 18 21 22 21 24 23 20 19 19 24 22 19 17 18 17 17 18 15 13 12
27 32 38 42 41 39 40 34 31 27 24 27 32 34 38 39 31 33 31 28 23 21 22 22 20 17 37 23 26 27 24 22 23 24 26 22 20 21 19 19 19 18 16 15
31 25 36 40 43 40 38 40 35 29 20 31 20 23 44 37 34 33 30 25 23 24 20 20 25 28 33 27 26 25 27 24 23 24 26 26 23 23 21 21 20 20 19 18
37 32 23 30 42 43 46 32 36 30 30 26 25 36 41 26 31 35 34 30 27 26 25 23 29 21 19 28 26 18 28 27 25 26 25 27 28 25 23 23 22 21 21 20
38 29 22 31 36 40 41 42 42 29 24 29 30 34 25 30 34 34 35 35 33 31 30 28 27 23 26 26 26 21 26 29 28 27 27 27 28 29 26 26 24 23 23 22
39 30 24 21 20 28 38 44 45 45 32 20 30 38 30 35 32 36 35 37 37 35 35 34 34 32 31 24 22 20 24 25 25 24 23 28 29 28 31 30 28 26 25 24
34 38 37 37 39 37 38 41 43 44 39 25 33 41 48 41 37 34 35 37 39 39 40 40 37 35 32 28 24 25 21 24 27 28 30 30 31 32 30 32 33 31 28 26
25 38 37 40 41 44 42 42 41 45 48 39 31 41 50 47 42 38 37 39 39 40 44 44 44 43 39 37 34 29 28 28 26 29 30 31 29 27 32 31 31 35 34 31
21 22 35 35 41 42 45 46 43 44 46 43 37 55 46 41 44 43 40 40 41 43 44 45 45 45 45 43 42 40 39 36 33 30 30 33 32 32 32 32 33 32 33 36
26 25 25 29 39 44 39 44 43 49 48 49 55 57 51 49 46 41 44 43 44 45 45 45 46 47 47 47 47 47 45 44 43 39 36 37 39 38 36 35 35 35 35 36
28 26 27 27 28 23 40 41 41 42 47 43 51 53 50 47 49 48 48 47 47 48 48 49 49 49 50 49 49 49 50 49 48 47 46 45 44 41 42 38 37 37 37 39
22 25 30 29 31 23 27 31 32 39 44 43 46 47 46 46 47 53 48 51 51 52 52 52 52 52 51 51 52 52 51 51 51 50 49 49 49 44 43 37 40 39 41 40
24 24 24 26 29 31 36 26 26 29 35 42 43 46 45 49 50 52 46 47 50 53 54 54 55 56 56 55 54 54 54 55 54 55 54 52 51 51 49 45 43 44 44 44
29 29 28 28 30 33 30 30 33 35 34 36 33 35 39 42 44 49 50 48 48 51 53 55 56 57 58 60 59 59 59 58 58 58 58 58 56 55 54 51 48 50 49 43
25 30 34 35 38 35 35 36 35 37 38 39 39 38 40 39 40 42 44 42 43 43 44 47 51 55 58 60 62 63 64 64 64 63 62 62 62 61 60 58 56 55 53 53
16 21 26 29 34 35 37 38 39 41 42 42 41 40 41 42 43 44 46 45 46 47 48 49 50 51 53 57 60 62 64 68 70 69 69 67 66 67 67 65 64 62 62 58
19 17 18 21 24 28 30 32 32 34 36 38 40 41 41 43 44 46 47 47 49 51 52 53 54 56 57 59 60 61 63 64 65 69 72 72 73 72 71 72 71 69 68 66
28 28 26 24 23 22 23 22 23 25 27 29 31 33 34 36 39 41 41 42 43 45 43 44 45 46 51 57 62 64 66 67 68 68 69 73 76 77 77 77 75 76 74 73

GFSCGP_500_spd_090.txt.gz
Wind_Speed
32 36 38 31 29 23 19 13 18 20 22 19 18 14 12 9 12 26 24 20 18 18 18 18 14 14 13 14 15 14 12 9 6 3 2 2 3 3 5 5 5 7 8 4
37 35 34 34 31 28 25 21 29 26 19 31 24 25 17 12 13 12 26 25 20 19 17 18 16 15 14 14 16 16 14 11 7 5 3 2 2 2 4 4 5 7 9 7
37 31 33 36 34 34 36 28 25 28 28 15 17 13 19 13 12 10 14 29 22 22 17 17 18 16 15 15 15 16 16 12 10 6 3 3 2 2 3 6 4 5 7 5
36 35 34 38 38 40 33 28 31 29 12 11 16 19 9 13 16 15 15 17 21 19 18 19 20 18 17 16 13 14 17 15 12 9 5 3 6 5 6 7 4 2 4 4
35 39 39 38 40 36 36 18 21 23 11 17 23 26 23 26 25 21 18 17 19 24 20 20 20 19 18 16 15 13 15 17 15 13 9 5 4 2 1 6 6 4 4 4
37 38 34 43 39 38 38 33 30 20 19 27 28 25 31 35 28 21 20 16 15 21 22 19 19 20 18 17 16 14 13 16 16 14 13 9 5 4 6 7 6 7 5 6
35 26 33 44 38 35 44 41 29 29 28 23 18 15 36 32 23 27 18 20 23 22 17 16 14 17 18 17 18 17 15 15 17 16 16 13 9 8 7 8 12 9 7 6
36 27 37 40 38 33 42 41 31 31 24 19 15 31 43 44 6 27 17 23 25 27 18 13 13 14 14 17 19 19 17 16 16 18 16 13 12 11 12 10 9 9 10 8
22 24 26 30 39 37 36 45 33 19 21 17 30 38 43 43 27 23 21 25 21 8 11 12 16 17 20 20 21 21 22 20 19 19 19 17 15 14 13 12 11 11 13 14
33 28 31 37 45 44 36 35 38 34 26 24 32 38 46 41 30 26 27 27 22 24 23 25 29 26 27 25 26 24 22 22 23 22 21 21 17 16 14 13 14 16 18 18
29 27 27 38 43 44 40 39 42 27 21 24 20 29 33 49 33 33 33 30 29 27 25 25 30 38 32 20 26 32 27 26 22 22 21 23 21 18 15 14 15 17 20 14
35 24 22 22 36 42 38 34 42 37 38 31 35 39 42 42 32 26 31 31 30 30 28 23 24 21 26 18 25 46 31 31 31 27 23 22 24 20 18 16 16 17 20 17
43 29 8 16 33 41 48 44 42 32 31 29 30 32 40 18 24 20 29 35 34 33 29 29 28 25 28 23 30 36 46 40 28 20 22 24 24 24 22 20 17 16 18 20
42 35 22 24 21 25 40 42 45 42 34 21 37 34 35 23 18 23 27 36 38 37 34 34 34 30 26 24 18 18 19 23 23 31 26 20 24 24 26 25 22 20 19 19
47 36 31 29 29 28 26 39 42 49 50 28 21 34 36 26 25 24 23 34 38 40 40 39 40 38 34 24 21 17 16 16 22 21 20 31 20 25 22 23 27 26 23 22
46 46 41 38 27 35 33 29 41 46 51 21 34 25 41 47 32 31 28 30 38 41 43 42 41 40 37 34 30 27 24 21 16 23 25 28 27 25 24 25 25 27 28 27
43 39 46 44 35 36 41 43 44 44 47 27 39 35 39 47 38 40 41 35 36 42 44 44 44 44 43 40 39 37 33 29 25 24 21 27 28 25 24 24 25 28 29 30
19 27 44 41 29 39 36 40 40 42 36 39 45 53 41 42 40 32 40 44 40 41 43 45 46 47 46 45 43 42 41 39 37 34 30 29 27 27 30 30 28 28 30 31
22 24 28 24 33 31 40 46 38 34 35 40 51 53 54 61 56 51 40 37 38 45 44 45 47 47 46 47 47 46 45 44 42 41 40 38 36 34 32 32 33 32 30 30
21 23 26 27 27 24 24 35 46 45 34 46 45 51 57 58 55 52 49 50 49 47 46 49 49 50 49 49 49 49 48 47 45 45 44 44 42 41 41 39 38 36 38 39
21 21 23 28 28 27 31 29 30 33 36 47 49 49 53 56 58 58 53 52 53 53 52 52 52 52 52 51 52 52 52 51 50 49 48 48 48 46 45 44 44 43 42 43
27 26 26 27 25 26 39 39 37 35 32 42 46 51 53 50 48 56 57 53 51 53 54 54 55 55 55 55 55 54 53 52 52 52 52 52 52 52 52 49 48 47 45 42
22 29 33 33 33 34 34 31 33 32 34 35 34 37 34 34 39 51 52 52 53 52 52 54 55 57 59 58 59 59 58 57 57 56 55 55 55 55 55 56 56 54 51 49
19 25 26 30 36 37 37 35 31 32 35 37 40 40 41 40 37 40 44 42 44 44 47 51 54 56 57 58 59 61 63 63 62 61 60 60 60 60 60 59 59 59 59 57
26 23 23 27 32 34 36 38 39 39 39 39 40 42 43 42 42 42 43 44 43 44 44 45 46 48 51 53 55 56 58 60 62 64 64 64 65 65 64 64 64 63 62 63
31 32 30 27 30 29 31 34 35 36 37 39 39 41 42 43 44 45 45 46 45 45 46 46 47 48 49 51 53 54 56 57 59 60 62 64 66 68 69 70 69 68 69 68

GFSCGP_500_spd_093.txt.gz
Wind_Speed
37 37 36 28 24 22 19 14 16 27 30 21 13 13 11 7 5 21 22 14 14 13 14 15 13 11 9 10 11 9 6 4 3 3 6 7 9 8 9 10 10 8 9 9
36 36 34 31 28 26 25 20 24 23 27 29 27 21 17 11 10 13 18 19 14 13 12 12 14 14 13 11 11 12 9 7 4 5 4 6 9 7 6 8 9 11 11 11
38 31 34 35 33 32 30 30 30 24 30 29 18 15 20 17 14 17 19 26 24 17 14 11 14 15 15 13 12 14 12 10 7 4 2 4 4 7 5 4 8 11 10 11
36 34 36 34 36 35 33 32 27 29 23 27 27 16 25 22 15 14 16 11 21 19 13 12 12 15 17 15 13 14 13 13 10 7 4 3 8 4 4 1 4 6 11 12
35 38 40 37 35 36 33 29 20 24 18 20 22 23 12 10 17 17 14 15 20 17 15 16 14 15 19 17 15 14 15 14 12 10 6 5 5 7 4 3 5 3 6 9
34 35 39 37 34 38 34 22 26 28 23 32 18 22 3 18 21 21 24 20 20 19 19 20 18 16 16 17 16 15 16 14 13 12 10 6 5 9 9 6 4 5 2 5
34 38 36 38 36 40 46 35 31 33 28 27 18 20 21 19 18 23 24 27 22 21 21 23 19 17 16 15 16 16 16 16 14 15 12 10 7 7 8 8 7 4 3 4
37 39 39 39 44 40 49 38 29 23 18 14 11 25 27 23 23 27 28 27 22 19 20 20 20 20 20 20 19 18 19 19 16 17 16 13 10 10 10 12 11 7 4 5
28 29 26 36 37 35 47 48 39 19 16 19 20 26 28 19 25 26 28 14 20 15 21 23 20 24 20 18 20 22 23 23 21 20 19 17 14 12 10 9 10 10 10 4
30 32 29 24 27 39 50 52 41 35 23 24 25 29 33 29 25 25 25 24 7 13 18 29 26 26 22 21 22 25 24 25 24 23 21 20 17 15 13 11 12 12 12 9
34 37 28 21 29 40 44 49 48 38 35 31 29 28 30 34 32 28 26 25 21 18 21 25 21 29 31 24 20 26 24 24 24 25 24 23 22 19 16 13 11 13 14 13
42 30 36 31 25 29 41 42 48 43 33 35 31 29 27 30 23 21 25 27 24 24 21 21 19 20 26 29 34 37 24 29 32 27 24 23 24 22 20 17 14 12 12 15
37 35 32 31 29 34 40 38 47 48 40 36 35 34 38 31 33 23 31 25 25 26 26 26 23 23 23 15 17 18 24 28 36 30 27 24 24 26 24 21 16 14 14 14
41 33 27 30 24 30 40 46 43 48 48 38 32 35 40 29 27 28 38 36 29 31 30 30 26 24 23 23 16 16 17 27 32 36 27 24 27 28 29 25 21 18 18 18
42 34 28 28 26 28 34 41 40 44 44 43 36 31 30 21 20 25 29 33 28 31 30 31 29 28 26 23 20 17 17 17 16 30 36 29 33 29 27 28 26 24 23 21
41 44 44 33 26 28 30 34 47 47 38 53 41 23 21 25 22 22 23 27 26 29 31 32 34 33 31 30 29 26 23 18 16 16 20 26 27 18 26 38 28 26 26 25
39 49 34 31 34 30 28 35 39 51 43 58 55 47 29 22 19 26 25 22 20 22 29 33 36 38 38 36 35 34 31 29 25 19 18 18 18 17 21 16 26 24 25 26
40 49 53 44 36 34 34 35 40 44 44 54 57 57 50 28 22 20 27 29 31 29 26 30 35 38 40 39 36 34 32 30 30 29 28 22 19 18 11 19 23 23 22 25
19 40 50 51 50 46 40 39 34 27 34 47 49 57 63 52 40 22 31 32 33 32 34 33 32 36 40 41 39 38 37 37 35 35 33 33 32 28 25 23 20 20 25 25
21 23 25 25 51 44 48 45 37 26 38 42 47 48 57 56 55 50 43 34 28 29 31 33 35 39 41 41 42 40 39 40 41 41 41 39 38 36 34 32 29 28 27 27
20 20 21 24 27 34 33 46 40 33 40 44 48 46 47 51 55 55 51 52 53 50 50 49 49 46 43 44 47 47 44 42 44 45 44 43 42 40 40 38 37 35 34 34
22 24 24 23 29 35 37 31 32 32 33 40 47 53 53 51 52 53 54 55 54 54 52 51 52 52 52 51 51 51 49 47 46 46 47 47 46 46 45 45 42 40 40 40
20 22 24 30 31 32 34 35 39 32 29 33 37 38 40 48 52 52 51 51 52 54 55 55 56 57 56 54 54 54 53 52 51 49 48 48 48 48 49 49 49 49 47 46
20 21 21 24 29 36 35 32 32 37 40 43 43 41 42 39 39 41 43 47 50 49 52 54 55 56 58 58 59 58 56 56 55 54 53 53 52 51 52 52 52 51 52 52
27 27 23 23 25 29 33 36 36 34 33 33 35 40 43 42 42 39 37 40 38 39 41 43 47 51 53 54 55 56 57 57 57 57 57 56 55 56 56 56 56 56 56 56
27 32 30 29 31 29 33 33 32 35 37 37 37 38 41 43 42 41 40 41 44 44 44 41 41 43 44 45 48 50 51 51 52 53 54 55 56 56 56 57 58 59 59 60

GFSCGP_500_spd_096.txt.gz
Wind_Speed
42 38 33 28 23 23 22 24 23 18 16 20 12 10 8 4 6 16 19 13 9 7 13 14 14 10 8 6 7 4 3 4 4 6 6 8 11 12 10 11 8 12 11 14
42 39 29 29 27 25 25 28 24 21 25 15 15 16 12 10 9 13 19 15 12 8 7 10 9 11 11 9 7 7 5 5 3 3 6 6 9 11 10 9 10 10 13 11
40 29 37 35 33 31 28 30 30 26 18 23 17 25 21 17 16 17 22 23 16 13 11 12 12 12 13 11 10 9 7 6 5 3 4 5 8 9 9 8 9 10 11 11
37 37 37 39 38 34 31 30 31 25 21 21 22 24 16 17 21 16 15 19 18 12 14 13 12 12 14 14 12 10 10 9 7 4 3 5 8 7 7 9 8 5 9 12
33 39 38 39 39 37 30 29 27 23 17 19 13 20 20 21 25 18 15 18 15 18 18 15 14 14 16 17 16 13 13 12 10 8 4 3 4 7 7 7 8 8 4 9
38 35 37 34 40 38 34 33 31 24 24 21 13 9 10 18 24 17 16 14 17 17 21 19 19 17 16 15 16 15 14 14 13 12 9 5 4 6 9 9 9 7 7 8
35 40 39 38 40 41 45 36 34 29 26 20 17 20 15 19 13 19 18 19 18 22 23 21 18 16 17 18 18 17 15 16 16 15 13 11 8 8 7 8 10 8 7 8
35 38 38 38 41 42 48 40 37 35 21 14 20 22 17 17 13 19 10 14 21 18 21 25 23 20 18 21 21 19 18 17 19 19 18 16 13 11 8 8 7 9 9 8
34 36 33 37 43 45 49 42 39 35 23 19 29 24 21 20 17 8 8 11 18 27 25 22 23 25 21 23 24 22 22 21 20 22 22 19 17 14 11 11 10 10 8 6
35 36 35 33 36 38 50 46 40 35 33 26 25 19 20 20 17 15 9 11 15 29 29 22 22 25 24 22 28 24 22 21 22 21 24 24 22 18 15 14 13 12 13 12
36 33 34 35 38 37 44 49 45 39 35 24 19 26 26 24 23 20 14 14 12 9 9 10 21 27 21 22 25 22 23 24 23 23 21 21 24 22 19 18 17 17 16 14
36 33 37 37 32 31 40 44 49 43 38 32 25 30 28 29 27 26 21 21 19 16 15 14 15 27 25 28 36 28 28 27 24 25 25 24 26 27 23 21 20 20 19 19
39 35 39 37 36 34 34 39 48 48 46 38 41 44 34 31 28 33 29 30 24 21 19 16 17 23 22 25 41 37 39 33 30 26 28 26 27 28 29 25 24 23 22 22
36 37 35 39 39 36 38 39 44 49 49 48 42 46 42 37 35 25 27 24 23 21 18 20 21 21 18 16 18 16 20 18 31 32 32 29 29 28 33 29 26 25 26 25
36 35 33 39 39 37 35 37 46 47 51 51 48 43 41 39 39 35 24 18 24 22 22 23 24 22 21 18 14 14 13 6 8 13 33 25 32 31 35 36 32 28 25 26
40 31 38 39 40 41 38 36 45 45 45 55 53 52 39 36 35 25 26 26 18 23 25 25 24 24 25 23 18 19 18 16 16 13 22 27 38 33 33 34 36 33 29 28
36 36 29 39 40 35 30 32 42 48 45 46 50 55 53 32 25 19 18 23 24 24 21 24 26 27 25 24 25 24 23 21 21 22 17 15 31 34 33 31 32 34 34 32
30 33 39 32 41 39 34 31 36 48 51 48 50 53 53 52 24 18 21 22 23 25 22 21 25 28 28 27 26 27 26 26 25 25 25 23 18 19 19 17 27 25 41 38
28 33 40 39 41 39 44 30 38 42 44 46 50 49 52 51 46 45 34 26 30 29 28 26 25 24 25 26 28 29 29 29 28 27 27 24 25 28 19 19 15 23 30 39
18 24 31 39 50 52 38 28 33 41 41 38 40 48 52 50 47 42 32 26 29 26 30 33 33 32 30 28 27 28 27 30 31 30 30 30 28 24 24 26 26 23 21 20
18 22 22 22 36 44 55 55 44 40 42 43 42 41 47 50 45 37 39 36 31 30 31 31 32 34 35 36 36 32 30 30 33 35 34 35 35 33 30 28 28 28 28 29
22 22 24 25 27 32 37 37 43 47 41 37 43 45 44 44 44 45 45 45 46 46 48 46 47 48 47 45 43 42 40 39 38 37 39 39 39 39 38 36 35 33 31 32
21 20 24 26 26 27 27 28 34 38 48 44 40 38 40 43 45 45 44 41 42 43 44 46 47 47 49 49 48 48 47 46 44 42 41 41 42 42 43 43 42 42 41 39
19 18 17 19 26 29 29 26 31 35 33 32 41 47 45 44 43 40 40 44 50 52 51 51 51 51 52 53 53 52 50 49 47 46 45 44 45 46 47 47 47 46 45 44
24 23 23 23 23 25 29 29 30 31 36 38 42 44 44 42 42 43 41 37 37 41 46 48 49 49 50 51 52 52 52 52 51 49 48 47 47 47 48 49 51 51 52 50
25 26 27 27 28 29 28 26 28 33 35 36 39 42 43 42 43 43 42 41 40 38 39 41 40 38 40 42 43 43 46 46 48 49 50 49 48 46 45 47 49 50 52 54

GFSCGP_500_spd_099.txt.gz
Wind_Speed
38 36 33 25 24 26 22 22 27 17 19 22 11 6 8 5 11 11 16 13 13 17 20 17 16 16 15 14 11 8 8 6 6 5 8 9 11 14 12 14 14 12 13 15
42 36 29 26 25 26 25 28 24 22 15 12 14 9 12 8 10 12 11 15 11 12 16 17 17 17 15 15 13 10 9 8 6 6 8 8 9 11 13 14 14 15 13 13
38 34 33 32 32 29 27 28 28 25 27 15 21 10 17 12 8 14 14 20 17 14 16 17 17 14 14 15 16 13 10 8 7 6 6 8 9 11 13 13 14 13 13 14
37 38 40 38 35 34 29 25 27 28 26 24 21 20 18 23 15 17 17 20 20 17 16 16 17 18 15 13 13 14 12 9 7 5 4 7 7 8 11 12 11 12 12 12
36 40 40 40 36 36 29 31 33 30 28 27 21 15 17 15 14 21 22 19 27 21 17 16 15 16 16 14 12 15 14 12 9 8 4 5 5 7 9 12 11 11 12 9
37 41 42 40 37 36 37 41 37 32 29 28 16 13 7 14 20 21 25 22 21 19 20 20 17 15 15 12 13 13 15 15 13 11 8 5 3 5 7 11 10 10 12 11
37 41 40 41 42 42 45 43 38 36 31 23 21 19 14 10 15 16 19 19 20 17 15 22 17 15 11 15 16 15 16 17 17 15 13 10 7 7 7 9 10 10 10 12
37 39 37 41 41 41 44 45 42 41 33 26 28 22 18 16 17 20 32 21 21 22 19 22 20 18 16 16 19 19 18 18 19 18 17 14 11 9 10 10 10 10 10 11
36 35 35 38 41 40 44 46 43 36 34 28 32 21 20 20 16 12 23 26 16 22 22 25 28 26 27 18 19 21 21 21 20 20 20 19 16 15 13 13 13 12 12 12
38 36 36 38 40 41 43 46 43 44 40 37 26 23 24 20 20 17 15 11 26 19 24 24 22 18 24 25 21 21 21 20 20 19 20 21 21 18 16 17 18 18 16 15
39 37 37 35 38 40 42 46 49 43 44 38 34 33 27 27 24 19 14 10 9 13 21 25 22 24 23 20 22 22 21 23 24 23 22 22 23 22 20 19 19 19 19 19
38 36 38 39 38 37 41 44 49 48 43 43 38 32 31 28 23 19 17 14 16 9 11 27 22 23 23 21 24 26 26 30 28 26 27 26 26 25 24 22 22 24 25 22
35 35 36 42 39 37 40 44 48 45 45 45 41 35 30 31 27 23 21 21 21 19 18 18 18 15 27 29 28 32 32 36 34 29 29 30 28 27 29 27 24 24 24 24
35 33 36 38 39 40 39 44 47 52 49 51 45 44 29 22 22 19 21 26 28 29 26 22 18 22 24 24 40 36 34 37 35 34 28 30 32 31 32 32 30 28 27 27
36 36 36 39 39 40 38 39 42 44 51 51 51 47 44 35 36 33 29 34 35 32 26 24 23 23 23 19 19 10 10 14 26 35 28 34 36 35 39 36 35 32 32 30
37 37 40 34 43 43 37 40 40 42 43 46 52 47 50 43 36 32 34 30 32 24 27 27 26 25 25 22 20 15 15 18 14 14 15 27 34 33 33 32 28 38 36 34
36 35 35 35 38 32 36 40 38 36 43 45 48 48 49 43 37 28 25 25 26 29 27 28 29 25 24 23 21 19 19 18 11 16 16 13 15 25 33 34 35 34 40 40
16 31 36 30 35 38 37 38 38 34 38 41 44 45 43 46 45 38 21 22 26 31 33 28 24 24 24 24 22 22 21 19 19 15 18 20 21 20 43 34 40 35 45 46
22 17 37 36 37 35 43 45 45 39 39 41 43 43 44 41 39 37 32 28 25 29 30 26 25 26 26 26 24 23 22 22 20 18 18 20 18 21 22 22 23 32 38 48
17 18 31 36 35 40 35 34 39 35 31 32 37 42 46 45 41 38 39 39 32 25 28 29 26 24 22 22 22 21 21 21 21 21 22 21 21 19 19 27 33 23 15 29
16 17 22 25 29 38 37 35 31 37 35 39 38 38 42 43 42 40 37 35 36 34 36 35 33 28 27 30 32 31 26 22 22 23 23 23 24 25 24 22 19 24 28 28
20 20 21 24 25 28 33 38 42 40 35 38 40 38 35 37 37 36 32 32 35 40 43 45 43 38 36 37 37 36 34 34 35 32 31 31 30 30 30 29 27 25 23 25
19 21 22 24 24 26 26 25 31 41 55 47 40 38 38 42 39 37 35 37 40 40 43 42 38 39 40 41 41 41 42 44 45 42 38 37 37 35 36 36 34 32 30 30
22 21 20 22 26 28 26 27 24 27 35 35 42 46 46 47 42 41 38 40 44 49 52 51 50 50 51 52 52 50 49 48 47 48 45 42 42 42 41 41 40 40 38 37
24 25 25 24 24 24 27 28 26 27 29 33 34 39 43 49 47 45 43 41 41 41 42 42 45 47 48 48 48 47 47 47 47 47 47 47 47 46 46 47 46 46 45 45
22 25 29 28 28 29 28 26 26 31 33 34 36 39 39 38 38 42 42 42 39 36 40 40 41 42 43 45 45 45 46 46 48 48 48 48 48 47 47 47 48 50 50 49

GFSCGP_500_spd_102.txt.gz
Wind_Speed
33 34 31 27 29 29 24 19 18 22 14 20 15 17 15 12 19 26 21 17 23 17 19 20 20 17 14 14 13 12 12 10 12 9 11 11 11 12 13 11 13 12 11 13
37 30 28 31 30 28 23 23 22 26 20 13 22 18 18 13 17 17 21 17 17 16 18 16 22 21 18 16 15 13 11 9 13 11 9 11 11 12 13 12 11 12 12 12
35 32 33 31 32 28 26 23 21 18 22 17 18 14 16 17 16 22 25 20 18 20 17 18 20 20 20 19 17 15 12 12 10 12 8 9 10 13 13 12 13 11 11 11
35 38 37 34 34 31 27 25 23 26 24 24 26 19 13 15 19 20 17 24 19 17 19 18 19 17 18 18 17 18 14 12 11 9 9 9 8 10 12 13 11 11 11 9
38 40 41 38 33 31 29 31 26 26 26 25 20 17 19 18 12 16 6 25 22 21 18 18 20 20 16 17 16 18 18 15 11 10 10 11 9 10 12 14 13 13 12 10
37 40 42 40 36 34 35 35 27 25 27 22 21 17 18 15 18 11 9 17 22 20 19 18 18 20 18 16 16 17 18 18 16 13 10 10 9 9 10 11 13 14 13 13
39 42 42 40 42 44 42 41 37 33 33 26 23 23 20 16 14 20 18 19 16 25 25 22 19 18 19 17 17 17 17 16 16 16 14 10 10 13 12 13 13 14 14 14
39 41 42 43 43 43 43 42 41 39 34 24 28 29 23 19 13 10 11 18 19 25 18 19 24 20 17 18 20 18 17 18 18 18 17 15 11 12 14 14 14 15 15 15
40 39 39 40 40 41 43 45 39 39 35 31 32 25 25 24 17 13 16 15 24 22 24 18 26 23 18 17 18 20 20 18 17 18 19 18 15 12 15 13 15 16 16 17
38 36 37 38 40 42 43 41 43 44 42 38 35 30 25 22 12 14 12 17 17 20 23 25 25 22 22 23 22 17 21 19 17 17 20 21 20 17 15 15 17 17 17 17
40 38 38 38 40 40 41 44 43 43 45 43 35 28 24 22 15 16 15 19 21 26 26 16 26 30 28 23 28 26 21 20 21 24 23 22 23 22 20 18 18 20 19 18
39 37 40 40 41 39 40 41 43 44 45 46 44 38 32 22 19 19 22 19 19 20 19 20 22 29 23 25 22 21 24 25 24 27 27 24 24 25 25 22 20 20 20 20
37 36 38 41 41 40 40 42 43 42 41 44 42 40 37 30 27 24 26 21 20 15 15 16 20 30 27 24 24 24 22 24 27 26 27 27 26 27 27 29 25 23 22 22
33 35 31 39 40 42 43 41 43 43 44 44 43 40 33 31 27 26 24 24 16 16 18 17 21 26 29 32 34 34 37 37 34 33 31 35 29 30 30 31 30 29 27 25
29 33 30 38 40 41 40 40 41 42 44 45 43 42 33 32 27 27 27 18 15 19 19 24 25 25 31 26 34 18 40 29 34 34 33 35 32 35 35 34 33 33 32 29
27 30 32 34 40 44 42 39 37 38 42 44 46 43 38 36 37 28 25 27 27 27 28 29 30 29 30 27 32 22 14 10 24 30 37 30 29 34 33 42 38 36 36 34
26 25 32 35 37 40 40 39 38 36 35 39 44 44 40 39 41 39 31 30 31 25 21 28 29 27 28 27 22 23 13 15 12 20 21 20 29 41 43 33 35 34 46 42
26 28 32 35 40 40 39 44 41 38 36 32 36 38 40 41 41 41 37 38 34 25 20 26 21 24 27 26 28 25 20 20 19 14 13 17 21 22 18 20 30 33 35 38
11 20 46 35 33 36 42 33 38 40 32 33 34 34 35 37 35 37 41 41 36 34 26 27 29 31 31 30 27 25 23 18 20 20 17 16 15 17 22 22 35 36 35 35
12 13 18 25 37 34 28 32 31 32 32 32 35 33 34 33 31 30 31 30 35 34 27 29 31 33 35 34 32 29 25 24 22 19 17 15 16 17 17 16 21 21 22 16
12 14 17 21 29 36 35 34 29 35 36 38 37 37 35 35 35 36 35 33 34 36 38 30 34 34 32 32 32 30 25 21 18 17 17 17 16 17 17 19 17 18 23 25
16 15 15 16 19 26 31 34 33 32 35 34 33 33 33 32 32 32 33 34 33 33 37 41 42 38 40 39 34 32 27 25 26 27 27 22 21 20 21 23 24 20 21 20
14 17 20 20 21 22 24 27 31 32 36 33 35 34 36 33 30 26 29 35 38 38 38 42 44 42 40 44 44 41 36 32 33 33 34 33 31 30 30 29 29 29 26 26
17 18 19 20 23 26 27 27 27 27 33 38 44 44 39 40 34 31 35 35 36 35 38 42 41 41 46 46 48 50 41 37 40 41 41 40 39 40 41 40 37 36 35 34
20 21 22 22 23 24 26 29 29 27 29 33 39 43 46 47 39 39 34 38 44 44 43 41 44 48 50 50 50 48 41 41 45 44 46 50 52 49 46 45 43 41 41 42
19 20 22 24 26 26 26 26 26 28 31 32 35 39 39 45 43 44 39 32 37 35 44 49 51 51 51 50 53 55 54 51 50 50 49 50 49 49 49 49 48 48 48 48

GFSCGP_500_spd_108.txt.gz
Wind_Speed
32 33 33 27 30 28 26 22 18 15 7 16 13 9 14 20 31 29 28 26 25 24 23 20 18 15 13 11 11 11 12 12 12 11 11 12 13 13 13 12 13 14 15 13
33 33 34 37 32 27 24 22 19 15 14 16 17 16 12 18 25 25 25 26 25 23 22 21 18 17 15 12 11 12 12 12 11 11 11 12 13 12 13 13 12 12 13 13
32 33 39 35 32 26 25 23 25 19 21 20 16 20 18 20 24 26 24 25 26 23 26 23 20 19 16 15 12 11 12 11 13 11 11 11 12 12 11 11 12 12 11 11
40 38 34 36 32 30 27 27 25 21 18 22 15 19 24 16 22 22 23 22 23 26 26 25 23 21 20 17 15 13 12 12 12 12 12 11 12 11 11 11 11 11 11 11
41 38 37 37 34 31 33 26 28 23 20 17 14 14 21 25 20 19 28 25 22 27 26 24 25 23 20 20 17 15 13 12 13 13 11 10 11 11 11 9 9 10 10 10
44 41 40 38 38 35 31 31 24 24 20 21 18 17 21 22 9 1 29 28 24 22 25 26 25 22 22 21 20 19 17 14 12 12 12 10 10 11 13 12 11 10 10 11
38 40 43 41 38 37 35 32 30 20 22 18 19 15 17 26 13 1 8 9 29 23 23 24 22 21 23 23 21 21 20 18 14 12 14 12 10 9 10 10 11 11 11 11
36 41 43 44 41 39 37 33 30 25 21 19 18 11 9 5 9 5 7 6 7 28 23 18 22 23 24 22 22 22 22 21 18 15 12 12 12 10 9 10 11 12 10 11
35 38 44 43 43 42 39 40 32 29 18 17 22 16 16 9 9 11 14 11 9 5 21 25 24 23 27 27 25 23 23 23 22 19 17 15 13 12 13 11 11 12 12 11
34 35 40 42 42 42 41 38 35 34 20 18 22 24 17 14 14 14 14 12 19 21 13 11 26 27 24 27 26 25 25 24 23 22 21 20 18 16 15 13 13 13 11 12
33 33 35 38 43 42 44 40 38 28 27 20 21 23 25 18 15 16 17 17 18 26 20 19 24 26 26 28 25 23 26 25 25 26 26 25 23 21 19 17 17 15 14 13
33 32 24 27 38 41 41 42 37 36 29 30 25 20 23 21 18 16 16 15 14 32 25 25 30 27 25 26 27 26 25 22 26 28 27 26 27 26 25 22 19 18 17 16
28 28 26 23 35 38 42 41 40 29 25 26 26 23 20 22 17 21 20 15 11 18 29 29 30 32 26 27 28 27 26 24 26 26 29 28 28 27 28 27 26 23 21 20
23 24 28 22 25 25 37 43 42 37 29 24 24 25 29 24 22 20 19 15 14 14 21 28 27 30 35 30 33 32 28 33 30 31 30 31 31 30 29 28 29 29 26 24
17 24 26 35 31 33 36 38 39 39 34 25 21 26 30 27 32 29 25 22 20 21 25 27 27 33 35 35 31 35 42 40 33 34 32 35 34 27 28 31 31 30 31 30
19 18 24 29 34 37 35 35 37 35 30 35 33 18 29 30 32 35 34 32 27 25 26 28 24 26 31 30 26 36 45 36 27 33 37 36 37 40 33 31 35 32 33 33
20 18 21 19 30 30 33 37 36 38 38 33 27 31 31 28 30 31 31 31 29 26 28 25 21 11 15 21 24 26 26 21 24 28 21 36 43 45 42 40 38 33 34 35
21 20 23 26 27 28 31 31 36 37 38 38 37 35 31 29 30 30 31 32 32 30 31 27 21 22 15 20 27 28 27 21 19 19 20 23 32 37 43 45 42 37 40 38
23 25 19 28 21 29 31 36 35 36 40 38 38 37 33 30 29 30 34 35 36 34 35 38 34 30 24 22 24 28 27 23 18 15 16 14 21 41 25 29 31 39 26 39
23 23 26 23 28 29 34 39 39 38 36 38 37 37 34 30 28 29 33 35 39 43 42 41 40 35 31 25 27 24 21 21 21 19 13 16 17 18 21 20 13 14 18 23
10 11 16 18 30 36 36 36 39 37 36 39 40 37 35 34 34 32 30 35 39 39 41 41 40 38 32 30 29 28 30 28 26 21 18 21 20 20 20 19 19 20 19 17
14 12 13 14 16 19 38 40 37 38 43 42 34 38 36 35 35 33 35 38 37 35 37 39 39 39 37 37 37 36 33 33 32 31 26 27 26 24 25 24 24 24 24 21
13 14 16 18 19 17 21 21 33 37 37 35 36 34 35 34 39 34 36 38 36 36 34 36 41 43 43 40 39 40 39 39 36 35 34 33 31 29 27 26 25 24 22 21
16 16 16 16 18 19 18 18 20 29 38 35 33 35 34 35 37 36 36 38 41 38 36 38 39 44 44 41 41 42 41 38 35 33 34 35 35 35 28 28 29 28 27 28
16 19 21 21 21 20 20 21 22 22 23 29 36 39 37 35 38 39 42 42 42 42 39 41 44 44 45 46 46 45 42 41 41 42 40 37 37 41 37 33 36 38 36 36
12 15 17 20 21 23 23 23 23 23 24 27 29 33 37 39 39 40 41 44 42 36 40 38 36 42 49 51 51 51 48 45 45 46 45 43 43 45 46 43 42 43 46 45

GFSCGP_500_spd_111.txt.gz
Wind_Speed
33 34 32 26 24 25 26 22 18 24 18 16 18 24 30 27 33 32 30 27 24 23 20 18 16 14 12 8 8 9 10 11 12 13 12 11 11 12 12 13 12 12 13 13
36 36 31 27 29 31 21 21 16 17 18 21 20 21 16 31 26 34 32 30 26 25 22 19 17 15 13 11 10 10 10 10 10 11 13 12 11 11 12 13 13 12 13 12
33 32 34 36 37 28 20 21 9 25 18 16 10 12 18 15 32 38 32 30 29 25 22 21 19 17 14 12 12 11 11 11 10 9 10 12 11 10 10 9 11 11 12 12
35 27 36 42 34 26 24 28 22 23 32 18 14 13 30 19 28 30 32 29 28 26 26 24 20 17 16 15 12 12 11 12 11 11 9 11 10 10 10 10 9 9 10 10
35 30 39 36 30 33 40 28 15 9 16 20 9 21 3 19 32 32 28 24 28 27 26 25 22 20 16 15 14 12 11 12 12 11 11 11 10 10 10 10 10 9 8 8
23 40 37 31 31 36 39 27 28 21 15 16 23 11 12 11 26 18 27 27 26 31 27 22 24 22 21 17 17 15 13 12 12 13 11 11 12 10 9 8 8 8 8 7
40 38 37 34 30 43 36 28 22 19 15 12 7 16 21 21 15 8 9 29 29 25 29 28 25 27 25 22 20 18 16 14 12 12 11 12 11 10 10 10 8 7 7 7
31 31 37 37 34 31 34 31 16 19 12 16 18 8 14 8 30 1 1 9 24 27 24 28 28 27 29 25 22 21 19 17 14 12 11 11 10 9 8 9 3 10 9 7
18 20 27 38 39 32 29 36 29 17 19 9 6 12 14 8 7 7 9 7 4 9 27 27 25 25 27 24 22 23 21 20 18 15 13 13 12 11 10 9 14 10 10 9
20 20 25 31 41 41 34 24 31 27 14 12 15 18 14 18 19 19 13 13 11 10 8 25 25 28 28 27 25 22 21 21 21 20 19 17 14 13 12 11 11 10 5 12
29 23 18 28 37 37 38 36 29 25 26 22 9 19 19 23 22 18 13 12 14 17 17 15 14 26 24 25 22 23 24 23 22 21 23 22 19 17 16 15 14 14 14 14
30 19 21 20 23 34 27 28 31 26 25 30 21 21 21 16 24 15 16 17 16 16 22 24 16 26 23 27 23 24 24 24 24 23 24 24 23 22 22 21 18 16 17 16
27 30 18 15 16 24 30 27 27 24 25 22 20 26 30 16 19 20 20 18 16 15 21 30 23 24 24 24 26 25 24 25 24 23 26 26 24 25 26 25 23 23 20 19
29 25 26 27 32 26 23 34 24 26 26 23 21 25 29 26 18 23 25 22 19 15 14 22 30 32 28 27 26 26 28 29 29 28 25 25 26 28 27 28 29 27 27 24
23 29 31 16 30 33 8 21 26 28 29 24 20 20 22 31 30 29 30 28 27 22 17 18 25 29 32 27 30 34 28 30 29 29 31 28 32 30 30 30 30 31 29 30
16 20 30 35 16 27 24 18 18 25 25 28 26 18 40 20 35 38 31 30 27 24 21 20 21 21 25 25 25 33 30 37 36 41 39 30 33 36 34 34 29 33 32 30
16 14 20 26 24 19 17 21 28 26 23 22 26 35 28 55 19 35 38 33 31 28 26 25 24 22 23 22 26 35 39 36 34 35 46 36 35 37 36 36 37 33 32 32
16 20 15 16 31 26 31 30 32 32 26 40 38 34 45 44 35 29 38 37 35 34 32 30 30 27 24 23 22 24 23 22 22 20 18 23 33 30 39 39 36 36 42 37
20 18 16 23 19 26 26 39 33 35 40 30 40 54 35 39 43 37 33 35 36 37 34 29 30 28 25 24 25 25 20 20 20 21 16 20 23 23 31 34 46 46 45 44
24 27 28 8 27 29 34 29 48 33 34 22 42 45 42 40 39 36 34 35 37 38 37 38 37 35 34 33 31 26 23 22 21 23 24 21 25 24 23 28 34 35 40 39
11 22 24 24 30 27 31 42 39 36 42 38 32 36 38 37 36 34 32 37 37 40 44 45 43 40 40 40 37 34 28 27 26 26 27 23 22 20 18 18 16 20 25 31
12 7 7 19 32 38 41 39 33 32 35 36 39 34 39 37 37 36 35 38 39 40 43 46 48 47 47 46 43 38 34 32 31 29 30 29 21 21 22 21 20 20 19 19
15 15 16 22 24 23 21 39 36 39 33 34 40 42 37 37 39 37 36 38 38 40 39 41 45 49 50 50 49 45 42 38 36 35 33 32 31 29 27 29 26 26 27 25
19 18 19 19 23 22 22 23 22 30 40 43 42 41 42 42 36 40 39 38 40 39 41 40 40 42 44 46 47 45 43 42 41 40 38 36 35 34 35 33 31 30 29 29
22 17 22 22 26 21 23 22 22 22 23 31 43 43 42 39 39 38 38 37 40 43 41 39 39 40 41 42 44 45 44 44 42 41 40 39 38 38 39 39 36 38 36 36
15 16 19 22 22 22 24 22 22 23 22 24 24 40 40 38 40 42 41 41 41 42 40 41 41 44 43 43 45 46 48 48 46 43 43 43 42 41 41 40 43 43 43 40

GFSCGP_500_spd_114.txt.gz
Wind_Speed
31 35 33 26 23 19 18 21 28 15 12 15 24 24 32 27 28 26 27 24 22 20 18 16 12 10 8 7 7 8 10 11 10 11 10 12 12 12 12 14 14 13 12 12
34 36 31 24 20 31 25 28 29 17 20 22 25 31 26 34 33 27 31 27 25 22 21 18 14 11 9 8 7 7 8 9 10 9 11 11 11 10 11 11 12 13 12 10
33 31 30 29 30 24 4 30 24 25 23 14 15 25 35 36 34 36 32 29 28 22 22 19 15 13 11 9 8 7 7 8 9 9 7 8 9 10 10 9 9 10 9 7
32 26 28 30 32 16 13 28 23 35 8 12 14 12 21 17 39 31 41 34 32 28 26 22 19 15 15 13 9 8 8 7 7 9 8 9 9 8 7 8 9 9 9 9
29 32 17 31 26 22 26 38 28 10 18 7 15 14 11 21 33 33 34 39 36 37 25 24 21 18 15 13 11 9 8 7 6 6 7 9 8 8 7 5 5 8 8 7
23 20 19 24 34 27 28 35 22 27 6 7 9 11 7 12 7 35 32 35 35 33 28 26 22 19 16 15 14 11 10 10 9 7 7 8 8 11 8 8 7 7 7 6
30 20 20 32 28 28 23 28 31 20 4 9 7 11 11 20 21 28 29 30 29 33 28 25 23 22 21 16 16 13 11 11 11 10 8 8 9 6 6 5 5 7 6 6
24 24 32 26 28 22 35 31 22 18 11 9 8 14 20 18 10 6 14 35 33 36 28 27 27 21 23 23 18 15 13 13 12 11 10 10 6 4 4 7 8 11 8 10
14 18 17 23 29 22 11 29 23 17 12 7 12 7 8 11 12 20 8 7 32 31 26 29 32 27 32 29 20 17 16 16 16 13 11 12 11 9 9 9 10 11 10 9
17 10 20 18 29 34 26 10 21 35 29 7 22 18 3 15 9 8 9 9 4 27 35 24 27 30 30 17 18 20 20 19 19 17 15 13 12 13 12 12 11 12 11 12
30 22 15 23 25 26 35 32 23 20 21 28 14 20 14 18 22 25 19 17 11 11 25 29 28 21 30 26 23 24 24 23 22 20 19 17 15 14 13 11 10 9 10 10
32 24 11 12 14 17 28 19 31 19 23 19 16 19 20 14 17 23 28 20 20 15 13 12 25 29 25 29 27 21 29 24 23 20 22 20 19 19 18 17 14 10 11 13
35 37 31 10 13 14 17 24 19 25 19 19 17 24 24 19 12 16 22 17 18 19 15 14 19 27 29 29 27 23 19 21 23 21 24 23 18 20 21 21 20 19 16 14
26 29 23 24 29 22 22 20 20 19 22 16 16 25 23 24 16 7 22 20 19 18 21 23 28 26 27 39 19 21 20 23 21 21 19 21 27 23 21 22 23 23 22 20
16 28 32 27 26 31 25 26 20 25 19 21 12 23 25 33 20 16 22 27 24 22 21 25 25 27 26 30 24 30 25 22 23 23 25 24 25 25 23 18 23 25 25 25
14 18 30 22 17 27 32 17 19 18 23 23 28 22 35 24 31 32 32 33 32 29 25 28 32 30 20 21 24 25 21 31 30 32 24 24 26 26 28 31 23 26 28 28
19 14 25 37 21 23 27 32 18 16 19 24 26 33 33 37 41 18 31 26 28 36 35 30 31 29 23 20 23 20 24 25 31 26 28 34 37 36 34 28 32 32 31 28
10 16 24 21 37 21 30 36 38 31 33 30 36 32 36 35 47 48 28 37 34 35 32 31 29 24 24 24 23 21 21 21 22 25 29 33 33 33 32 29 27 33 36 32
19 19 23 24 32 47 31 29 31 36 39 33 32 32 53 51 46 44 45 40 40 38 41 35 28 26 27 26 25 27 23 18 19 18 17 18 13 17 19 26 32 33 33 40
19 25 20 25 24 25 40 41 41 32 41 41 49 48 44 47 51 42 49 31 31 33 40 41 37 32 31 32 33 30 27 27 29 28 18 15 19 19 20 21 25 31 37 46
14 16 17 18 26 24 22 35 35 43 46 54 51 51 51 39 34 18 35 26 31 38 42 43 41 39 37 35 37 35 33 30 26 22 21 21 19 22 23 23 25 26 28 39
12 11 9 20 30 35 25 28 15 23 30 42 36 50 41 64 31 22 29 35 37 39 43 45 46 46 44 44 41 39 38 34 32 31 26 26 24 25 26 24 21 19 19 19
15 12 15 24 10 18 24 32 26 22 27 29 45 52 49 30 36 35 32 34 36 38 38 41 43 46 46 46 44 45 43 42 41 35 32 33 31 30 30 36 36 26 24 23
20 15 16 20 29 25 24 25 22 19 20 26 35 40 36 32 43 30 33 31 34 38 40 40 40 41 44 46 47 48 49 48 47 45 41 40 39 36 32 31 31 30 30 30
23 21 20 19 26 25 22 25 23 21 21 22 23 36 43 39 37 38 39 37 36 39 41 40 40 40 41 42 44 45 46 47 46 44 43 43 45 43 39 38 37 36 35 33
18 17 19 21 23 22 22 20 24 26 23 23 23 23 34 41 41 40 41 41 42 38 42 41 41 42 41 40 43 43 42 43 45 44 37 45 38 38 39 39 38 38 38 38

GFSCGP_500_spd_117.txt.gz
Wind_Speed
36 34 33 26 21 21 16 21 18 25 17 15 25 36 29 30 27 25 22 21 17 17 15 14 9 7 6 6 7 9 10 9 10 10 11 12 12 13 14 13 12 14 15 13
36 33 28 24 28 24 24 20 26 23 17 9 16 37 36 29 30 24 26 23 21 18 18 14 13 9 8 7 6 7 8 9 8 9 9 10 10 11 12 11 11 12 14 13
33 26 24 26 28 29 11 20 25 24 29 15 14 20 32 42 33 31 27 21 25 24 22 17 14 13 10 8 7 6 7 8 8 9 9 10 10 8 9 11 10 10 13 16
30 26 26 24 26 25 23 14 14 18 18 20 14 14 26 34 38 33 32 25 30 27 26 23 19 18 14 10 9 7 6 7 7 7 8 8 10 10 6 6 7 7 8 10
25 25 27 24 25 30 26 10 7 14 13 9 13 13 13 32 35 37 40 32 32 31 27 23 20 18 14 12 11 10 8 6 7 4 6 6 9 7 9 7 5 7 7 7
27 18 22 13 16 22 31 22 13 18 20 8 12 9 6 12 19 20 40 37 34 34 32 27 23 20 18 17 14 12 11 9 8 8 6 6 6 8 7 9 6 5 6 7
23 22 16 21 30 31 21 17 6 16 28 12 3 2 5 8 8 10 31 44 31 35 28 28 25 23 21 19 17 13 10 10 6 6 8 6 6 4 6 7 8 8 6 5
12 23 25 23 26 28 22 24 11 8 16 17 3 10 6 9 6 12 32 34 37 35 33 28 26 25 24 23 18 16 13 12 10 8 7 7 7 7 8 8 6 6 6 5
17 5 4 11 16 29 16 17 11 21 15 19 11 20 14 11 12 4 16 28 33 33 36 31 32 29 27 23 20 17 16 15 14 12 9 8 9 8 6 6 6 7 4 5
21 19 19 14 14 27 30 8 9 21 23 21 23 13 3 9 10 6 10 22 24 30 30 32 28 30 27 24 25 23 18 16 16 15 12 11 12 11 10 7 6 5 6 5
23 16 19 13 21 13 28 27 12 11 16 21 20 23 16 8 13 13 17 18 20 27 33 36 28 30 34 28 26 25 19 19 20 17 17 16 15 14 12 11 10 10 8 9
22 26 27 27 13 4 10 30 25 19 18 13 17 19 14 9 18 13 27 24 21 14 36 49 30 35 33 30 26 22 26 22 21 19 19 19 18 17 16 13 10 9 10 11
22 25 27 19 21 23 12 15 23 22 26 22 18 17 12 12 12 6 24 20 22 20 14 20 30 31 28 26 23 25 23 24 22 20 23 21 20 21 21 18 15 15 15 15
19 29 26 21 19 18 24 22 25 22 17 18 20 12 15 18 11 9 8 16 18 19 20 22 25 24 28 21 26 27 24 24 25 22 21 21 25 20 25 24 20 19 19 19
23 20 32 39 33 25 23 24 23 27 27 22 16 12 15 21 20 17 10 23 15 15 18 9 15 17 24 19 28 26 28 17 20 25 26 23 22 20 25 26 20 19 22 21
15 19 32 36 39 37 32 29 30 33 33 26 25 23 29 24 21 22 27 19 25 30 25 19 25 24 31 19 24 20 27 29 28 26 27 27 25 23 25 27 25 24 22 20
12 15 28 34 37 29 20 36 33 35 29 34 33 28 29 25 26 18 27 31 29 35 35 32 31 28 21 24 24 21 26 23 19 23 28 27 27 24 26 27 26 28 24 31
14 14 18 23 35 26 25 28 38 34 32 30 31 39 35 37 37 36 37 27 41 17 23 29 24 16 21 29 30 19 20 21 16 19 20 23 25 27 29 30 31 27 29 26
15 15 20 24 26 33 37 25 27 29 33 31 36 34 41 39 40 37 42 37 29 25 25 27 30 26 27 20 28 21 20 16 13 16 19 20 22 21 19 20 25 28 25 26
18 17 17 19 22 29 27 43 28 28 30 45 39 24 39 45 42 42 43 40 38 38 29 38 35 38 33 30 29 28 31 29 21 18 21 21 12 12 16 20 22 22 27 26
7 11 20 21 24 23 23 22 40 34 34 32 31 34 33 40 44 42 45 41 44 47 46 38 41 38 29 31 29 30 29 30 28 27 25 22 19 17 19 21 22 23 24 26
8 10 12 18 20 18 17 21 20 21 39 43 39 33 32 40 45 42 33 30 36 38 40 40 40 39 36 34 33 33 33 33 32 32 28 27 23 22 22 22 23 22 25 23
13 12 13 18 19 18 19 18 23 22 28 25 31 44 46 48 51 48 42 50 40 42 39 30 29 34 38 38 39 38 39 37 36 36 34 31 29 29 29 26 24 22 22 24
20 10 15 22 14 16 16 16 17 20 14 19 22 25 36 44 41 37 45 34 29 36 38 32 36 38 38 38 41 44 44 45 43 43 44 41 38 34 31 31 31 31 33 32
19 18 14 20 23 20 22 20 19 17 18 16 19 24 27 30 34 36 36 24 27 28 37 41 37 37 39 41 41 42 43 45 46 46 47 47 46 44 43 39 40 40 38 36
17 13 12 13 18 18 19 18 19 23 19 19 17 22 27 27 26 26 32 30 32 30 31 35 35 37 41 43 43 43 43 43 43 44 45 46 47 46 43 43 42 45 43 43

GFSCGP_500_spd_120.txt.gz
Wind_Speed
39 37 34 23 24 29 10 13 22 16 11 11 20 29 24 26 27 25 20 18 16 13 10 10 8 8 5 5 11 10 12 10 14 13 14 15 14 14 15 15 15 16 13 15
39 32 22 25 27 27 29 16 11 22 23 12 8 36 35 27 30 25 24 22 18 18 15 12 10 9 7 6 9 11 10 9 10 10 13 13 12 11 13 14 12 11 12 14
31 26 25 28 25 21 27 20 20 19 18 26 20 5 39 34 32 30 24 24 23 19 18 16 13 11 9 7 8 12 10 10 10 9 10 12 12 10 9 10 11 11 11 11
29 28 25 31 25 22 23 18 14 14 14 11 20 15 25 35 33 30 27 22 22 21 22 20 16 16 13 11 10 10 14 11 9 9 9 8 11 11 8 7 10 10 8 8
22 23 25 30 24 22 26 29 10 7 11 3 11 12 12 34 41 36 31 30 25 26 23 21 21 17 14 13 12 10 12 14 12 12 11 8 8 8 8 9 8 7 6 5
27 27 31 25 19 14 22 25 24 4 6 11 9 8 9 16 40 38 40 33 28 24 26 26 25 20 18 15 14 14 11 13 15 12 13 11 9 9 7 7 9 8 6 5
29 28 24 22 22 21 20 17 17 8 6 12 16 9 6 13 24 36 36 35 32 26 27 25 28 23 18 18 15 15 14 11 13 14 12 12 10 8 9 9 8 7 6 6
25 29 24 25 28 23 19 13 15 10 2 8 15 8 12 8 14 30 44 42 38 36 32 28 29 24 22 22 17 14 15 14 13 12 12 12 12 9 9 9 10 10 10 9
25 23 20 9 13 16 23 17 21 17 17 14 13 22 17 15 11 21 29 39 45 47 35 31 29 25 26 23 21 18 18 17 15 16 14 10 10 10 8 10 10 10 11 11
21 24 26 21 11 17 19 21 20 23 16 13 14 19 20 3 10 13 20 35 47 43 38 37 35 24 27 25 23 20 22 18 17 15 16 15 14 11 10 10 10 10 10 10
19 20 17 17 13 14 17 19 10 11 9 4 12 12 17 23 15 6 4 28 40 44 36 31 32 32 31 28 25 25 23 22 19 18 17 16 16 15 12 10 11 10 10 10
14 22 22 22 20 14 14 24 20 20 12 11 12 6 5 5 9 8 10 24 32 39 39 32 34 34 37 31 22 22 26 21 21 23 21 19 17 16 15 13 12 11 11 12
20 24 27 28 24 21 17 25 31 27 23 19 18 9 5 4 3 0 7 19 22 30 34 41 39 34 30 29 32 31 30 28 25 24 25 23 23 22 20 18 18 16 15 15
19 27 31 30 27 23 25 23 29 34 30 27 26 18 13 7 1 4 14 11 18 19 14 23 33 34 34 31 34 26 32 30 26 27 27 26 23 22 23 21 22 21 20 20
19 29 37 32 35 32 28 29 26 30 30 27 25 28 20 15 17 9 10 3 15 20 18 15 15 29 35 25 30 28 28 30 28 32 30 31 28 28 25 21 26 25 23 23
17 27 32 37 37 32 29 32 29 26 27 28 29 29 30 28 28 25 14 15 17 18 17 19 21 18 20 26 28 23 30 35 27 28 30 24 27 27 26 25 29 24 28 20
14 21 28 35 41 46 41 34 30 28 28 32 31 32 33 28 20 21 22 24 23 24 23 21 20 24 24 24 32 35 24 35 32 27 26 33 39 33 29 28 26 26 25 26
16 20 18 25 40 36 34 33 39 38 32 33 35 36 37 35 30 29 26 27 32 30 30 31 42 22 30 30 29 35 27 28 27 25 30 32 32 35 30 26 25 28 25 27
15 15 19 19 20 26 33 32 31 26 37 35 36 41 38 39 34 31 32 31 28 29 22 34 33 37 29 35 34 30 30 26 29 26 26 23 18 23 24 24 26 24 29 26
14 12 15 17 17 18 23 31 38 33 31 33 47 49 43 37 41 37 36 35 37 33 37 27 36 26 32 23 17 23 33 22 23 23 19 17 20 19 21 20 20 21 23 14
6 7 15 20 20 19 16 20 29 38 35 28 29 42 50 39 40 36 37 42 36 35 33 34 33 34 24 29 27 21 24 24 25 26 22 21 24 32 21 19 20 20 21 27
9 7 9 12 14 15 15 16 19 23 29 34 34 31 39 45 42 46 41 41 39 25 30 36 38 36 36 34 36 40 29 25 24 26 23 21 29 29 26 14 20 22 24 26
11 10 11 12 11 12 13 21 14 21 24 23 20 27 42 44 42 43 37 33 34 31 23 27 31 37 40 41 41 39 44 41 26 23 22 23 24 23 25 22 25 24 27 28
15 14 15 15 14 14 15 14 12 16 18 24 26 22 25 31 31 41 37 38 36 38 42 38 39 47 50 49 46 42 40 39 34 34 32 31 32 32 33 29 30 30 31 30
13 12 11 14 13 11 8 15 19 21 20 19 18 18 19 21 24 26 31 37 39 36 41 47 48 41 54 51 45 38 36 36 38 41 40 40 40 40 41 40 39 38 38 36
11 10 9 10 10 11 10 11 13 15 17 17 19 20 22 23 25 26 26 24 23 35 29 35 36 38 45 49 43 35 36 36 38 40 39 41 43 44 45 47 46 45 45 44

GFSCGP_500_spd_123.txt.gz
Wind_Speed
37 38 37 20 24 28 26 22 27 18 20 22 16 20 22 18 27 20 14 13 14 16 13 10 6 9 12 10 11 15 17 15 16 18 19 20 18 19 19 16 13 14 16 16
36 33 25 28 27 28 26 28 26 17 24 22 11 24 27 29 25 26 23 17 16 16 16 11 8 6 12 11 10 12 17 16 15 14 15 19 19 16 17 12 13 13 12 17
28 26 29 28 28 27 24 27 24 8 9 19 21 10 37 29 30 33 24 22 19 19 18 15 13 9 10 11 11 10 15 16 15 14 13 15 16 15 15 13 10 13 13 13
25 30 30 31 28 27 28 30 30 15 7 10 18 16 8 41 36 26 28 22 21 22 22 18 16 14 11 12 11 10 10 15 16 14 14 13 14 14 13 11 13 11 8 9
27 27 26 24 19 24 24 25 22 15 8 16 10 11 18 21 44 31 31 26 22 23 23 18 19 15 12 13 12 12 11 11 15 15 14 14 12 11 12 11 12 12 8 7
25 27 28 26 30 27 23 22 26 12 5 10 11 10 9 15 39 42 33 28 23 23 23 23 20 18 15 13 11 11 11 12 12 14 15 12 12 12 11 11 11 10 10 8
27 29 27 25 28 27 23 21 22 20 10 7 13 13 9 9 15 43 41 32 28 25 25 27 20 19 17 15 14 13 13 13 13 11 11 13 14 11 10 9 8 7 7 7
27 26 26 28 24 25 23 9 8 15 6 2 8 17 8 15 10 18 47 42 32 31 30 31 25 23 22 20 18 16 14 15 16 15 14 12 13 14 12 11 10 9 8 7
29 23 20 22 18 21 21 13 19 19 11 7 8 11 10 11 8 5 14 40 38 41 32 31 27 27 26 22 19 19 18 17 16 15 14 13 13 10 12 12 11 11 10 8
30 18 22 21 22 23 21 17 17 20 18 16 10 10 9 10 12 11 11 20 36 38 37 32 28 30 29 25 21 20 19 18 17 17 17 14 13 14 14 14 12 12 11 11
32 28 22 22 23 17 19 21 16 15 9 7 4 1 3 9 11 15 17 12 29 34 39 35 38 35 30 31 26 26 22 20 21 20 19 17 16 15 15 14 13 13 14 13
27 28 20 19 15 18 20 20 19 13 15 11 7 3 4 3 2 6 12 14 18 30 40 44 37 34 33 31 28 27 24 25 22 21 20 20 17 18 18 18 15 14 14 14
19 26 23 23 24 21 20 21 24 23 20 20 13 11 10 4 7 5 4 13 9 33 46 51 44 40 35 33 28 27 25 28 25 24 24 24 23 23 22 20 18 17 16 15
21 26 28 30 29 30 25 25 25 26 25 26 21 14 14 8 7 3 4 6 10 24 24 34 41 36 34 32 32 31 30 29 28 31 27 29 26 26 25 23 22 20 18 17
16 24 29 24 31 32 29 24 23 26 29 29 27 22 21 18 13 7 7 6 7 9 26 26 31 32 36 38 37 38 37 33 29 28 28 31 31 28 30 30 28 26 24 25
18 20 30 32 31 35 33 28 26 24 22 30 31 29 25 27 22 23 16 11 10 15 21 21 26 33 41 36 36 40 37 31 34 32 35 36 35 32 31 32 30 28 27 31
20 25 27 32 37 39 38 37 32 31 25 20 26 28 21 25 27 26 24 24 18 19 17 17 19 15 24 37 41 33 29 32 29 28 34 34 36 38 37 34 31 32 34 30
20 18 21 30 37 39 40 40 38 30 31 26 26 29 28 28 29 29 27 28 29 24 24 18 19 23 24 24 30 35 30 37 34 28 37 35 38 38 36 34 37 35 37 35
17 19 19 21 23 26 34 36 36 40 40 37 31 29 35 31 32 30 31 28 29 31 30 31 19 25 28 30 34 32 33 31 39 39 30 40 31 39 44 40 43 41 37 40
12 15 17 17 20 24 20 22 28 35 36 29 38 42 40 40 38 35 37 37 34 33 35 26 26 29 27 27 36 35 42 37 29 41 38 33 38 38 30 34 40 44 41 32
13 15 18 17 17 17 17 19 22 23 24 35 33 40 42 42 40 42 41 40 35 35 35 34 33 31 30 30 37 39 23 33 31 32 39 33 30 28 30 29 27 32 32 29
12 12 10 13 15 17 17 19 20 19 18 24 37 38 38 44 45 48 48 38 37 35 39 40 38 37 33 29 33 35 18 12 20 27 32 35 28 27 30 29 35 36 31 29
14 12 11 12 12 12 12 12 13 15 11 19 24 30 40 37 35 43 45 51 40 42 41 37 40 43 38 35 35 29 31 25 31 17 18 25 30 28 23 27 19 18 22 18
13 15 16 16 16 13 14 14 16 16 16 18 21 25 26 27 32 32 43 48 36 49 45 42 35 37 37 33 34 32 29 34 34 41 42 37 35 34 27 28 31 25 20 23
14 14 13 13 15 15 16 17 18 22 19 16 17 18 22 26 27 23 19 28 35 38 38 44 34 32 34 35 38 38 37 37 41 40 45 45 46 37 31 27 28 31 31 31
11 9 10 10 11 9 9 11 15 21 23 24 25 25 24 23 23 23 22 22 23 29 34 39 40 36 35 36 36 39 39 37 41 44 45 48 46 39 37 37 38 40 40 40

GFSCGP_500_spd_126.txt.gz
Wind_Speed
34 34 30 21 23 23 25 24 21 24 20 16 17 15 14 18 20 25 21 18 13 13 16 13 11 13 15 13 15 17 17 16 18 19 20 21 19 18 18 17 16 18 17 16
29 27 23 28 26 25 24 24 19 23 21 20 20 17 21 19 23 19 22 22 16 12 15 12 11 14 16 15 13 15 17 17 17 18 20 20 18 15 15 15 16 14 17 15
24 25 28 29 27 25 23 25 25 22 16 18 21 21 24 27 27 32 25 21 16 17 16 18 13 13 14 16 14 12 15 17 19 18 18 20 17 17 14 13 15 16 15 14
22 24 28 28 28 25 22 24 28 22 17 6 10 20 24 25 30 32 27 17 19 21 18 19 16 16 15 15 17 13 12 15 18 17 17 15 16 15 13 13 15 14 12 12
22 27 28 28 24 22 21 22 29 28 22 10 13 12 22 15 33 35 27 26 22 23 21 20 19 17 17 16 15 16 14 14 16 16 18 18 15 14 13 14 12 12 12 12
23 24 26 26 26 24 22 21 20 25 18 9 14 7 6 14 17 39 29 25 26 25 26 24 24 20 18 16 16 15 15 15 14 16 16 16 15 15 14 14 12 9 12 11
20 21 22 25 26 22 23 25 17 16 17 10 10 12 10 14 14 15 44 27 25 25 27 23 22 18 18 19 18 16 16 15 14 13 13 13 14 14 14 14 15 12 12 12
19 18 19 19 20 19 12 17 21 22 16 3 3 4 8 8 12 15 25 38 27 29 28 23 24 23 21 20 20 19 16 16 15 14 13 14 14 14 14 14 14 13 12 11
21 19 19 20 17 20 16 11 16 16 19 2 7 4 12 2 6 6 9 34 36 31 26 25 26 27 25 22 20 20 20 18 18 16 15 14 14 14 13 13 12 11 11 10
23 19 24 19 22 21 13 13 16 15 15 19 4 8 7 3 7 9 7 14 35 39 33 32 29 30 28 26 23 22 20 19 17 17 16 16 16 12 14 14 13 11 10 10
21 29 27 22 22 21 21 17 17 15 13 14 8 3 1 5 7 10 10 7 8 36 52 39 29 34 31 29 25 25 22 20 20 19 18 19 17 15 15 13 13 12 12 11
23 18 18 19 26 22 21 22 20 19 14 12 12 5 2 5 6 6 7 8 11 21 36 39 39 37 30 30 28 27 25 23 21 18 18 19 17 17 17 15 14 12 11 13
25 21 24 21 24 24 22 24 21 19 19 19 17 11 9 6 7 7 7 7 10 19 32 38 43 36 33 34 32 30 27 25 24 23 22 21 20 19 20 19 17 15 15 16
27 29 30 28 26 27 25 26 23 22 24 21 21 14 12 11 10 7 9 4 7 12 30 32 36 37 47 39 35 34 33 29 28 28 27 25 23 23 23 23 21 20 20 19
29 30 33 35 30 26 27 27 22 20 22 25 26 21 17 16 13 11 8 5 3 7 25 33 34 39 37 39 38 35 34 32 31 33 31 30 27 25 26 28 26 25 24 22
16 20 24 30 30 34 33 31 28 26 18 22 26 26 23 22 21 17 14 9 7 5 13 18 33 50 46 47 44 39 37 34 32 31 31 33 34 30 28 31 33 31 30 29
19 21 21 22 26 28 33 37 33 31 25 23 26 24 25 25 25 21 22 20 16 15 19 15 25 32 41 43 40 40 40 41 41 35 36 36 34 32 30 34 37 35 34 33
18 21 22 24 27 27 26 30 35 36 30 30 32 31 21 20 25 25 25 23 22 21 20 22 16 15 25 34 34 32 37 39 35 36 36 34 35 35 34 35 36 38 39 37
17 20 23 23 23 25 26 28 30 33 37 37 37 38 30 22 27 28 30 29 26 25 22 20 20 19 16 15 28 33 35 39 37 36 40 37 35 40 38 36 37 38 42 42
12 15 22 23 24 24 23 24 23 28 34 37 40 39 36 33 28 30 34 33 30 29 25 23 21 29 30 24 26 30 32 34 42 38 40 43 43 45 46 41 40 40 43 47
12 13 16 18 20 20 20 23 23 21 18 27 36 41 40 40 38 34 32 35 35 33 31 31 28 24 27 26 27 30 30 34 43 37 47 47 56 50 42 46 44 42 47 54
14 14 13 12 16 18 19 21 23 21 20 19 21 25 35 41 43 42 43 41 38 36 33 32 34 32 31 33 31 30 28 33 34 28 36 19 25 35 36 32 35 38 39 37
16 16 15 15 13 13 16 17 19 21 19 18 17 20 22 28 39 35 33 42 42 41 38 35 35 32 36 36 34 30 35 35 32 36 20 32 33 28 35 33 36 37 41 38
14 15 16 17 16 17 16 16 15 16 17 20 18 17 19 20 22 27 32 33 34 35 37 37 38 40 36 37 36 37 39 31 34 37 41 39 22 29 21 17 16 22 19 21
13 15 17 17 20 22 21 19 18 19 20 21 20 19 18 18 22 25 26 24 27 29 34 38 41 38 37 39 36 34 34 33 36 35 36 34 40 30 30 28 27 32 34 28
14 14 14 15 15 14 14 14 15 15 15 18 21 23 22 22 23 23 25 27 28 27 26 29 31 34 34 33 36 38 35 34 32 30 33 35 34 33 33 33 32 34 34 33

GFSCGP_500_spd_129.txt.gz
Wind_Speed
25 26 19 21 23 25 23 23 23 23 23 22 15 15 17 11 24 24 20 17 17 16 14 16 15 14 16 15 18 16 20 21 21 24 23 21 19 19 18 17 16 15 15 15
25 22 23 25 26 25 25 22 24 23 22 20 18 13 15 12 13 18 23 19 18 15 15 16 14 17 16 17 16 19 17 20 22 22 22 21 20 17 17 18 15 15 15 15
22 22 23 26 24 23 24 21 22 22 23 19 18 17 17 17 20 20 23 22 18 18 17 17 16 16 16 18 18 17 17 19 22 25 22 20 19 18 16 17 16 15 14 14
20 21 22 24 23 22 21 22 23 23 20 16 14 15 17 17 16 21 28 23 21 21 21 16 19 18 16 16 18 19 17 17 21 21 21 18 17 17 18 18 16 15 14 14
19 22 22 24 21 22 21 23 22 19 24 22 12 9 14 20 23 16 28 26 22 19 19 17 17 18 18 16 16 17 18 17 17 19 20 18 16 17 17 17 16 16 15 13
19 23 24 21 22 21 21 22 19 16 21 25 10 9 8 13 20 13 25 42 27 23 22 22 20 19 16 18 17 16 16 18 17 17 18 18 16 14 16 16 14 14 14 15
17 17 18 19 21 22 21 20 17 14 14 18 20 11 10 8 12 19 15 34 29 27 24 21 19 19 18 17 18 18 16 16 16 16 16 17 16 14 13 12 11 11 12 11
12 12 15 17 18 14 12 16 18 13 13 12 13 12 12 13 14 14 19 36 37 34 25 23 23 23 22 20 19 19 18 17 16 15 14 13 13 15 14 14 13 12 12 12
9 9 9 11 13 15 15 16 18 13 11 12 9 5 12 7 9 11 16 29 39 33 27 25 27 26 25 23 21 20 20 20 18 18 18 15 13 12 12 12 13 13 12 11
11 12 13 14 12 15 18 16 21 15 10 17 2 0 9 9 10 11 3 17 42 35 30 30 28 28 27 27 25 22 20 20 19 18 18 17 15 13 12 12 12 13 13 13
16 17 18 19 17 17 16 20 17 16 13 8 12 5 5 5 3 6 2 4 26 43 33 30 29 31 31 31 28 26 23 21 21 20 18 17 17 17 13 14 13 12 12 13
20 22 20 22 21 19 19 21 21 14 11 12 10 11 10 7 4 4 2 3 3 13 41 38 36 37 33 33 30 28 27 26 24 23 21 19 17 15 16 16 15 15 14 14
21 21 24 28 27 20 23 21 22 21 18 18 18 19 14 8 5 5 5 7 7 14 31 47 46 36 32 37 35 32 30 30 28 25 23 20 20 21 19 18 17 17 16 14
18 21 25 20 22 20 22 21 20 21 23 22 22 23 20 13 11 9 7 4 5 10 18 35 49 50 37 37 37 38 35 34 33 28 25 23 23 24 23 20 19 20 20 18
16 25 25 28 28 27 21 25 24 21 22 23 24 25 22 19 18 16 10 4 7 7 15 26 38 44 44 43 39 44 41 38 37 34 31 29 30 28 26 24 24 23 23 24
23 22 31 32 33 28 30 31 24 24 22 19 22 23 26 25 21 19 15 12 8 11 12 17 37 37 40 43 41 40 45 42 38 36 33 34 34 32 29 29 29 28 28 28
20 20 26 33 33 29 34 36 30 29 26 26 25 22 18 16 22 24 22 19 15 14 15 17 11 25 43 52 50 43 45 47 44 41 40 37 37 35 34 37 33 31 31 31
17 20 21 27 27 26 24 23 24 31 33 30 30 28 24 22 18 21 25 22 21 17 18 18 23 24 18 32 42 37 42 43 41 39 40 37 34 35 35 37 38 37 34 34
13 15 19 22 25 26 26 23 24 25 29 34 32 34 32 29 23 22 25 26 25 22 17 16 15 12 13 23 28 43 44 43 45 43 40 39 40 41 41 35 38 40 41 38
14 15 18 20 22 23 20 21 23 25 28 31 35 40 40 35 31 27 27 29 27 25 24 21 16 17 19 20 21 12 31 35 39 37 37 41 44 46 44 42 34 44 48 47
16 15 15 16 18 20 19 22 25 25 24 24 27 34 39 40 39 34 32 28 29 31 28 26 24 21 19 18 24 17 20 27 29 31 38 46 46 48 45 46 45 47 38 39
18 18 18 17 17 17 18 19 22 21 20 21 20 19 23 30 35 37 37 35 33 30 28 26 27 28 27 23 21 21 24 23 22 27 27 28 29 43 34 47 58 50 43 46
18 18 18 18 17 15 13 14 18 21 23 23 21 20 19 21 24 29 35 39 40 42 43 40 33 28 29 28 26 27 27 27 27 29 28 30 29 25 38 36 39 42 52 51
16 15 14 17 19 18 15 13 13 13 15 18 20 18 16 15 19 24 24 28 34 33 29 34 34 35 32 32 31 29 29 27 28 30 32 33 37 38 38 19 14 21 23 32
14 14 15 16 19 19 19 19 19 18 17 17 18 19 20 20 18 17 21 23 22 25 31 29 30 29 28 30 32 33 34 33 30 29 29 30 33 39 35 33 26 22 22 20
17 16 17 17 18 17 17 15 15 15 15 17 18 20 22 24 22 21 19 18 22 25 25 26 28 30 29 28 30 33 33 31 29 29 28 26 29 32 31 34 35 30 23 21